<?xml version="1.0" encoding="UTF-8" standalone="yes"?>
<gpx
 xmlns="http://www.topografix.com/GPX/1/1"
 creator="OziExplorer Version 3956d - http://www.oziexplorer.com"
 version="1.1"
 xmlns:xsi="http://www.w3.org/2001/XMLSchema-instance"
 xsi:schemaLocation="http://www.topografix.com/GPX/1/1 http://www.topografix.com/GPX/1/1/gpx.xsd">
<metadata>
 <time>2015-05-24T09:39:34Z</time>
 <bounds minlat="31.928352" minlon="34.939156" maxlat="31.952402" maxlon="34.981905"/>
</metadata>
<trk>
 <name>Джиповки леса Бен Шемен</name>
 <desc>Джиповки леса Бен Шемен</desc>
<trkseg>
<trkpt lat="31.9511049" lon="34.9556888">
<ele>196.250000</ele>
<time>2015-05-24T03:20:52.000Z</time>
</trkpt>
<trkpt lat="31.9510346" lon="34.9555727">
<ele>181.349991</ele>
<time>2015-05-24T03:22:03.000Z</time>
</trkpt>
<trkpt lat="31.9509567" lon="34.9554882">
<ele>181.349991</ele>
<time>2015-05-24T03:22:09.000Z</time>
</trkpt>
<trkpt lat="31.9508593" lon="34.9554283">
<ele>181.830002</ele>
<time>2015-05-24T03:22:16.000Z</time>
</trkpt>
<trkpt lat="31.9507512" lon="34.9554131">
<ele>182.310013</ele>
<time>2015-05-24T03:22:22.000Z</time>
</trkpt>
<trkpt lat="31.9506548" lon="34.9553924">
<ele>181.830002</ele>
<time>2015-05-24T03:22:28.000Z</time>
</trkpt>
<trkpt lat="31.9505840" lon="34.9553232">
<ele>182.310013</ele>
<time>2015-05-24T03:22:33.000Z</time>
</trkpt>
<trkpt lat="31.9505636" lon="34.9551949">
<ele>181.349991</ele>
<time>2015-05-24T03:22:37.000Z</time>
</trkpt>
<trkpt lat="31.9505400" lon="34.9550865">
<ele>181.349991</ele>
<time>2015-05-24T03:22:40.000Z</time>
</trkpt>
<trkpt lat="31.9505142" lon="34.9549521">
<ele>180.380005</ele>
<time>2015-05-24T03:22:44.000Z</time>
</trkpt>
<trkpt lat="31.9505196" lon="34.9548050">
<ele>179.420013</ele>
<time>2015-05-24T03:22:49.000Z</time>
</trkpt>
<trkpt lat="31.9505373" lon="34.9546860">
<ele>178.940002</ele>
<time>2015-05-24T03:22:52.000Z</time>
</trkpt>
<trkpt lat="31.9505615" lon="34.9545570">
<ele>178.459991</ele>
<time>2015-05-24T03:22:55.000Z</time>
</trkpt>
<trkpt lat="31.9506007" lon="34.9544407">
<ele>177.979996</ele>
<time>2015-05-24T03:22:58.000Z</time>
</trkpt>
<trkpt lat="31.9506636" lon="34.9543440">
<ele>177.020004</ele>
<time>2015-05-24T03:23:01.000Z</time>
</trkpt>
<trkpt lat="31.9507289" lon="34.9542260">
<ele>177.020004</ele>
<time>2015-05-24T03:23:04.000Z</time>
</trkpt>
<trkpt lat="31.9508041" lon="34.9540938">
<ele>176.539993</ele>
<time>2015-05-24T03:23:07.000Z</time>
</trkpt>
<trkpt lat="31.9508728" lon="34.9540170">
<ele>176.060013</ele>
<time>2015-05-24T03:23:09.000Z</time>
</trkpt>
<trkpt lat="31.9509768" lon="34.9539483">
<ele>176.060013</ele>
<time>2015-05-24T03:23:12.000Z</time>
</trkpt>
<trkpt lat="31.9510829" lon="34.9538964">
<ele>175.580002</ele>
<time>2015-05-24T03:23:15.000Z</time>
</trkpt>
<trkpt lat="31.9511754" lon="34.9538196">
<ele>175.099991</ele>
<time>2015-05-24T03:23:18.000Z</time>
</trkpt>
<trkpt lat="31.9512619" lon="34.9537371">
<ele>175.099991</ele>
<time>2015-05-24T03:23:21.000Z</time>
</trkpt>
<trkpt lat="31.9513501" lon="34.9536529">
<ele>174.619995</ele>
<time>2015-05-24T03:23:24.000Z</time>
</trkpt>
<trkpt lat="31.9514221" lon="34.9535708">
<ele>174.139999</ele>
<time>2015-05-24T03:23:27.000Z</time>
</trkpt>
<trkpt lat="31.9514866" lon="34.9534806">
<ele>173.660004</ele>
<time>2015-05-24T03:23:31.000Z</time>
</trkpt>
<trkpt lat="31.9515851" lon="34.9533763">
<ele>172.690002</ele>
<time>2015-05-24T03:23:35.000Z</time>
</trkpt>
<trkpt lat="31.9516823" lon="34.9532655">
<ele>173.170013</ele>
<time>2015-05-24T03:23:39.000Z</time>
</trkpt>
<trkpt lat="31.9517627" lon="34.9531424">
<ele>173.170013</ele>
<time>2015-05-24T03:23:43.000Z</time>
</trkpt>
<trkpt lat="31.9518122" lon="34.9530377">
<ele>172.690002</ele>
<time>2015-05-24T03:23:46.000Z</time>
</trkpt>
<trkpt lat="31.9518384" lon="34.9529045">
<ele>171.729996</ele>
<time>2015-05-24T03:23:49.000Z</time>
</trkpt>
<trkpt lat="31.9518416" lon="34.9527660">
<ele>171.250000</ele>
<time>2015-05-24T03:23:52.000Z</time>
</trkpt>
<trkpt lat="31.9518336" lon="34.9526368">
<ele>170.770004</ele>
<time>2015-05-24T03:23:55.000Z</time>
</trkpt>
<trkpt lat="31.9518187" lon="34.9524991">
<ele>170.289993</ele>
<time>2015-05-24T03:23:58.000Z</time>
</trkpt>
<trkpt lat="31.9517679" lon="34.9523805">
<ele>169.810013</ele>
<time>2015-05-24T03:24:01.000Z</time>
</trkpt>
<trkpt lat="31.9516960" lon="34.9523063">
<ele>168.849991</ele>
<time>2015-05-24T03:24:04.000Z</time>
</trkpt>
<trkpt lat="31.9516100" lon="34.9522215">
<ele>167.410004</ele>
<time>2015-05-24T03:24:07.000Z</time>
</trkpt>
<trkpt lat="31.9515338" lon="34.9520926">
<ele>165.959991</ele>
<time>2015-05-24T03:24:10.000Z</time>
</trkpt>
<trkpt lat="31.9515054" lon="34.9519747">
<ele>164.520004</ele>
<time>2015-05-24T03:24:12.000Z</time>
</trkpt>
<trkpt lat="31.9515278" lon="34.9517677">
<ele>164.039993</ele>
<time>2015-05-24T03:24:15.000Z</time>
</trkpt>
<trkpt lat="31.9515519" lon="34.9516210">
<ele>163.560013</ele>
<time>2015-05-24T03:24:17.000Z</time>
</trkpt>
<trkpt lat="31.9516085" lon="34.9514891">
<ele>163.080002</ele>
<time>2015-05-24T03:24:19.000Z</time>
</trkpt>
<trkpt lat="31.9516723" lon="34.9513903">
<ele>163.080002</ele>
<time>2015-05-24T03:24:21.000Z</time>
</trkpt>
<trkpt lat="31.9517094" lon="34.9512483">
<ele>162.599991</ele>
<time>2015-05-24T03:24:24.000Z</time>
</trkpt>
<trkpt lat="31.9516570" lon="34.9511140">
<ele>161.160004</ele>
<time>2015-05-24T03:24:27.000Z</time>
</trkpt>
<trkpt lat="31.9515586" lon="34.9509929">
<ele>160.679993</ele>
<time>2015-05-24T03:24:30.000Z</time>
</trkpt>
<trkpt lat="31.9514709" lon="34.9509380">
<ele>160.679993</ele>
<time>2015-05-24T03:24:32.000Z</time>
</trkpt>
<trkpt lat="31.9513680" lon="34.9508820">
<ele>159.239990</ele>
<time>2015-05-24T03:24:34.000Z</time>
</trkpt>
<trkpt lat="31.9512735" lon="34.9508138">
<ele>158.750000</ele>
<time>2015-05-24T03:24:36.000Z</time>
</trkpt>
<trkpt lat="31.9511805" lon="34.9507295">
<ele>156.830002</ele>
<time>2015-05-24T03:24:38.000Z</time>
</trkpt>
<trkpt lat="31.9510765" lon="34.9506360">
<ele>155.389999</ele>
<time>2015-05-24T03:24:40.000Z</time>
</trkpt>
<trkpt lat="31.9509298" lon="34.9505412">
<ele>155.389999</ele>
<time>2015-05-24T03:24:42.000Z</time>
</trkpt>
<trkpt lat="31.9508149" lon="34.9505000">
<ele>154.909988</ele>
<time>2015-05-24T03:24:44.000Z</time>
</trkpt>
<trkpt lat="31.9506462" lon="34.9504485">
<ele>153.949997</ele>
<time>2015-05-24T03:24:46.000Z</time>
</trkpt>
<trkpt lat="31.9505316" lon="34.9504124">
<ele>153.470001</ele>
<time>2015-05-24T03:24:48.000Z</time>
</trkpt>
<trkpt lat="31.9503694" lon="34.9503594">
<ele>152.990005</ele>
<time>2015-05-24T03:24:50.000Z</time>
</trkpt>
<trkpt lat="31.9502766" lon="34.9502927">
<ele>152.029999</ele>
<time>2015-05-24T03:24:52.000Z</time>
</trkpt>
<trkpt lat="31.9501625" lon="34.9501812">
<ele>152.029999</ele>
<time>2015-05-24T03:24:54.000Z</time>
</trkpt>
<trkpt lat="31.9500212" lon="34.9501152">
<ele>151.059998</ele>
<time>2015-05-24T03:24:57.000Z</time>
</trkpt>
<trkpt lat="31.9499021" lon="34.9500502">
<ele>149.139999</ele>
<time>2015-05-24T03:24:59.000Z</time>
</trkpt>
<trkpt lat="31.9497903" lon="34.9499678">
<ele>148.659988</ele>
<time>2015-05-24T03:25:01.000Z</time>
</trkpt>
<trkpt lat="31.9496759" lon="34.9498788">
<ele>147.699997</ele>
<time>2015-05-24T03:25:03.000Z</time>
</trkpt>
<trkpt lat="31.9495567" lon="34.9497870">
<ele>147.220001</ele>
<time>2015-05-24T03:25:05.000Z</time>
</trkpt>
<trkpt lat="31.9494483" lon="34.9496743">
<ele>146.740005</ele>
<time>2015-05-24T03:25:07.000Z</time>
</trkpt>
<trkpt lat="31.9493494" lon="34.9495522">
<ele>146.260010</ele>
<time>2015-05-24T03:25:09.000Z</time>
</trkpt>
<trkpt lat="31.9492409" lon="34.9494364">
<ele>145.779999</ele>
<time>2015-05-24T03:25:11.000Z</time>
</trkpt>
<trkpt lat="31.9491302" lon="34.9493257">
<ele>144.819992</ele>
<time>2015-05-24T03:25:13.000Z</time>
</trkpt>
<trkpt lat="31.9490362" lon="34.9492339">
<ele>143.369995</ele>
<time>2015-05-24T03:25:15.000Z</time>
</trkpt>
<trkpt lat="31.9489676" lon="34.9491569">
<ele>142.889999</ele>
<time>2015-05-24T03:25:17.000Z</time>
</trkpt>
<trkpt lat="31.9489176" lon="34.9490074">
<ele>141.929993</ele>
<time>2015-05-24T03:25:20.000Z</time>
</trkpt>
<trkpt lat="31.9489193" lon="34.9488832">
<ele>141.449997</ele>
<time>2015-05-24T03:25:22.000Z</time>
</trkpt>
<trkpt lat="31.9489309" lon="34.9487523">
<ele>140.970001</ele>
<time>2015-05-24T03:25:24.000Z</time>
</trkpt>
<trkpt lat="31.9489325" lon="34.9486267">
<ele>140.490005</ele>
<time>2015-05-24T03:25:26.000Z</time>
</trkpt>
<trkpt lat="31.9489219" lon="34.9484972">
<ele>140.970001</ele>
<time>2015-05-24T03:25:28.000Z</time>
</trkpt>
<trkpt lat="31.9488930" lon="34.9483730">
<ele>140.490005</ele>
<time>2015-05-24T03:25:30.000Z</time>
</trkpt>
<trkpt lat="31.9488553" lon="34.9482449">
<ele>140.010010</ele>
<time>2015-05-24T03:25:32.000Z</time>
</trkpt>
<trkpt lat="31.9488158" lon="34.9481110">
<ele>139.529999</ele>
<time>2015-05-24T03:25:34.000Z</time>
</trkpt>
<trkpt lat="31.9487653" lon="34.9479752">
<ele>138.089996</ele>
<time>2015-05-24T03:25:36.000Z</time>
</trkpt>
<trkpt lat="31.9487114" lon="34.9478375">
<ele>138.569992</ele>
<time>2015-05-24T03:25:38.000Z</time>
</trkpt>
<trkpt lat="31.9486757" lon="34.9477336">
<ele>138.089996</ele>
<time>2015-05-24T03:25:40.000Z</time>
</trkpt>
<trkpt lat="31.9486509" lon="34.9476150">
<ele>136.639999</ele>
<time>2015-05-24T03:26:27.000Z</time>
</trkpt>
<trkpt lat="31.9485994" lon="34.9474976">
<ele>136.639999</ele>
<time>2015-05-24T03:26:31.000Z</time>
</trkpt>
<trkpt lat="31.9485620" lon="34.9473847">
<ele>136.159988</ele>
<time>2015-05-24T03:26:34.000Z</time>
</trkpt>
<trkpt lat="31.9485340" lon="34.9472377">
<ele>135.679993</ele>
<time>2015-05-24T03:26:37.000Z</time>
</trkpt>
<trkpt lat="31.9485213" lon="34.9471259">
<ele>135.199997</ele>
<time>2015-05-24T03:26:39.000Z</time>
</trkpt>
<trkpt lat="31.9485165" lon="34.9470064">
<ele>135.199997</ele>
<time>2015-05-24T03:26:41.000Z</time>
</trkpt>
<trkpt lat="31.9485076" lon="34.9468836">
<ele>134.240005</ele>
<time>2015-05-24T03:26:43.000Z</time>
</trkpt>
<trkpt lat="31.9484985" lon="34.9467577">
<ele>134.240005</ele>
<time>2015-05-24T03:26:45.000Z</time>
</trkpt>
<trkpt lat="31.9484818" lon="34.9466342">
<ele>133.760010</ele>
<time>2015-05-24T03:26:47.000Z</time>
</trkpt>
<trkpt lat="31.9484746" lon="34.9465058">
<ele>133.279999</ele>
<time>2015-05-24T03:26:49.000Z</time>
</trkpt>
<trkpt lat="31.9484802" lon="34.9463708">
<ele>132.800003</ele>
<time>2015-05-24T03:26:51.000Z</time>
</trkpt>
<trkpt lat="31.9484999" lon="34.9462366">
<ele>132.319992</ele>
<time>2015-05-24T03:26:53.000Z</time>
</trkpt>
<trkpt lat="31.9485351" lon="34.9461061">
<ele>132.319992</ele>
<time>2015-05-24T03:26:55.000Z</time>
</trkpt>
<trkpt lat="31.9485761" lon="34.9459777">
<ele>131.839996</ele>
<time>2015-05-24T03:26:57.000Z</time>
</trkpt>
<trkpt lat="31.9486146" lon="34.9458489">
<ele>131.839996</ele>
<time>2015-05-24T03:26:59.000Z</time>
</trkpt>
<trkpt lat="31.9486572" lon="34.9457212">
<ele>131.360001</ele>
<time>2015-05-24T03:27:01.000Z</time>
</trkpt>
<trkpt lat="31.9486966" lon="34.9455974">
<ele>131.360001</ele>
<time>2015-05-24T03:27:03.000Z</time>
</trkpt>
<trkpt lat="31.9487181" lon="34.9454636">
<ele>130.880005</ele>
<time>2015-05-24T03:27:05.000Z</time>
</trkpt>
<trkpt lat="31.9487397" lon="34.9453285">
<ele>129.919998</ele>
<time>2015-05-24T03:27:07.000Z</time>
</trkpt>
<trkpt lat="31.9487578" lon="34.9451892">
<ele>129.919998</ele>
<time>2015-05-24T03:27:09.000Z</time>
</trkpt>
<trkpt lat="31.9487790" lon="34.9450525">
<ele>129.919998</ele>
<time>2015-05-24T03:27:11.000Z</time>
</trkpt>
<trkpt lat="31.9488171" lon="34.9449268">
<ele>129.429993</ele>
<time>2015-05-24T03:27:13.000Z</time>
</trkpt>
<trkpt lat="31.9488613" lon="34.9448100">
<ele>128.949997</ele>
<time>2015-05-24T03:27:15.000Z</time>
</trkpt>
<trkpt lat="31.9489198" lon="34.9447079">
<ele>129.429993</ele>
<time>2015-05-24T03:27:17.000Z</time>
</trkpt>
<trkpt lat="31.9489852" lon="34.9446246">
<ele>128.949997</ele>
<time>2015-05-24T03:27:19.000Z</time>
</trkpt>
<trkpt lat="31.9490738" lon="34.9445324">
<ele>128.949997</ele>
<time>2015-05-24T03:27:22.000Z</time>
</trkpt>
<trkpt lat="31.9491717" lon="34.9444691">
<ele>129.429993</ele>
<time>2015-05-24T03:27:26.000Z</time>
</trkpt>
<trkpt lat="31.9492691" lon="34.9444496">
<ele>129.919998</ele>
<time>2015-05-24T03:27:30.000Z</time>
</trkpt>
<trkpt lat="31.9493597" lon="34.9444795">
<ele>129.919998</ele>
<time>2015-05-24T03:27:34.000Z</time>
</trkpt>
<trkpt lat="31.9494592" lon="34.9445255">
<ele>130.880005</ele>
<time>2015-05-24T03:27:39.000Z</time>
</trkpt>
<trkpt lat="31.9495486" lon="34.9445606">
<ele>130.880005</ele>
<time>2015-05-24T03:27:43.000Z</time>
</trkpt>
<trkpt lat="31.9496411" lon="34.9445922">
<ele>131.360001</ele>
<time>2015-05-24T03:27:47.000Z</time>
</trkpt>
<trkpt lat="31.9497369" lon="34.9446097">
<ele>131.360001</ele>
<time>2015-05-24T03:27:51.000Z</time>
</trkpt>
<trkpt lat="31.9498430" lon="34.9446463">
<ele>131.839996</ele>
<time>2015-05-24T03:27:56.000Z</time>
</trkpt>
<trkpt lat="31.9499393" lon="34.9446655">
<ele>131.839996</ele>
<time>2015-05-24T03:28:00.000Z</time>
</trkpt>
<trkpt lat="31.9500318" lon="34.9446887">
<ele>132.319992</ele>
<time>2015-05-24T03:28:04.000Z</time>
</trkpt>
<trkpt lat="31.9501288" lon="34.9447255">
<ele>132.319992</ele>
<time>2015-05-24T03:28:09.000Z</time>
</trkpt>
<trkpt lat="31.9502445" lon="34.9447343">
<ele>132.800003</ele>
<time>2015-05-24T03:28:14.000Z</time>
</trkpt>
<trkpt lat="31.9503546" lon="34.9447328">
<ele>133.279999</ele>
<time>2015-05-24T03:28:19.000Z</time>
</trkpt>
<trkpt lat="31.9504523" lon="34.9447036">
<ele>133.279999</ele>
<time>2015-05-24T03:28:24.000Z</time>
</trkpt>
<trkpt lat="31.9505099" lon="34.9446219">
<ele>133.760010</ele>
<time>2015-05-24T03:28:28.000Z</time>
</trkpt>
<trkpt lat="31.9505227" lon="34.9444809">
<ele>132.800003</ele>
<time>2015-05-24T03:28:32.000Z</time>
</trkpt>
<trkpt lat="31.9505302" lon="34.9443457">
<ele>132.319992</ele>
<time>2015-05-24T03:28:35.000Z</time>
</trkpt>
<trkpt lat="31.9505465" lon="34.9441931">
<ele>132.319992</ele>
<time>2015-05-24T03:28:38.000Z</time>
</trkpt>
<trkpt lat="31.9505699" lon="34.9440403">
<ele>131.839996</ele>
<time>2015-05-24T03:28:41.000Z</time>
</trkpt>
<trkpt lat="31.9505998" lon="34.9438939">
<ele>132.319992</ele>
<time>2015-05-24T03:28:44.000Z</time>
</trkpt>
<trkpt lat="31.9506192" lon="34.9437476">
<ele>131.839996</ele>
<time>2015-05-24T03:28:47.000Z</time>
</trkpt>
<trkpt lat="31.9506668" lon="34.9436330">
<ele>131.839996</ele>
<time>2015-05-24T03:28:50.000Z</time>
</trkpt>
<trkpt lat="31.9507475" lon="34.9435906">
<ele>131.839996</ele>
<time>2015-05-24T03:28:53.000Z</time>
</trkpt>
<trkpt lat="31.9508434" lon="34.9435818">
<ele>131.839996</ele>
<time>2015-05-24T03:28:56.000Z</time>
</trkpt>
<trkpt lat="31.9509536" lon="34.9435181">
<ele>131.360001</ele>
<time>2015-05-24T03:28:59.000Z</time>
</trkpt>
<trkpt lat="31.9510505" lon="34.9434026">
<ele>131.360001</ele>
<time>2015-05-24T03:29:02.000Z</time>
</trkpt>
<trkpt lat="31.9511150" lon="34.9432995">
<ele>130.880005</ele>
<time>2015-05-24T03:29:04.000Z</time>
</trkpt>
<trkpt lat="31.9511773" lon="34.9432078">
<ele>130.400009</ele>
<time>2015-05-24T03:29:06.000Z</time>
</trkpt>
<trkpt lat="31.9512401" lon="34.9431130">
<ele>130.400009</ele>
<time>2015-05-24T03:29:08.000Z</time>
</trkpt>
<trkpt lat="31.9513180" lon="34.9430113">
<ele>129.919998</ele>
<time>2015-05-24T03:29:10.000Z</time>
</trkpt>
<trkpt lat="31.9514186" lon="34.9429005">
<ele>129.429993</ele>
<time>2015-05-24T03:29:13.000Z</time>
</trkpt>
<trkpt lat="31.9514874" lon="34.9427988">
<ele>128.949997</ele>
<time>2015-05-24T03:29:15.000Z</time>
</trkpt>
<trkpt lat="31.9515464" lon="34.9426894">
<ele>128.470001</ele>
<time>2015-05-24T03:29:17.000Z</time>
</trkpt>
<trkpt lat="31.9516129" lon="34.9425862">
<ele>128.470001</ele>
<time>2015-05-24T03:29:19.000Z</time>
</trkpt>
<trkpt lat="31.9516849" lon="34.9424791">
<ele>127.510002</ele>
<time>2015-05-24T03:29:21.000Z</time>
</trkpt>
<trkpt lat="31.9517560" lon="34.9423565">
<ele>127.030006</ele>
<time>2015-05-24T03:29:23.000Z</time>
</trkpt>
<trkpt lat="31.9518338" lon="34.9422323">
<ele>125.589996</ele>
<time>2015-05-24T03:29:25.000Z</time>
</trkpt>
<trkpt lat="31.9518981" lon="34.9421031">
<ele>124.630005</ele>
<time>2015-05-24T03:29:27.000Z</time>
</trkpt>
<trkpt lat="31.9519445" lon="34.9419642">
<ele>123.669998</ele>
<time>2015-05-24T03:29:29.000Z</time>
</trkpt>
<trkpt lat="31.9520090" lon="34.9418141">
<ele>123.669998</ele>
<time>2015-05-24T03:29:31.000Z</time>
</trkpt>
<trkpt lat="31.9520662" lon="34.9416713">
<ele>122.220001</ele>
<time>2015-05-24T03:29:33.000Z</time>
</trkpt>
<trkpt lat="31.9521189" lon="34.9415171">
<ele>122.220001</ele>
<time>2015-05-24T03:29:35.000Z</time>
</trkpt>
<trkpt lat="31.9521723" lon="34.9413555">
<ele>121.260002</ele>
<time>2015-05-24T03:29:37.000Z</time>
</trkpt>
<trkpt lat="31.9522181" lon="34.9411920">
<ele>120.299995</ele>
<time>2015-05-24T03:29:39.000Z</time>
</trkpt>
<trkpt lat="31.9522652" lon="34.9410421">
<ele>119.820000</ele>
<time>2015-05-24T03:29:41.000Z</time>
</trkpt>
<trkpt lat="31.9523007" lon="34.9408954">
<ele>118.860001</ele>
<time>2015-05-24T03:29:43.000Z</time>
</trkpt>
<trkpt lat="31.9523362" lon="34.9407540">
<ele>118.380005</ele>
<time>2015-05-24T03:29:45.000Z</time>
</trkpt>
<trkpt lat="31.9523776" lon="34.9406208">
<ele>117.419998</ele>
<time>2015-05-24T03:29:47.000Z</time>
</trkpt>
<trkpt lat="31.9524016" lon="34.9405026">
<ele>116.459999</ele>
<time>2015-05-24T03:29:49.000Z</time>
</trkpt>
<trkpt lat="31.9523473" lon="34.9403697">
<ele>116.459999</ele>
<time>2015-05-24T03:29:52.000Z</time>
</trkpt>
<trkpt lat="31.9522507" lon="34.9402803">
<ele>116.459999</ele>
<time>2015-05-24T03:29:55.000Z</time>
</trkpt>
<trkpt lat="31.9521550" lon="34.9402024">
<ele>115.980003</ele>
<time>2015-05-24T03:29:58.000Z</time>
</trkpt>
<trkpt lat="31.9520602" lon="34.9401360">
<ele>116.939995</ele>
<time>2015-05-24T03:30:01.000Z</time>
</trkpt>
<trkpt lat="31.9519640" lon="34.9400831">
<ele>117.419998</ele>
<time>2015-05-24T03:30:04.000Z</time>
</trkpt>
<trkpt lat="31.9518698" lon="34.9400282">
<ele>117.900002</ele>
<time>2015-05-24T03:30:07.000Z</time>
</trkpt>
<trkpt lat="31.9517847" lon="34.9399652">
<ele>117.900002</ele>
<time>2015-05-24T03:30:10.000Z</time>
</trkpt>
<trkpt lat="31.9517072" lon="34.9399038">
<ele>118.380005</ele>
<time>2015-05-24T03:30:13.000Z</time>
</trkpt>
<trkpt lat="31.9516084" lon="34.9398843">
<ele>118.380005</ele>
<time>2015-05-24T03:30:16.000Z</time>
</trkpt>
<trkpt lat="31.9514924" lon="34.9398701">
<ele>118.860001</ele>
<time>2015-05-24T03:30:20.000Z</time>
</trkpt>
<trkpt lat="31.9513888" lon="34.9398436">
<ele>119.339996</ele>
<time>2015-05-24T03:30:26.000Z</time>
</trkpt>
<trkpt lat="31.9512768" lon="34.9398098">
<ele>120.299995</ele>
<time>2015-05-24T03:30:31.000Z</time>
</trkpt>
<trkpt lat="31.9511681" lon="34.9397780">
<ele>120.299995</ele>
<time>2015-05-24T03:30:36.000Z</time>
</trkpt>
<trkpt lat="31.9510496" lon="34.9397649">
<ele>120.780006</ele>
<time>2015-05-24T03:30:41.000Z</time>
</trkpt>
<trkpt lat="31.9509496" lon="34.9397409">
<ele>120.780006</ele>
<time>2015-05-24T03:30:45.000Z</time>
</trkpt>
<trkpt lat="31.9508373" lon="34.9397515">
<ele>121.260002</ele>
<time>2015-05-24T03:30:50.000Z</time>
</trkpt>
<trkpt lat="31.9507268" lon="34.9397971">
<ele>121.740005</ele>
<time>2015-05-24T03:30:55.000Z</time>
</trkpt>
<trkpt lat="31.9506402" lon="34.9398612">
<ele>122.220001</ele>
<time>2015-05-24T03:31:00.000Z</time>
</trkpt>
<trkpt lat="31.9505366" lon="34.9399234">
<ele>123.189995</ele>
<time>2015-05-24T03:31:38.000Z</time>
</trkpt>
<trkpt lat="31.9504430" lon="34.9399550">
<ele>123.189995</ele>
<time>2015-05-24T03:31:43.000Z</time>
</trkpt>
<trkpt lat="31.9503575" lon="34.9399551">
<ele>123.669998</ele>
<time>2015-05-24T03:31:47.000Z</time>
</trkpt>
<trkpt lat="31.9502635" lon="34.9399415">
<ele>123.669998</ele>
<time>2015-05-24T03:31:51.000Z</time>
</trkpt>
<trkpt lat="31.9501608" lon="34.9399026">
<ele>123.669998</ele>
<time>2015-05-24T03:31:55.000Z</time>
</trkpt>
<trkpt lat="31.9500609" lon="34.9398353">
<ele>124.150002</ele>
<time>2015-05-24T03:31:59.000Z</time>
</trkpt>
<trkpt lat="31.9499692" lon="34.9397546">
<ele>123.669998</ele>
<time>2015-05-24T03:32:03.000Z</time>
</trkpt>
<trkpt lat="31.9498602" lon="34.9397198">
<ele>124.630005</ele>
<time>2015-05-24T03:32:07.000Z</time>
</trkpt>
<trkpt lat="31.9497537" lon="34.9396984">
<ele>125.110001</ele>
<time>2015-05-24T03:32:11.000Z</time>
</trkpt>
<trkpt lat="31.9496422" lon="34.9396997">
<ele>125.110001</ele>
<time>2015-05-24T03:32:15.000Z</time>
</trkpt>
<trkpt lat="31.9495446" lon="34.9397184">
<ele>126.549995</ele>
<time>2015-05-24T03:32:19.000Z</time>
</trkpt>
<trkpt lat="31.9494432" lon="34.9397618">
<ele>127.030006</ele>
<time>2015-05-24T03:32:24.000Z</time>
</trkpt>
<trkpt lat="31.9493516" lon="34.9398275">
<ele>127.510002</ele>
<time>2015-05-24T03:32:29.000Z</time>
</trkpt>
<trkpt lat="31.9492572" lon="34.9398762">
<ele>128.949997</ele>
<time>2015-05-24T03:32:34.000Z</time>
</trkpt>
<trkpt lat="31.9491649" lon="34.9399226">
<ele>128.949997</ele>
<time>2015-05-24T03:32:39.000Z</time>
</trkpt>
<trkpt lat="31.9490784" lon="34.9399615">
<ele>129.919998</ele>
<time>2015-05-24T03:32:44.000Z</time>
</trkpt>
<trkpt lat="31.9489832" lon="34.9399925">
<ele>129.919998</ele>
<time>2015-05-24T03:32:49.000Z</time>
</trkpt>
<trkpt lat="31.9488909" lon="34.9400033">
<ele>130.400009</ele>
<time>2015-05-24T03:32:54.000Z</time>
</trkpt>
<trkpt lat="31.9487915" lon="34.9399962">
<ele>130.880005</ele>
<time>2015-05-24T03:32:59.000Z</time>
</trkpt>
<trkpt lat="31.9487055" lon="34.9399538">
<ele>130.880005</ele>
<time>2015-05-24T03:33:05.000Z</time>
</trkpt>
<trkpt lat="31.9487160" lon="34.9398294">
<ele>131.360001</ele>
<time>2015-05-24T03:33:10.000Z</time>
</trkpt>
<trkpt lat="31.9487529" lon="34.9396915">
<ele>130.880005</ele>
<time>2015-05-24T03:33:14.000Z</time>
</trkpt>
<trkpt lat="31.9487769" lon="34.9395655">
<ele>130.880005</ele>
<time>2015-05-24T03:33:17.000Z</time>
</trkpt>
<trkpt lat="31.9488050" lon="34.9394549">
<ele>130.880005</ele>
<time>2015-05-24T03:33:20.000Z</time>
</trkpt>
<trkpt lat="31.9488277" lon="34.9393419">
<ele>128.949997</ele>
<time>2015-05-24T03:33:24.000Z</time>
</trkpt>
<trkpt lat="31.9488296" lon="34.9392151">
<ele>130.880005</ele>
<time>2015-05-24T03:33:33.000Z</time>
</trkpt>
<trkpt lat="31.9487256" lon="34.9391562">
<ele>131.360001</ele>
<time>2015-05-24T03:33:38.000Z</time>
</trkpt>
<trkpt lat="31.9486008" lon="34.9391598">
<ele>131.839996</ele>
<time>2015-05-24T03:33:42.000Z</time>
</trkpt>
<trkpt lat="31.9484729" lon="34.9391680">
<ele>133.279999</ele>
<time>2015-05-24T03:33:46.000Z</time>
</trkpt>
<trkpt lat="31.9483757" lon="34.9391821">
<ele>133.279999</ele>
<time>2015-05-24T03:33:49.000Z</time>
</trkpt>
<trkpt lat="31.9482764" lon="34.9392045">
<ele>134.240005</ele>
<time>2015-05-24T03:33:52.000Z</time>
</trkpt>
<trkpt lat="31.9481688" lon="34.9392187">
<ele>134.720001</ele>
<time>2015-05-24T03:33:55.000Z</time>
</trkpt>
<trkpt lat="31.9480621" lon="34.9392343">
<ele>135.199997</ele>
<time>2015-05-24T03:33:58.000Z</time>
</trkpt>
<trkpt lat="31.9479518" lon="34.9392401">
<ele>134.720001</ele>
<time>2015-05-24T03:34:01.000Z</time>
</trkpt>
<trkpt lat="31.9478504" lon="34.9392331">
<ele>134.720001</ele>
<time>2015-05-24T03:34:04.000Z</time>
</trkpt>
<trkpt lat="31.9477446" lon="34.9392340">
<ele>135.199997</ele>
<time>2015-05-24T03:34:07.000Z</time>
</trkpt>
<trkpt lat="31.9476248" lon="34.9392453">
<ele>135.199997</ele>
<time>2015-05-24T03:34:10.000Z</time>
</trkpt>
<trkpt lat="31.9474964" lon="34.9392460">
<ele>134.720001</ele>
<time>2015-05-24T03:34:13.000Z</time>
</trkpt>
<trkpt lat="31.9473737" lon="34.9392440">
<ele>134.720001</ele>
<time>2015-05-24T03:34:16.000Z</time>
</trkpt>
<trkpt lat="31.9472410" lon="34.9392677">
<ele>134.240005</ele>
<time>2015-05-24T03:34:19.000Z</time>
</trkpt>
<trkpt lat="31.9471101" lon="34.9392965">
<ele>134.720001</ele>
<time>2015-05-24T03:34:22.000Z</time>
</trkpt>
<trkpt lat="31.9469841" lon="34.9393210">
<ele>134.720001</ele>
<time>2015-05-24T03:34:25.000Z</time>
</trkpt>
<trkpt lat="31.9468516" lon="34.9393345">
<ele>135.199997</ele>
<time>2015-05-24T03:34:28.000Z</time>
</trkpt>
<trkpt lat="31.9467198" lon="34.9393482">
<ele>135.679993</ele>
<time>2015-05-24T03:34:31.000Z</time>
</trkpt>
<trkpt lat="31.9465895" lon="34.9393492">
<ele>135.679993</ele>
<time>2015-05-24T03:34:34.000Z</time>
</trkpt>
<trkpt lat="31.9464600" lon="34.9393406">
<ele>135.679993</ele>
<time>2015-05-24T03:34:37.000Z</time>
</trkpt>
<trkpt lat="31.9463305" lon="34.9393297">
<ele>136.159988</ele>
<time>2015-05-24T03:34:40.000Z</time>
</trkpt>
<trkpt lat="31.9462018" lon="34.9393212">
<ele>136.159988</ele>
<time>2015-05-24T03:34:43.000Z</time>
</trkpt>
<trkpt lat="31.9460760" lon="34.9393443">
<ele>136.639999</ele>
<time>2015-05-24T03:34:46.000Z</time>
</trkpt>
<trkpt lat="31.9459595" lon="34.9393636">
<ele>136.639999</ele>
<time>2015-05-24T03:34:49.000Z</time>
</trkpt>
<trkpt lat="31.9458377" lon="34.9393774">
<ele>136.639999</ele>
<time>2015-05-24T03:34:52.000Z</time>
</trkpt>
<trkpt lat="31.9456983" lon="34.9393833">
<ele>136.159988</ele>
<time>2015-05-24T03:34:55.000Z</time>
</trkpt>
<trkpt lat="31.9456000" lon="34.9393830">
<ele>136.639999</ele>
<time>2015-05-24T03:34:57.000Z</time>
</trkpt>
<trkpt lat="31.9455057" lon="34.9393886">
<ele>136.159988</ele>
<time>2015-05-24T03:34:59.000Z</time>
</trkpt>
<trkpt lat="31.9454117" lon="34.9393957">
<ele>136.159988</ele>
<time>2015-05-24T03:35:01.000Z</time>
</trkpt>
<trkpt lat="31.9453173" lon="34.9393991">
<ele>136.159988</ele>
<time>2015-05-24T03:35:03.000Z</time>
</trkpt>
<trkpt lat="31.9452226" lon="34.9393995">
<ele>135.199997</ele>
<time>2015-05-24T03:35:05.000Z</time>
</trkpt>
<trkpt lat="31.9451205" lon="34.9394035">
<ele>135.199997</ele>
<time>2015-05-24T03:35:07.000Z</time>
</trkpt>
<trkpt lat="31.9450124" lon="34.9394150">
<ele>134.720001</ele>
<time>2015-05-24T03:35:09.000Z</time>
</trkpt>
<trkpt lat="31.9448998" lon="34.9394244">
<ele>134.240005</ele>
<time>2015-05-24T03:35:11.000Z</time>
</trkpt>
<trkpt lat="31.9447862" lon="34.9394287">
<ele>133.760010</ele>
<time>2015-05-24T03:35:13.000Z</time>
</trkpt>
<trkpt lat="31.9446770" lon="34.9394588">
<ele>133.760010</ele>
<time>2015-05-24T03:35:15.000Z</time>
</trkpt>
<trkpt lat="31.9445891" lon="34.9395041">
<ele>133.760010</ele>
<time>2015-05-24T03:35:17.000Z</time>
</trkpt>
<trkpt lat="31.9444951" lon="34.9395257">
<ele>130.880005</ele>
<time>2015-05-24T03:35:19.000Z</time>
</trkpt>
<trkpt lat="31.9443934" lon="34.9394827">
<ele>130.400009</ele>
<time>2015-05-24T03:35:21.000Z</time>
</trkpt>
<trkpt lat="31.9443069" lon="34.9394048">
<ele>130.400009</ele>
<time>2015-05-24T03:35:23.000Z</time>
</trkpt>
<trkpt lat="31.9442081" lon="34.9393391">
<ele>128.470001</ele>
<time>2015-05-24T03:35:26.000Z</time>
</trkpt>
<trkpt lat="31.9441002" lon="34.9394690">
<ele>127.030006</ele>
<time>2015-05-24T03:38:49.000Z</time>
</trkpt>
<trkpt lat="31.9440037" lon="34.9395721">
<ele>124.150002</ele>
<time>2015-05-24T03:38:52.000Z</time>
</trkpt>
<trkpt lat="31.9439066" lon="34.9396253">
<ele>123.669998</ele>
<time>2015-05-24T03:38:54.000Z</time>
</trkpt>
<trkpt lat="31.9437972" lon="34.9397112">
<ele>122.709999</ele>
<time>2015-05-24T03:38:57.000Z</time>
</trkpt>
<trkpt lat="31.9437278" lon="34.9398061">
<ele>121.740005</ele>
<time>2015-05-24T03:38:59.000Z</time>
</trkpt>
<trkpt lat="31.9436629" lon="34.9399243">
<ele>121.260002</ele>
<time>2015-05-24T03:39:01.000Z</time>
</trkpt>
<trkpt lat="31.9436057" lon="34.9400455">
<ele>120.780006</ele>
<time>2015-05-24T03:39:03.000Z</time>
</trkpt>
<trkpt lat="31.9435554" lon="34.9401724">
<ele>118.380005</ele>
<time>2015-05-24T03:39:05.000Z</time>
</trkpt>
<trkpt lat="31.9435115" lon="34.9403093">
<ele>116.939995</ele>
<time>2015-05-24T03:39:07.000Z</time>
</trkpt>
<trkpt lat="31.9434324" lon="34.9403200">
<ele>115.500000</ele>
<time>2015-05-24T03:40:05.000Z</time>
</trkpt>
<trkpt lat="31.9433227" lon="34.9403282">
<ele>116.459999</ele>
<time>2015-05-24T03:40:13.000Z</time>
</trkpt>
<trkpt lat="31.9432176" lon="34.9403551">
<ele>116.939995</ele>
<time>2015-05-24T03:40:20.000Z</time>
</trkpt>
<trkpt lat="31.9431093" lon="34.9403696">
<ele>117.419998</ele>
<time>2015-05-24T03:40:28.000Z</time>
</trkpt>
<trkpt lat="31.9429848" lon="34.9404018">
<ele>118.380005</ele>
<time>2015-05-24T03:41:16.000Z</time>
</trkpt>
<trkpt lat="31.9428856" lon="34.9404374">
<ele>117.419998</ele>
<time>2015-05-24T03:41:21.000Z</time>
</trkpt>
<trkpt lat="31.9427847" lon="34.9404697">
<ele>117.419998</ele>
<time>2015-05-24T03:41:25.000Z</time>
</trkpt>
<trkpt lat="31.9426798" lon="34.9404969">
<ele>116.939995</ele>
<time>2015-05-24T03:41:28.000Z</time>
</trkpt>
<trkpt lat="31.9425701" lon="34.9405014">
<ele>116.939995</ele>
<time>2015-05-24T03:41:31.000Z</time>
</trkpt>
<trkpt lat="31.9424579" lon="34.9404923">
<ele>117.419998</ele>
<time>2015-05-24T03:41:36.000Z</time>
</trkpt>
<trkpt lat="31.9423404" lon="34.9404917">
<ele>116.939995</ele>
<time>2015-05-24T03:41:45.000Z</time>
</trkpt>
<trkpt lat="31.9422377" lon="34.9405504">
<ele>115.010002</ele>
<time>2015-05-24T03:41:51.000Z</time>
</trkpt>
<trkpt lat="31.9421283" lon="34.9405189">
<ele>114.530006</ele>
<time>2015-05-24T03:41:56.000Z</time>
</trkpt>
<trkpt lat="31.9420102" lon="34.9404721">
<ele>113.089996</ele>
<time>2015-05-24T03:42:01.000Z</time>
</trkpt>
<trkpt lat="31.9419329" lon="34.9405147">
<ele>111.169998</ele>
<time>2015-05-24T03:42:05.000Z</time>
</trkpt>
<trkpt lat="31.9419651" lon="34.9406680">
<ele>109.250000</ele>
<time>2015-05-24T03:42:10.000Z</time>
</trkpt>
<trkpt lat="31.9420071" lon="34.9407805">
<ele>107.809998</ele>
<time>2015-05-24T03:42:13.000Z</time>
</trkpt>
<trkpt lat="31.9420594" lon="34.9409090">
<ele>105.880005</ele>
<time>2015-05-24T03:42:16.000Z</time>
</trkpt>
<trkpt lat="31.9421200" lon="34.9410585">
<ele>104.439995</ele>
<time>2015-05-24T03:42:19.000Z</time>
</trkpt>
<trkpt lat="31.9421625" lon="34.9411578">
<ele>103.000000</ele>
<time>2015-05-24T03:42:21.000Z</time>
</trkpt>
<trkpt lat="31.9422080" lon="34.9412623">
<ele>102.520004</ele>
<time>2015-05-24T03:42:23.000Z</time>
</trkpt>
<trkpt lat="31.9422466" lon="34.9413652">
<ele>102.520004</ele>
<time>2015-05-24T03:42:25.000Z</time>
</trkpt>
<trkpt lat="31.9422968" lon="34.9414849">
<ele>103.000000</ele>
<time>2015-05-24T03:42:28.000Z</time>
</trkpt>
<trkpt lat="31.9423634" lon="34.9415491">
<ele>104.919998</ele>
<time>2015-05-24T03:42:34.000Z</time>
</trkpt>
<trkpt lat="31.9424634" lon="34.9415876">
<ele>105.400002</ele>
<time>2015-05-24T03:42:40.000Z</time>
</trkpt>
<trkpt lat="31.9425540" lon="34.9415911">
<ele>105.880005</ele>
<time>2015-05-24T03:42:45.000Z</time>
</trkpt>
<trkpt lat="31.9426587" lon="34.9416099">
<ele>106.839996</ele>
<time>2015-05-24T03:42:51.000Z</time>
</trkpt>
<trkpt lat="31.9427622" lon="34.9416189">
<ele>107.320000</ele>
<time>2015-05-24T03:42:57.000Z</time>
</trkpt>
<trkpt lat="31.9428707" lon="34.9416416">
<ele>108.290001</ele>
<time>2015-05-24T03:43:03.000Z</time>
</trkpt>
<trkpt lat="31.9429681" lon="34.9416644">
<ele>108.290001</ele>
<time>2015-05-24T03:43:08.000Z</time>
</trkpt>
<trkpt lat="31.9430714" lon="34.9416691">
<ele>109.250000</ele>
<time>2015-05-24T03:43:13.000Z</time>
</trkpt>
<trkpt lat="31.9431772" lon="34.9416819">
<ele>108.770004</ele>
<time>2015-05-24T03:43:18.000Z</time>
</trkpt>
<trkpt lat="31.9432901" lon="34.9416875">
<ele>108.290001</ele>
<time>2015-05-24T03:43:22.000Z</time>
</trkpt>
<trkpt lat="31.9433896" lon="34.9416852">
<ele>108.290001</ele>
<time>2015-05-24T03:43:25.000Z</time>
</trkpt>
<trkpt lat="31.9434793" lon="34.9417150">
<ele>108.290001</ele>
<time>2015-05-24T03:43:30.000Z</time>
</trkpt>
<trkpt lat="31.9435024" lon="34.9418272">
<ele>108.290001</ele>
<time>2015-05-24T03:43:35.000Z</time>
</trkpt>
<trkpt lat="31.9435698" lon="34.9419347">
<ele>108.770004</ele>
<time>2015-05-24T03:43:40.000Z</time>
</trkpt>
<trkpt lat="31.9436437" lon="34.9420320">
<ele>109.250000</ele>
<time>2015-05-24T03:43:45.000Z</time>
</trkpt>
<trkpt lat="31.9437150" lon="34.9421342">
<ele>109.730003</ele>
<time>2015-05-24T03:43:50.000Z</time>
</trkpt>
<trkpt lat="31.9437987" lon="34.9422147">
<ele>110.689995</ele>
<time>2015-05-24T03:43:55.000Z</time>
</trkpt>
<trkpt lat="31.9438673" lon="34.9423127">
<ele>111.650002</ele>
<time>2015-05-24T03:44:00.000Z</time>
</trkpt>
<trkpt lat="31.9439381" lon="34.9423869">
<ele>111.650002</ele>
<time>2015-05-24T03:44:06.000Z</time>
</trkpt>
<trkpt lat="31.9440253" lon="34.9424333">
<ele>113.089996</ele>
<time>2015-05-24T03:44:12.000Z</time>
</trkpt>
<trkpt lat="31.9441188" lon="34.9423853">
<ele>112.610001</ele>
<time>2015-05-24T03:44:17.000Z</time>
</trkpt>
<trkpt lat="31.9442211" lon="34.9423446">
<ele>113.089996</ele>
<time>2015-05-24T03:44:22.000Z</time>
</trkpt>
<trkpt lat="31.9443210" lon="34.9423090">
<ele>113.570000</ele>
<time>2015-05-24T03:44:27.000Z</time>
</trkpt>
<trkpt lat="31.9444242" lon="34.9422629">
<ele>113.570000</ele>
<time>2015-05-24T03:44:32.000Z</time>
</trkpt>
<trkpt lat="31.9445176" lon="34.9422132">
<ele>113.089996</ele>
<time>2015-05-24T03:44:36.000Z</time>
</trkpt>
<trkpt lat="31.9446082" lon="34.9421564">
<ele>113.570000</ele>
<time>2015-05-24T03:44:40.000Z</time>
</trkpt>
<trkpt lat="31.9447075" lon="34.9421151">
<ele>114.049995</ele>
<time>2015-05-24T03:44:45.000Z</time>
</trkpt>
<trkpt lat="31.9448085" lon="34.9420926">
<ele>114.530006</ele>
<time>2015-05-24T03:44:50.000Z</time>
</trkpt>
<trkpt lat="31.9449103" lon="34.9420686">
<ele>115.500000</ele>
<time>2015-05-24T03:44:55.000Z</time>
</trkpt>
<trkpt lat="31.9450099" lon="34.9420438">
<ele>115.500000</ele>
<time>2015-05-24T03:45:00.000Z</time>
</trkpt>
<trkpt lat="31.9451153" lon="34.9420296">
<ele>115.500000</ele>
<time>2015-05-24T03:45:04.000Z</time>
</trkpt>
<trkpt lat="31.9452151" lon="34.9420393">
<ele>115.500000</ele>
<time>2015-05-24T03:45:08.000Z</time>
</trkpt>
<trkpt lat="31.9453311" lon="34.9420731">
<ele>115.980003</ele>
<time>2015-05-24T03:45:12.000Z</time>
</trkpt>
<trkpt lat="31.9454373" lon="34.9421039">
<ele>116.939995</ele>
<time>2015-05-24T03:45:16.000Z</time>
</trkpt>
<trkpt lat="31.9455459" lon="34.9421242">
<ele>116.459999</ele>
<time>2015-05-24T03:45:20.000Z</time>
</trkpt>
<trkpt lat="31.9456630" lon="34.9421492">
<ele>115.980003</ele>
<time>2015-05-24T03:45:24.000Z</time>
</trkpt>
<trkpt lat="31.9457759" lon="34.9421932">
<ele>115.980003</ele>
<time>2015-05-24T03:45:28.000Z</time>
</trkpt>
<trkpt lat="31.9458806" lon="34.9422398">
<ele>116.459999</ele>
<time>2015-05-24T03:45:32.000Z</time>
</trkpt>
<trkpt lat="31.9459748" lon="34.9422914">
<ele>115.980003</ele>
<time>2015-05-24T03:45:36.000Z</time>
</trkpt>
<trkpt lat="31.9460743" lon="34.9423659">
<ele>116.939995</ele>
<time>2015-05-24T03:45:40.000Z</time>
</trkpt>
<trkpt lat="31.9461778" lon="34.9424323">
<ele>116.939995</ele>
<time>2015-05-24T03:45:44.000Z</time>
</trkpt>
<trkpt lat="31.9462824" lon="34.9425056">
<ele>116.939995</ele>
<time>2015-05-24T03:45:48.000Z</time>
</trkpt>
<trkpt lat="31.9463981" lon="34.9425587">
<ele>116.939995</ele>
<time>2015-05-24T03:45:52.000Z</time>
</trkpt>
<trkpt lat="31.9464933" lon="34.9425962">
<ele>116.939995</ele>
<time>2015-05-24T03:45:55.000Z</time>
</trkpt>
<trkpt lat="31.9465946" lon="34.9426216">
<ele>117.419998</ele>
<time>2015-05-24T03:45:58.000Z</time>
</trkpt>
<trkpt lat="31.9466947" lon="34.9426519">
<ele>116.939995</ele>
<time>2015-05-24T03:46:01.000Z</time>
</trkpt>
<trkpt lat="31.9467750" lon="34.9426675">
<ele>116.939995</ele>
<time>2015-05-24T03:46:35.000Z</time>
</trkpt>
<trkpt lat="31.9468860" lon="34.9426855">
<ele>116.939995</ele>
<time>2015-05-24T03:46:39.000Z</time>
</trkpt>
<trkpt lat="31.9469821" lon="34.9427170">
<ele>116.939995</ele>
<time>2015-05-24T03:46:42.000Z</time>
</trkpt>
<trkpt lat="31.9470914" lon="34.9427667">
<ele>117.419998</ele>
<time>2015-05-24T03:46:46.000Z</time>
</trkpt>
<trkpt lat="31.9471980" lon="34.9428260">
<ele>116.939995</ele>
<time>2015-05-24T03:46:49.000Z</time>
</trkpt>
<trkpt lat="31.9472967" lon="34.9428680">
<ele>117.900002</ele>
<time>2015-05-24T03:46:52.000Z</time>
</trkpt>
<trkpt lat="31.9473754" lon="34.9429138">
<ele>118.380005</ele>
<time>2015-05-24T03:46:55.000Z</time>
</trkpt>
<trkpt lat="31.9474579" lon="34.9429576">
<ele>118.860001</ele>
<time>2015-05-24T03:46:58.000Z</time>
</trkpt>
<trkpt lat="31.9475671" lon="34.9430212">
<ele>118.860001</ele>
<time>2015-05-24T03:47:02.000Z</time>
</trkpt>
<trkpt lat="31.9476643" lon="34.9430890">
<ele>118.860001</ele>
<time>2015-05-24T03:47:06.000Z</time>
</trkpt>
<trkpt lat="31.9477569" lon="34.9431775">
<ele>119.339996</ele>
<time>2015-05-24T03:47:10.000Z</time>
</trkpt>
<trkpt lat="31.9478417" lon="34.9432612">
<ele>119.820000</ele>
<time>2015-05-24T03:47:14.000Z</time>
</trkpt>
<trkpt lat="31.9479155" lon="34.9433660">
<ele>120.299995</ele>
<time>2015-05-24T03:47:18.000Z</time>
</trkpt>
<trkpt lat="31.9479840" lon="34.9434782">
<ele>120.780006</ele>
<time>2015-05-24T03:47:22.000Z</time>
</trkpt>
<trkpt lat="31.9480320" lon="34.9435722">
<ele>121.260002</ele>
<time>2015-05-24T03:47:25.000Z</time>
</trkpt>
<trkpt lat="31.9480779" lon="34.9436748">
<ele>121.260002</ele>
<time>2015-05-24T03:47:28.000Z</time>
</trkpt>
<trkpt lat="31.9481239" lon="34.9437776">
<ele>121.260002</ele>
<time>2015-05-24T03:47:31.000Z</time>
</trkpt>
<trkpt lat="31.9481751" lon="34.9438959">
<ele>121.260002</ele>
<time>2015-05-24T03:47:34.000Z</time>
</trkpt>
<trkpt lat="31.9482310" lon="34.9440111">
<ele>121.260002</ele>
<time>2015-05-24T03:47:37.000Z</time>
</trkpt>
<trkpt lat="31.9482575" lon="34.9441255">
<ele>121.740005</ele>
<time>2015-05-24T03:47:40.000Z</time>
</trkpt>
<trkpt lat="31.9482614" lon="34.9442386">
<ele>121.740005</ele>
<time>2015-05-24T03:47:43.000Z</time>
</trkpt>
<trkpt lat="31.9482615" lon="34.9443696">
<ele>122.709999</ele>
<time>2015-05-24T03:47:47.000Z</time>
</trkpt>
<trkpt lat="31.9482566" lon="34.9444975">
<ele>123.189995</ele>
<time>2015-05-24T03:47:51.000Z</time>
</trkpt>
<trkpt lat="31.9482431" lon="34.9446340">
<ele>123.189995</ele>
<time>2015-05-24T03:47:55.000Z</time>
</trkpt>
<trkpt lat="31.9482237" lon="34.9447593">
<ele>124.150002</ele>
<time>2015-05-24T03:47:59.000Z</time>
</trkpt>
<trkpt lat="31.9482051" lon="34.9448855">
<ele>124.630005</ele>
<time>2015-05-24T03:48:03.000Z</time>
</trkpt>
<trkpt lat="31.9481950" lon="34.9450182">
<ele>125.110001</ele>
<time>2015-05-24T03:48:07.000Z</time>
</trkpt>
<trkpt lat="31.9481760" lon="34.9451480">
<ele>125.110001</ele>
<time>2015-05-24T03:48:11.000Z</time>
</trkpt>
<trkpt lat="31.9481397" lon="34.9452829">
<ele>126.549995</ele>
<time>2015-05-24T03:48:15.000Z</time>
</trkpt>
<trkpt lat="31.9481133" lon="34.9454139">
<ele>126.549995</ele>
<time>2015-05-24T03:48:19.000Z</time>
</trkpt>
<trkpt lat="31.9480903" lon="34.9455326">
<ele>127.030006</ele>
<time>2015-05-24T03:48:23.000Z</time>
</trkpt>
<trkpt lat="31.9480616" lon="34.9456445">
<ele>127.030006</ele>
<time>2015-05-24T03:48:27.000Z</time>
</trkpt>
<trkpt lat="31.9480333" lon="34.9457558">
<ele>127.030006</ele>
<time>2015-05-24T03:48:31.000Z</time>
</trkpt>
<trkpt lat="31.9479977" lon="34.9458698">
<ele>127.510002</ele>
<time>2015-05-24T03:48:35.000Z</time>
</trkpt>
<trkpt lat="31.9479634" lon="34.9459983">
<ele>127.510002</ele>
<time>2015-05-24T03:48:39.000Z</time>
</trkpt>
<trkpt lat="31.9479381" lon="34.9461245">
<ele>127.989998</ele>
<time>2015-05-24T03:48:43.000Z</time>
</trkpt>
<trkpt lat="31.9479098" lon="34.9462296">
<ele>128.949997</ele>
<time>2015-05-24T03:48:46.000Z</time>
</trkpt>
<trkpt lat="31.9478814" lon="34.9463437">
<ele>128.949997</ele>
<time>2015-05-24T03:48:49.000Z</time>
</trkpt>
<trkpt lat="31.9478596" lon="34.9464654">
<ele>129.429993</ele>
<time>2015-05-24T03:48:53.000Z</time>
</trkpt>
<trkpt lat="31.9478269" lon="34.9465862">
<ele>129.429993</ele>
<time>2015-05-24T03:48:57.000Z</time>
</trkpt>
<trkpt lat="31.9477626" lon="34.9466990">
<ele>129.919998</ele>
<time>2015-05-24T03:49:01.000Z</time>
</trkpt>
<trkpt lat="31.9477050" lon="34.9467907">
<ele>131.360001</ele>
<time>2015-05-24T03:49:06.000Z</time>
</trkpt>
<trkpt lat="31.9476063" lon="34.9468483">
<ele>131.839996</ele>
<time>2015-05-24T03:49:12.000Z</time>
</trkpt>
<trkpt lat="31.9475277" lon="34.9469074">
<ele>132.319992</ele>
<time>2015-05-24T03:49:16.000Z</time>
</trkpt>
<trkpt lat="31.9474325" lon="34.9469658">
<ele>132.319992</ele>
<time>2015-05-24T03:49:21.000Z</time>
</trkpt>
<trkpt lat="31.9473449" lon="34.9470314">
<ele>133.760010</ele>
<time>2015-05-24T03:49:27.000Z</time>
</trkpt>
<trkpt lat="31.9472655" lon="34.9470972">
<ele>134.720001</ele>
<time>2015-05-24T03:49:32.000Z</time>
</trkpt>
<trkpt lat="31.9471737" lon="34.9471646">
<ele>135.199997</ele>
<time>2015-05-24T03:49:38.000Z</time>
</trkpt>
<trkpt lat="31.9470885" lon="34.9472387">
<ele>135.199997</ele>
<time>2015-05-24T03:49:42.000Z</time>
</trkpt>
<trkpt lat="31.9470026" lon="34.9473142">
<ele>136.159988</ele>
<time>2015-05-24T03:49:47.000Z</time>
</trkpt>
<trkpt lat="31.9469064" lon="34.9473661">
<ele>136.639999</ele>
<time>2015-05-24T03:49:53.000Z</time>
</trkpt>
<trkpt lat="31.9468184" lon="34.9474101">
<ele>137.610001</ele>
<time>2015-05-24T03:49:59.000Z</time>
</trkpt>
<trkpt lat="31.9467101" lon="34.9474456">
<ele>139.050003</ele>
<time>2015-05-24T03:50:06.000Z</time>
</trkpt>
<trkpt lat="31.9466153" lon="34.9474897">
<ele>140.010010</ele>
<time>2015-05-24T03:50:14.000Z</time>
</trkpt>
<trkpt lat="31.9465016" lon="34.9474968">
<ele>140.490005</ele>
<time>2015-05-24T03:50:22.000Z</time>
</trkpt>
<trkpt lat="31.9464045" lon="34.9475192">
<ele>141.449997</ele>
<time>2015-05-24T03:50:28.000Z</time>
</trkpt>
<trkpt lat="31.9462879" lon="34.9475006">
<ele>142.409988</ele>
<time>2015-05-24T03:50:35.000Z</time>
</trkpt>
<trkpt lat="31.9461857" lon="34.9474969">
<ele>142.889999</ele>
<time>2015-05-24T03:50:41.000Z</time>
</trkpt>
<trkpt lat="31.9460969" lon="34.9474773">
<ele>143.369995</ele>
<time>2015-05-24T03:50:47.000Z</time>
</trkpt>
<trkpt lat="31.9460012" lon="34.9474367">
<ele>143.850006</ele>
<time>2015-05-24T03:51:25.000Z</time>
</trkpt>
<trkpt lat="31.9458948" lon="34.9474013">
<ele>144.339996</ele>
<time>2015-05-24T03:51:31.000Z</time>
</trkpt>
<trkpt lat="31.9458037" lon="34.9473773">
<ele>144.339996</ele>
<time>2015-05-24T03:51:36.000Z</time>
</trkpt>
<trkpt lat="31.9457086" lon="34.9473566">
<ele>143.850006</ele>
<time>2015-05-24T03:51:40.000Z</time>
</trkpt>
<trkpt lat="31.9456077" lon="34.9473630">
<ele>144.819992</ele>
<time>2015-05-24T03:51:44.000Z</time>
</trkpt>
<trkpt lat="31.9455062" lon="34.9473632">
<ele>145.300003</ele>
<time>2015-05-24T03:51:48.000Z</time>
</trkpt>
<trkpt lat="31.9453909" lon="34.9473726">
<ele>145.300003</ele>
<time>2015-05-24T03:51:52.000Z</time>
</trkpt>
<trkpt lat="31.9452942" lon="34.9473684">
<ele>145.300003</ele>
<time>2015-05-24T03:51:55.000Z</time>
</trkpt>
<trkpt lat="31.9451903" lon="34.9473453">
<ele>143.850006</ele>
<time>2015-05-24T03:51:58.000Z</time>
</trkpt>
<trkpt lat="31.9450744" lon="34.9473035">
<ele>143.850006</ele>
<time>2015-05-24T03:52:01.000Z</time>
</trkpt>
<trkpt lat="31.9449834" lon="34.9472653">
<ele>143.369995</ele>
<time>2015-05-24T03:52:03.000Z</time>
</trkpt>
<trkpt lat="31.9448779" lon="34.9472262">
<ele>142.889999</ele>
<time>2015-05-24T03:52:05.000Z</time>
</trkpt>
<trkpt lat="31.9447572" lon="34.9471845">
<ele>142.409988</ele>
<time>2015-05-24T03:52:07.000Z</time>
</trkpt>
<trkpt lat="31.9446260" lon="34.9471527">
<ele>141.449997</ele>
<time>2015-05-24T03:52:09.000Z</time>
</trkpt>
<trkpt lat="31.9444872" lon="34.9471245">
<ele>140.010010</ele>
<time>2015-05-24T03:52:11.000Z</time>
</trkpt>
<trkpt lat="31.9443453" lon="34.9471051">
<ele>139.529999</ele>
<time>2015-05-24T03:52:13.000Z</time>
</trkpt>
<trkpt lat="31.9442064" lon="34.9471055">
<ele>139.050003</ele>
<time>2015-05-24T03:52:15.000Z</time>
</trkpt>
<trkpt lat="31.9440664" lon="34.9471279">
<ele>138.569992</ele>
<time>2015-05-24T03:52:17.000Z</time>
</trkpt>
<trkpt lat="31.9439203" lon="34.9471715">
<ele>137.610001</ele>
<time>2015-05-24T03:52:19.000Z</time>
</trkpt>
<trkpt lat="31.9437809" lon="34.9472373">
<ele>137.130005</ele>
<time>2015-05-24T03:52:21.000Z</time>
</trkpt>
<trkpt lat="31.9436582" lon="34.9473453">
<ele>136.159988</ele>
<time>2015-05-24T03:52:23.000Z</time>
</trkpt>
<trkpt lat="31.9435378" lon="34.9474688">
<ele>135.679993</ele>
<time>2015-05-24T03:52:25.000Z</time>
</trkpt>
<trkpt lat="31.9434160" lon="34.9475795">
<ele>133.279999</ele>
<time>2015-05-24T03:52:27.000Z</time>
</trkpt>
<trkpt lat="31.9433192" lon="34.9476479">
<ele>133.760010</ele>
<time>2015-05-24T03:52:28.000Z</time>
</trkpt>
<trkpt lat="31.9432317" lon="34.9476937">
<ele>132.800003</ele>
<time>2015-05-24T03:52:29.000Z</time>
</trkpt>
<trkpt lat="31.9431383" lon="34.9477323">
<ele>131.360001</ele>
<time>2015-05-24T03:52:30.000Z</time>
</trkpt>
<trkpt lat="31.9430412" lon="34.9477678">
<ele>130.880005</ele>
<time>2015-05-24T03:52:31.000Z</time>
</trkpt>
<trkpt lat="31.9429420" lon="34.9478041">
<ele>130.400009</ele>
<time>2015-05-24T03:52:32.000Z</time>
</trkpt>
<trkpt lat="31.9428413" lon="34.9478446">
<ele>128.949997</ele>
<time>2015-05-24T03:52:33.000Z</time>
</trkpt>
<trkpt lat="31.9427383" lon="34.9478918">
<ele>128.470001</ele>
<time>2015-05-24T03:52:34.000Z</time>
</trkpt>
<trkpt lat="31.9426418" lon="34.9479415">
<ele>127.510002</ele>
<time>2015-05-24T03:52:35.000Z</time>
</trkpt>
<trkpt lat="31.9425518" lon="34.9479986">
<ele>126.070000</ele>
<time>2015-05-24T03:52:36.000Z</time>
</trkpt>
<trkpt lat="31.9424624" lon="34.9480751">
<ele>125.110001</ele>
<time>2015-05-24T03:52:37.000Z</time>
</trkpt>
<trkpt lat="31.9423807" lon="34.9481629">
<ele>124.150002</ele>
<time>2015-05-24T03:52:38.000Z</time>
</trkpt>
<trkpt lat="31.9423043" lon="34.9482537">
<ele>123.189995</ele>
<time>2015-05-24T03:52:39.000Z</time>
</trkpt>
<trkpt lat="31.9422280" lon="34.9483478">
<ele>122.220001</ele>
<time>2015-05-24T03:52:40.000Z</time>
</trkpt>
<trkpt lat="31.9421491" lon="34.9484381">
<ele>120.299995</ele>
<time>2015-05-24T03:52:41.000Z</time>
</trkpt>
<trkpt lat="31.9420765" lon="34.9485202">
<ele>119.339996</ele>
<time>2015-05-24T03:52:42.000Z</time>
</trkpt>
<trkpt lat="31.9420086" lon="34.9485959">
<ele>117.900002</ele>
<time>2015-05-24T03:52:43.000Z</time>
</trkpt>
<trkpt lat="31.9418839" lon="34.9487358">
<ele>115.500000</ele>
<time>2015-05-24T03:52:45.000Z</time>
</trkpt>
<trkpt lat="31.9417715" lon="34.9488751">
<ele>112.610001</ele>
<time>2015-05-24T03:52:47.000Z</time>
</trkpt>
<trkpt lat="31.9416743" lon="34.9490169">
<ele>109.730003</ele>
<time>2015-05-24T03:52:49.000Z</time>
</trkpt>
<trkpt lat="31.9415633" lon="34.9491530">
<ele>109.250000</ele>
<time>2015-05-24T03:52:51.000Z</time>
</trkpt>
<trkpt lat="31.9414446" lon="34.9492292">
<ele>109.250000</ele>
<time>2015-05-24T03:52:53.000Z</time>
</trkpt>
<trkpt lat="31.9413337" lon="34.9492202">
<ele>108.290001</ele>
<time>2015-05-24T03:52:55.000Z</time>
</trkpt>
<trkpt lat="31.9412469" lon="34.9491769">
<ele>109.250000</ele>
<time>2015-05-24T03:52:57.000Z</time>
</trkpt>
<trkpt lat="31.9411310" lon="34.9491320">
<ele>110.689995</ele>
<time>2015-05-24T03:53:00.000Z</time>
</trkpt>
<trkpt lat="31.9410225" lon="34.9490971">
<ele>112.610001</ele>
<time>2015-05-24T03:53:03.000Z</time>
</trkpt>
<trkpt lat="31.9409208" lon="34.9490569">
<ele>113.570000</ele>
<time>2015-05-24T03:53:06.000Z</time>
</trkpt>
<trkpt lat="31.9408215" lon="34.9490295">
<ele>114.530006</ele>
<time>2015-05-24T03:53:09.000Z</time>
</trkpt>
<trkpt lat="31.9407075" lon="34.9490107">
<ele>115.980003</ele>
<time>2015-05-24T03:53:13.000Z</time>
</trkpt>
<trkpt lat="31.9405965" lon="34.9489918">
<ele>116.939995</ele>
<time>2015-05-24T03:53:19.000Z</time>
</trkpt>
<trkpt lat="31.9404964" lon="34.9489708">
<ele>117.900002</ele>
<time>2015-05-24T03:53:23.000Z</time>
</trkpt>
<trkpt lat="31.9403829" lon="34.9490147">
<ele>118.860001</ele>
<time>2015-05-24T03:53:28.000Z</time>
</trkpt>
<trkpt lat="31.9402926" lon="34.9490927">
<ele>118.860001</ele>
<time>2015-05-24T03:53:33.000Z</time>
</trkpt>
<trkpt lat="31.9402477" lon="34.9491903">
<ele>119.339996</ele>
<time>2015-05-24T03:53:37.000Z</time>
</trkpt>
<trkpt lat="31.9402241" lon="34.9493182">
<ele>119.339996</ele>
<time>2015-05-24T03:53:41.000Z</time>
</trkpt>
<trkpt lat="31.9402193" lon="34.9494587">
<ele>119.820000</ele>
<time>2015-05-24T03:53:45.000Z</time>
</trkpt>
<trkpt lat="31.9402141" lon="34.9495886">
<ele>119.339996</ele>
<time>2015-05-24T03:53:49.000Z</time>
</trkpt>
<trkpt lat="31.9402072" lon="34.9497110">
<ele>119.820000</ele>
<time>2015-05-24T03:53:53.000Z</time>
</trkpt>
<trkpt lat="31.9402204" lon="34.9498322">
<ele>120.780006</ele>
<time>2015-05-24T03:53:57.000Z</time>
</trkpt>
<trkpt lat="31.9402363" lon="34.9499445">
<ele>120.299995</ele>
<time>2015-05-24T03:54:01.000Z</time>
</trkpt>
<trkpt lat="31.9402598" lon="34.9500647">
<ele>121.260002</ele>
<time>2015-05-24T03:54:05.000Z</time>
</trkpt>
<trkpt lat="31.9402910" lon="34.9501839">
<ele>121.260002</ele>
<time>2015-05-24T03:54:09.000Z</time>
</trkpt>
<trkpt lat="31.9403151" lon="34.9503002">
<ele>121.260002</ele>
<time>2015-05-24T03:54:13.000Z</time>
</trkpt>
<trkpt lat="31.9403492" lon="34.9504278">
<ele>121.740005</ele>
<time>2015-05-24T03:54:17.000Z</time>
</trkpt>
<trkpt lat="31.9403784" lon="34.9505595">
<ele>121.260002</ele>
<time>2015-05-24T03:54:21.000Z</time>
</trkpt>
<trkpt lat="31.9403953" lon="34.9506858">
<ele>122.709999</ele>
<time>2015-05-24T03:54:25.000Z</time>
</trkpt>
<trkpt lat="31.9404102" lon="34.9508119">
<ele>122.220001</ele>
<time>2015-05-24T03:54:29.000Z</time>
</trkpt>
<trkpt lat="31.9404237" lon="34.9509489">
<ele>122.709999</ele>
<time>2015-05-24T03:54:33.000Z</time>
</trkpt>
<trkpt lat="31.9404318" lon="34.9510907">
<ele>122.709999</ele>
<time>2015-05-24T03:54:37.000Z</time>
</trkpt>
<trkpt lat="31.9404393" lon="34.9512048">
<ele>122.220001</ele>
<time>2015-05-24T03:54:40.000Z</time>
</trkpt>
<trkpt lat="31.9404614" lon="34.9513063">
<ele>123.189995</ele>
<time>2015-05-24T03:54:43.000Z</time>
</trkpt>
<trkpt lat="31.9404823" lon="34.9514087">
<ele>124.630005</ele>
<time>2015-05-24T03:54:50.000Z</time>
</trkpt>
<trkpt lat="31.9405077" lon="34.9515279">
<ele>126.070000</ele>
<time>2015-05-24T03:54:59.000Z</time>
</trkpt>
<trkpt lat="31.9405681" lon="34.9516576">
<ele>127.510002</ele>
<time>2015-05-24T03:55:08.000Z</time>
</trkpt>
<trkpt lat="31.9406116" lon="34.9517928">
<ele>128.470001</ele>
<time>2015-05-24T03:55:17.000Z</time>
</trkpt>
<trkpt lat="31.9406759" lon="34.9518969">
<ele>129.919998</ele>
<time>2015-05-24T03:55:25.000Z</time>
</trkpt>
<trkpt lat="31.9407450" lon="34.9519945">
<ele>130.880005</ele>
<time>2015-05-24T03:55:33.000Z</time>
</trkpt>
<trkpt lat="31.9408355" lon="34.9521175">
<ele>132.319992</ele>
<time>2015-05-24T03:56:23.000Z</time>
</trkpt>
<trkpt lat="31.9408926" lon="34.9522098">
<ele>132.319992</ele>
<time>2015-05-24T03:56:30.000Z</time>
</trkpt>
<trkpt lat="31.9409599" lon="34.9523079">
<ele>133.760010</ele>
<time>2015-05-24T03:56:38.000Z</time>
</trkpt>
<trkpt lat="31.9410110" lon="34.9524171">
<ele>134.720001</ele>
<time>2015-05-24T03:56:46.000Z</time>
</trkpt>
<trkpt lat="31.9410597" lon="34.9525199">
<ele>135.679993</ele>
<time>2015-05-24T03:56:53.000Z</time>
</trkpt>
<trkpt lat="31.9410995" lon="34.9526195">
<ele>136.639999</ele>
<time>2015-05-24T03:56:59.000Z</time>
</trkpt>
<trkpt lat="31.9411197" lon="34.9527342">
<ele>136.639999</ele>
<time>2015-05-24T03:57:04.000Z</time>
</trkpt>
<trkpt lat="31.9411725" lon="34.9528302">
<ele>137.130005</ele>
<time>2015-05-24T03:57:09.000Z</time>
</trkpt>
<trkpt lat="31.9412149" lon="34.9529256">
<ele>137.130005</ele>
<time>2015-05-24T03:57:14.000Z</time>
</trkpt>
<trkpt lat="31.9412627" lon="34.9530262">
<ele>138.569992</ele>
<time>2015-05-24T03:57:19.000Z</time>
</trkpt>
<trkpt lat="31.9413001" lon="34.9531439">
<ele>139.050003</ele>
<time>2015-05-24T03:57:24.000Z</time>
</trkpt>
<trkpt lat="31.9412896" lon="34.9532688">
<ele>138.569992</ele>
<time>2015-05-24T03:57:29.000Z</time>
</trkpt>
<trkpt lat="31.9412489" lon="34.9533898">
<ele>139.529999</ele>
<time>2015-05-24T03:57:34.000Z</time>
</trkpt>
<trkpt lat="31.9412065" lon="34.9535041">
<ele>140.010010</ele>
<time>2015-05-24T03:57:39.000Z</time>
</trkpt>
<trkpt lat="31.9411778" lon="34.9536184">
<ele>140.010010</ele>
<time>2015-05-24T03:57:44.000Z</time>
</trkpt>
<trkpt lat="31.9411475" lon="34.9537231">
<ele>140.970001</ele>
<time>2015-05-24T03:57:49.000Z</time>
</trkpt>
<trkpt lat="31.9411280" lon="34.9538382">
<ele>141.449997</ele>
<time>2015-05-24T03:57:54.000Z</time>
</trkpt>
<trkpt lat="31.9411024" lon="34.9539495">
<ele>141.929993</ele>
<time>2015-05-24T03:57:59.000Z</time>
</trkpt>
<trkpt lat="31.9410792" lon="34.9540681">
<ele>141.929993</ele>
<time>2015-05-24T03:58:04.000Z</time>
</trkpt>
<trkpt lat="31.9410491" lon="34.9541861">
<ele>142.889999</ele>
<time>2015-05-24T03:58:09.000Z</time>
</trkpt>
<trkpt lat="31.9410275" lon="34.9542929">
<ele>142.409988</ele>
<time>2015-05-24T03:58:13.000Z</time>
</trkpt>
<trkpt lat="31.9410064" lon="34.9544132">
<ele>142.889999</ele>
<time>2015-05-24T03:58:17.000Z</time>
</trkpt>
<trkpt lat="31.9409754" lon="34.9545501">
<ele>142.889999</ele>
<time>2015-05-24T03:58:21.000Z</time>
</trkpt>
<trkpt lat="31.9409542" lon="34.9546831">
<ele>143.369995</ele>
<time>2015-05-24T03:58:25.000Z</time>
</trkpt>
<trkpt lat="31.9409483" lon="34.9547976">
<ele>143.369995</ele>
<time>2015-05-24T03:58:28.000Z</time>
</trkpt>
<trkpt lat="31.9409414" lon="34.9549288">
<ele>142.889999</ele>
<time>2015-05-24T03:58:31.000Z</time>
</trkpt>
<trkpt lat="31.9409568" lon="34.9550478">
<ele>143.369995</ele>
<time>2015-05-24T03:58:34.000Z</time>
</trkpt>
<trkpt lat="31.9409781" lon="34.9551514">
<ele>143.850006</ele>
<time>2015-05-24T03:58:38.000Z</time>
</trkpt>
<trkpt lat="31.9409990" lon="34.9552650">
<ele>144.339996</ele>
<time>2015-05-24T03:58:42.000Z</time>
</trkpt>
<trkpt lat="31.9410121" lon="34.9553898">
<ele>144.819992</ele>
<time>2015-05-24T03:58:46.000Z</time>
</trkpt>
<trkpt lat="31.9410174" lon="34.9555206">
<ele>144.819992</ele>
<time>2015-05-24T03:58:50.000Z</time>
</trkpt>
<trkpt lat="31.9410136" lon="34.9556545">
<ele>144.819992</ele>
<time>2015-05-24T03:58:54.000Z</time>
</trkpt>
<trkpt lat="31.9410197" lon="34.9557662">
<ele>144.819992</ele>
<time>2015-05-24T03:58:57.000Z</time>
</trkpt>
<trkpt lat="31.9410234" lon="34.9559083">
<ele>145.300003</ele>
<time>2015-05-24T03:59:01.000Z</time>
</trkpt>
<trkpt lat="31.9410303" lon="34.9560289">
<ele>145.300003</ele>
<time>2015-05-24T03:59:04.000Z</time>
</trkpt>
<trkpt lat="31.9410497" lon="34.9561577">
<ele>145.300003</ele>
<time>2015-05-24T03:59:07.000Z</time>
</trkpt>
<trkpt lat="31.9410775" lon="34.9563089">
<ele>144.819992</ele>
<time>2015-05-24T03:59:10.000Z</time>
</trkpt>
<trkpt lat="31.9411029" lon="34.9564537">
<ele>144.819992</ele>
<time>2015-05-24T03:59:13.000Z</time>
</trkpt>
<trkpt lat="31.9411359" lon="34.9565855">
<ele>145.779999</ele>
<time>2015-05-24T03:59:16.000Z</time>
</trkpt>
<trkpt lat="31.9411582" lon="34.9567140">
<ele>146.260010</ele>
<time>2015-05-24T03:59:19.000Z</time>
</trkpt>
<trkpt lat="31.9411715" lon="34.9568356">
<ele>147.220001</ele>
<time>2015-05-24T03:59:25.000Z</time>
</trkpt>
<trkpt lat="31.9411423" lon="34.9569552">
<ele>148.659988</ele>
<time>2015-05-24T03:59:32.000Z</time>
</trkpt>
<trkpt lat="31.9410808" lon="34.9570534">
<ele>149.619995</ele>
<time>2015-05-24T03:59:38.000Z</time>
</trkpt>
<trkpt lat="31.9409980" lon="34.9571172">
<ele>150.100006</ele>
<time>2015-05-24T03:59:44.000Z</time>
</trkpt>
<trkpt lat="31.9408967" lon="34.9571629">
<ele>151.059998</ele>
<time>2015-05-24T03:59:50.000Z</time>
</trkpt>
<trkpt lat="31.9408117" lon="34.9571914">
<ele>152.029999</ele>
<time>2015-05-24T03:59:55.000Z</time>
</trkpt>
<trkpt lat="31.9407190" lon="34.9572222">
<ele>151.539993</ele>
<time>2015-05-24T03:59:59.000Z</time>
</trkpt>
<trkpt lat="31.9406206" lon="34.9572505">
<ele>151.059998</ele>
<time>2015-05-24T04:00:02.000Z</time>
</trkpt>
<trkpt lat="31.9405337" lon="34.9572830">
<ele>152.029999</ele>
<time>2015-05-24T04:00:05.000Z</time>
</trkpt>
<trkpt lat="31.9404320" lon="34.9573356">
<ele>152.029999</ele>
<time>2015-05-24T04:00:09.000Z</time>
</trkpt>
<trkpt lat="31.9403095" lon="34.9573839">
<ele>152.029999</ele>
<time>2015-05-24T04:00:13.000Z</time>
</trkpt>
<trkpt lat="31.9402052" lon="34.9574137">
<ele>152.510010</ele>
<time>2015-05-24T04:00:16.000Z</time>
</trkpt>
<trkpt lat="31.9401180" lon="34.9574893">
<ele>152.990005</ele>
<time>2015-05-24T04:00:19.000Z</time>
</trkpt>
<trkpt lat="31.9400253" lon="34.9575607">
<ele>152.990005</ele>
<time>2015-05-24T04:00:22.000Z</time>
</trkpt>
<trkpt lat="31.9399507" lon="34.9576375">
<ele>153.470001</ele>
<time>2015-05-24T04:00:25.000Z</time>
</trkpt>
<trkpt lat="31.9398991" lon="34.9577254">
<ele>153.949997</ele>
<time>2015-05-24T04:00:29.000Z</time>
</trkpt>
<trkpt lat="31.9398770" lon="34.9578580">
<ele>155.389999</ele>
<time>2015-05-24T04:00:35.000Z</time>
</trkpt>
<trkpt lat="31.9398900" lon="34.9579897">
<ele>156.349991</ele>
<time>2015-05-24T04:00:41.000Z</time>
</trkpt>
<trkpt lat="31.9399021" lon="34.9581006">
<ele>157.310013</ele>
<time>2015-05-24T04:00:47.000Z</time>
</trkpt>
<trkpt lat="31.9399166" lon="34.9582283">
<ele>158.270004</ele>
<time>2015-05-24T04:00:54.000Z</time>
</trkpt>
<trkpt lat="31.9399304" lon="34.9583355">
<ele>159.239990</ele>
<time>2015-05-24T04:01:00.000Z</time>
</trkpt>
<trkpt lat="31.9399413" lon="34.9584560">
<ele>160.679993</ele>
<time>2015-05-24T04:01:07.000Z</time>
</trkpt>
<trkpt lat="31.9399627" lon="34.9585754">
<ele>161.639999</ele>
<time>2015-05-24T04:01:14.000Z</time>
</trkpt>
<trkpt lat="31.9399698" lon="34.9586890">
<ele>162.119995</ele>
<time>2015-05-24T04:01:19.000Z</time>
</trkpt>
<trkpt lat="31.9400107" lon="34.9588079">
<ele>162.599991</ele>
<time>2015-05-24T04:01:26.000Z</time>
</trkpt>
<trkpt lat="31.9400580" lon="34.9589257">
<ele>163.560013</ele>
<time>2015-05-24T04:01:32.000Z</time>
</trkpt>
<trkpt lat="31.9401190" lon="34.9590395">
<ele>163.560013</ele>
<time>2015-05-24T04:01:38.000Z</time>
</trkpt>
<trkpt lat="31.9401568" lon="34.9591466">
<ele>165.000000</ele>
<time>2015-05-24T04:01:44.000Z</time>
</trkpt>
<trkpt lat="31.9401935" lon="34.9592458">
<ele>165.000000</ele>
<time>2015-05-24T04:01:49.000Z</time>
</trkpt>
<trkpt lat="31.9402445" lon="34.9593546">
<ele>165.479996</ele>
<time>2015-05-24T04:01:54.000Z</time>
</trkpt>
<trkpt lat="31.9402950" lon="34.9594768">
<ele>165.959991</ele>
<time>2015-05-24T04:01:59.000Z</time>
</trkpt>
<trkpt lat="31.9403516" lon="34.9595825">
<ele>165.959991</ele>
<time>2015-05-24T04:02:04.000Z</time>
</trkpt>
<trkpt lat="31.9404137" lon="34.9596849">
<ele>166.450012</ele>
<time>2015-05-24T04:02:08.000Z</time>
</trkpt>
<trkpt lat="31.9404858" lon="34.9598051">
<ele>166.450012</ele>
<time>2015-05-24T04:02:12.000Z</time>
</trkpt>
<trkpt lat="31.9405462" lon="34.9598882">
<ele>165.479996</ele>
<time>2015-05-24T04:02:15.000Z</time>
</trkpt>
<trkpt lat="31.9406215" lon="34.9599741">
<ele>165.479996</ele>
<time>2015-05-24T04:02:18.000Z</time>
</trkpt>
<trkpt lat="31.9406955" lon="34.9600803">
<ele>165.000000</ele>
<time>2015-05-24T04:02:21.000Z</time>
</trkpt>
<trkpt lat="31.9407489" lon="34.9601643">
<ele>164.520004</ele>
<time>2015-05-24T04:02:23.000Z</time>
</trkpt>
<trkpt lat="31.9408042" lon="34.9602658">
<ele>163.560013</ele>
<time>2015-05-24T04:02:25.000Z</time>
</trkpt>
<trkpt lat="31.9408447" lon="34.9603757">
<ele>163.560013</ele>
<time>2015-05-24T04:02:27.000Z</time>
</trkpt>
<trkpt lat="31.9408706" lon="34.9604979">
<ele>162.599991</ele>
<time>2015-05-24T04:02:29.000Z</time>
</trkpt>
<trkpt lat="31.9408856" lon="34.9606305">
<ele>162.599991</ele>
<time>2015-05-24T04:02:31.000Z</time>
</trkpt>
<trkpt lat="31.9408945" lon="34.9607716">
<ele>161.639999</ele>
<time>2015-05-24T04:02:33.000Z</time>
</trkpt>
<trkpt lat="31.9408973" lon="34.9608969">
<ele>161.160004</ele>
<time>2015-05-24T04:02:35.000Z</time>
</trkpt>
<trkpt lat="31.9409042" lon="34.9610212">
<ele>160.200012</ele>
<time>2015-05-24T04:02:38.000Z</time>
</trkpt>
<trkpt lat="31.9408688" lon="34.9611294">
<ele>159.720001</ele>
<time>2015-05-24T04:02:43.000Z</time>
</trkpt>
<trkpt lat="31.9407524" lon="34.9610936">
<ele>158.750000</ele>
<time>2015-05-24T04:03:48.000Z</time>
</trkpt>
<trkpt lat="31.9406263" lon="34.9610597">
<ele>158.750000</ele>
<time>2015-05-24T04:03:51.000Z</time>
</trkpt>
<trkpt lat="31.9404928" lon="34.9610170">
<ele>157.789993</ele>
<time>2015-05-24T04:03:54.000Z</time>
</trkpt>
<trkpt lat="31.9403937" lon="34.9610126">
<ele>156.830002</ele>
<time>2015-05-24T04:03:56.000Z</time>
</trkpt>
<trkpt lat="31.9402932" lon="34.9610368">
<ele>155.869995</ele>
<time>2015-05-24T04:03:58.000Z</time>
</trkpt>
<trkpt lat="31.9401910" lon="34.9610895">
<ele>155.869995</ele>
<time>2015-05-24T04:04:00.000Z</time>
</trkpt>
<trkpt lat="31.9400898" lon="34.9611451">
<ele>155.389999</ele>
<time>2015-05-24T04:04:02.000Z</time>
</trkpt>
<trkpt lat="31.9399909" lon="34.9611906">
<ele>155.389999</ele>
<time>2015-05-24T04:04:04.000Z</time>
</trkpt>
<trkpt lat="31.9399019" lon="34.9612559">
<ele>154.909988</ele>
<time>2015-05-24T04:04:06.000Z</time>
</trkpt>
<trkpt lat="31.9398267" lon="34.9613447">
<ele>154.909988</ele>
<time>2015-05-24T04:04:08.000Z</time>
</trkpt>
<trkpt lat="31.9397566" lon="34.9614278">
<ele>154.909988</ele>
<time>2015-05-24T04:04:10.000Z</time>
</trkpt>
<trkpt lat="31.9396945" lon="34.9615075">
<ele>154.429993</ele>
<time>2015-05-24T04:04:12.000Z</time>
</trkpt>
<trkpt lat="31.9396369" lon="34.9615956">
<ele>154.429993</ele>
<time>2015-05-24T04:04:14.000Z</time>
</trkpt>
<trkpt lat="31.9395781" lon="34.9616894">
<ele>154.909988</ele>
<time>2015-05-24T04:04:16.000Z</time>
</trkpt>
<trkpt lat="31.9395133" lon="34.9617728">
<ele>154.909988</ele>
<time>2015-05-24T04:04:18.000Z</time>
</trkpt>
<trkpt lat="31.9394186" lon="34.9618977">
<ele>154.909988</ele>
<time>2015-05-24T04:04:21.000Z</time>
</trkpt>
<trkpt lat="31.9393622" lon="34.9619914">
<ele>155.389999</ele>
<time>2015-05-24T04:04:23.000Z</time>
</trkpt>
<trkpt lat="31.9392958" lon="34.9620761">
<ele>154.909988</ele>
<time>2015-05-24T04:04:25.000Z</time>
</trkpt>
<trkpt lat="31.9392260" lon="34.9621500">
<ele>154.909988</ele>
<time>2015-05-24T04:04:27.000Z</time>
</trkpt>
<trkpt lat="31.9391556" lon="34.9622276">
<ele>154.909988</ele>
<time>2015-05-24T04:04:29.000Z</time>
</trkpt>
<trkpt lat="31.9390829" lon="34.9623047">
<ele>155.389999</ele>
<time>2015-05-24T04:04:31.000Z</time>
</trkpt>
<trkpt lat="31.9390182" lon="34.9623914">
<ele>154.909988</ele>
<time>2015-05-24T04:04:33.000Z</time>
</trkpt>
<trkpt lat="31.9389633" lon="34.9624855">
<ele>155.389999</ele>
<time>2015-05-24T04:04:35.000Z</time>
</trkpt>
<trkpt lat="31.9389449" lon="34.9626440">
<ele>154.429993</ele>
<time>2015-05-24T04:04:38.000Z</time>
</trkpt>
<trkpt lat="31.9389402" lon="34.9627870">
<ele>155.869995</ele>
<time>2015-05-24T04:04:41.000Z</time>
</trkpt>
<trkpt lat="31.9389398" lon="34.9628981">
<ele>156.830002</ele>
<time>2015-05-24T04:04:44.000Z</time>
</trkpt>
<trkpt lat="31.9389191" lon="34.9630308">
<ele>156.349991</ele>
<time>2015-05-24T04:04:47.000Z</time>
</trkpt>
<trkpt lat="31.9388800" lon="34.9631813">
<ele>156.349991</ele>
<time>2015-05-24T04:04:50.000Z</time>
</trkpt>
<trkpt lat="31.9388575" lon="34.9632911">
<ele>155.869995</ele>
<time>2015-05-24T04:04:52.000Z</time>
</trkpt>
<trkpt lat="31.9388371" lon="34.9634032">
<ele>155.389999</ele>
<time>2015-05-24T04:04:54.000Z</time>
</trkpt>
<trkpt lat="31.9388241" lon="34.9635158">
<ele>155.389999</ele>
<time>2015-05-24T04:04:56.000Z</time>
</trkpt>
<trkpt lat="31.9388148" lon="34.9636308">
<ele>154.909988</ele>
<time>2015-05-24T04:04:58.000Z</time>
</trkpt>
<trkpt lat="31.9387975" lon="34.9637479">
<ele>153.949997</ele>
<time>2015-05-24T04:05:00.000Z</time>
</trkpt>
<trkpt lat="31.9387578" lon="34.9638608">
<ele>153.949997</ele>
<time>2015-05-24T04:05:02.000Z</time>
</trkpt>
<trkpt lat="31.9386942" lon="34.9639575">
<ele>153.470001</ele>
<time>2015-05-24T04:05:04.000Z</time>
</trkpt>
<trkpt lat="31.9386124" lon="34.9640280">
<ele>152.510010</ele>
<time>2015-05-24T04:05:06.000Z</time>
</trkpt>
<trkpt lat="31.9385053" lon="34.9640366">
<ele>152.029999</ele>
<time>2015-05-24T04:05:08.000Z</time>
</trkpt>
<trkpt lat="31.9384049" lon="34.9639842">
<ele>152.029999</ele>
<time>2015-05-24T04:05:10.000Z</time>
</trkpt>
<trkpt lat="31.9383040" lon="34.9639119">
<ele>151.539993</ele>
<time>2015-05-24T04:05:12.000Z</time>
</trkpt>
<trkpt lat="31.9382008" lon="34.9638439">
<ele>150.580002</ele>
<time>2015-05-24T04:05:14.000Z</time>
</trkpt>
<trkpt lat="31.9380941" lon="34.9637755">
<ele>150.100006</ele>
<time>2015-05-24T04:05:16.000Z</time>
</trkpt>
<trkpt lat="31.9379985" lon="34.9636988">
<ele>149.619995</ele>
<time>2015-05-24T04:05:18.000Z</time>
</trkpt>
<trkpt lat="31.9379103" lon="34.9636260">
<ele>148.659988</ele>
<time>2015-05-24T04:05:20.000Z</time>
</trkpt>
<trkpt lat="31.9378229" lon="34.9635876">
<ele>148.659988</ele>
<time>2015-05-24T04:05:22.000Z</time>
</trkpt>
<trkpt lat="31.9377328" lon="34.9636704">
<ele>146.740005</ele>
<time>2015-05-24T04:05:25.000Z</time>
</trkpt>
<trkpt lat="31.9377356" lon="34.9638223">
<ele>145.779999</ele>
<time>2015-05-24T04:05:27.000Z</time>
</trkpt>
<trkpt lat="31.9377708" lon="34.9639549">
<ele>144.339996</ele>
<time>2015-05-24T04:05:29.000Z</time>
</trkpt>
<trkpt lat="31.9377970" lon="34.9641122">
<ele>143.850006</ele>
<time>2015-05-24T04:05:32.000Z</time>
</trkpt>
<trkpt lat="31.9377880" lon="34.9642449">
<ele>141.929993</ele>
<time>2015-05-24T04:05:34.000Z</time>
</trkpt>
<trkpt lat="31.9378060" lon="34.9643907">
<ele>141.449997</ele>
<time>2015-05-24T04:05:36.000Z</time>
</trkpt>
<trkpt lat="31.9378419" lon="34.9645357">
<ele>140.970001</ele>
<time>2015-05-24T04:05:38.000Z</time>
</trkpt>
<trkpt lat="31.9378889" lon="34.9646721">
<ele>140.490005</ele>
<time>2015-05-24T04:05:40.000Z</time>
</trkpt>
<trkpt lat="31.9379443" lon="34.9647941">
<ele>140.970001</ele>
<time>2015-05-24T04:05:42.000Z</time>
</trkpt>
<trkpt lat="31.9380118" lon="34.9649067">
<ele>141.449997</ele>
<time>2015-05-24T04:05:44.000Z</time>
</trkpt>
<trkpt lat="31.9380815" lon="34.9649863">
<ele>141.929993</ele>
<time>2015-05-24T04:05:46.000Z</time>
</trkpt>
<trkpt lat="31.9381901" lon="34.9650703">
<ele>142.409988</ele>
<time>2015-05-24T04:05:49.000Z</time>
</trkpt>
<trkpt lat="31.9382901" lon="34.9651429">
<ele>143.369995</ele>
<time>2015-05-24T04:05:52.000Z</time>
</trkpt>
<trkpt lat="31.9383668" lon="34.9652196">
<ele>143.369995</ele>
<time>2015-05-24T04:05:55.000Z</time>
</trkpt>
<trkpt lat="31.9384458" lon="34.9653031">
<ele>143.850006</ele>
<time>2015-05-24T04:05:58.000Z</time>
</trkpt>
<trkpt lat="31.9385224" lon="34.9653878">
<ele>144.339996</ele>
<time>2015-05-24T04:06:01.000Z</time>
</trkpt>
<trkpt lat="31.9385870" lon="34.9654807">
<ele>144.819992</ele>
<time>2015-05-24T04:06:04.000Z</time>
</trkpt>
<trkpt lat="31.9386431" lon="34.9655824">
<ele>145.300003</ele>
<time>2015-05-24T04:06:07.000Z</time>
</trkpt>
<trkpt lat="31.9386861" lon="34.9656939">
<ele>145.300003</ele>
<time>2015-05-24T04:06:10.000Z</time>
</trkpt>
<trkpt lat="31.9387253" lon="34.9658109">
<ele>145.300003</ele>
<time>2015-05-24T04:06:13.000Z</time>
</trkpt>
<trkpt lat="31.9387671" lon="34.9659126">
<ele>145.779999</ele>
<time>2015-05-24T04:06:16.000Z</time>
</trkpt>
<trkpt lat="31.9387976" lon="34.9660169">
<ele>146.260010</ele>
<time>2015-05-24T04:06:19.000Z</time>
</trkpt>
<trkpt lat="31.9388261" lon="34.9661468">
<ele>146.740005</ele>
<time>2015-05-24T04:06:23.000Z</time>
</trkpt>
<trkpt lat="31.9388296" lon="34.9662531">
<ele>147.220001</ele>
<time>2015-05-24T04:06:26.000Z</time>
</trkpt>
<trkpt lat="31.9388395" lon="34.9663686">
<ele>147.220001</ele>
<time>2015-05-24T04:06:29.000Z</time>
</trkpt>
<trkpt lat="31.9388282" lon="34.9664930">
<ele>147.220001</ele>
<time>2015-05-24T04:06:32.000Z</time>
</trkpt>
<trkpt lat="31.9388104" lon="34.9666356">
<ele>147.220001</ele>
<time>2015-05-24T04:06:35.000Z</time>
</trkpt>
<trkpt lat="31.9388014" lon="34.9667477">
<ele>147.220001</ele>
<time>2015-05-24T04:06:37.000Z</time>
</trkpt>
<trkpt lat="31.9387970" lon="34.9668985">
<ele>148.179993</ele>
<time>2015-05-24T04:06:40.000Z</time>
</trkpt>
<trkpt lat="31.9387964" lon="34.9670465">
<ele>148.179993</ele>
<time>2015-05-24T04:06:43.000Z</time>
</trkpt>
<trkpt lat="31.9387980" lon="34.9671873">
<ele>148.179993</ele>
<time>2015-05-24T04:06:46.000Z</time>
</trkpt>
<trkpt lat="31.9388113" lon="34.9673113">
<ele>148.179993</ele>
<time>2015-05-24T04:06:49.000Z</time>
</trkpt>
<trkpt lat="31.9388429" lon="34.9674372">
<ele>148.659988</ele>
<time>2015-05-24T04:06:52.000Z</time>
</trkpt>
<trkpt lat="31.9388789" lon="34.9675475">
<ele>149.139999</ele>
<time>2015-05-24T04:06:55.000Z</time>
</trkpt>
<trkpt lat="31.9389158" lon="34.9676645">
<ele>149.619995</ele>
<time>2015-05-24T04:06:59.000Z</time>
</trkpt>
<trkpt lat="31.9389669" lon="34.9677750">
<ele>150.100006</ele>
<time>2015-05-24T04:07:03.000Z</time>
</trkpt>
<trkpt lat="31.9390058" lon="34.9678885">
<ele>151.059998</ele>
<time>2015-05-24T04:07:07.000Z</time>
</trkpt>
<trkpt lat="31.9390494" lon="34.9679868">
<ele>151.539993</ele>
<time>2015-05-24T04:07:11.000Z</time>
</trkpt>
<trkpt lat="31.9391028" lon="34.9680850">
<ele>152.029999</ele>
<time>2015-05-24T04:07:15.000Z</time>
</trkpt>
<trkpt lat="31.9390925" lon="34.9682183">
<ele>152.510010</ele>
<time>2015-05-24T04:07:19.000Z</time>
</trkpt>
<trkpt lat="31.9390818" lon="34.9683443">
<ele>152.990005</ele>
<time>2015-05-24T04:07:23.000Z</time>
</trkpt>
<trkpt lat="31.9390708" lon="34.9684888">
<ele>152.510010</ele>
<time>2015-05-24T04:07:27.000Z</time>
</trkpt>
<trkpt lat="31.9390656" lon="34.9686003">
<ele>152.990005</ele>
<time>2015-05-24T04:07:30.000Z</time>
</trkpt>
<trkpt lat="31.9390705" lon="34.9687424">
<ele>153.470001</ele>
<time>2015-05-24T04:07:34.000Z</time>
</trkpt>
<trkpt lat="31.9390816" lon="34.9688874">
<ele>153.470001</ele>
<time>2015-05-24T04:07:38.000Z</time>
</trkpt>
<trkpt lat="31.9390956" lon="34.9690002">
<ele>153.470001</ele>
<time>2015-05-24T04:07:41.000Z</time>
</trkpt>
<trkpt lat="31.9391063" lon="34.9691145">
<ele>153.949997</ele>
<time>2015-05-24T04:07:44.000Z</time>
</trkpt>
<trkpt lat="31.9391215" lon="34.9692269">
<ele>153.949997</ele>
<time>2015-05-24T04:07:47.000Z</time>
</trkpt>
<trkpt lat="31.9391116" lon="34.9693317">
<ele>154.429993</ele>
<time>2015-05-24T04:07:51.000Z</time>
</trkpt>
<trkpt lat="31.9389857" lon="34.9693110">
<ele>153.949997</ele>
<time>2015-05-24T04:08:52.000Z</time>
</trkpt>
<trkpt lat="31.9388939" lon="34.9693235">
<ele>153.949997</ele>
<time>2015-05-24T04:08:58.000Z</time>
</trkpt>
<trkpt lat="31.9388083" lon="34.9693802">
<ele>155.869995</ele>
<time>2015-05-24T04:09:05.000Z</time>
</trkpt>
<trkpt lat="31.9387252" lon="34.9694331">
<ele>156.830002</ele>
<time>2015-05-24T04:09:11.000Z</time>
</trkpt>
<trkpt lat="31.9386377" lon="34.9694847">
<ele>159.239990</ele>
<time>2015-05-24T04:09:18.000Z</time>
</trkpt>
<trkpt lat="31.9385457" lon="34.9695341">
<ele>160.679993</ele>
<time>2015-05-24T04:09:26.000Z</time>
</trkpt>
<trkpt lat="31.9384918" lon="34.9696257">
<ele>161.160004</ele>
<time>2015-05-24T04:09:34.000Z</time>
</trkpt>
<trkpt lat="31.9384067" lon="34.9696836">
<ele>163.080002</ele>
<time>2015-05-24T04:09:50.000Z</time>
</trkpt>
<trkpt lat="31.9383231" lon="34.9697149">
<ele>164.520004</ele>
<time>2015-05-24T04:09:59.000Z</time>
</trkpt>
<trkpt lat="31.9382162" lon="34.9697491">
<ele>165.479996</ele>
<time>2015-05-24T04:10:09.000Z</time>
</trkpt>
<trkpt lat="31.9381116" lon="34.9697630">
<ele>167.410004</ele>
<time>2015-05-24T04:10:19.000Z</time>
</trkpt>
<trkpt lat="31.9380409" lon="34.9698370">
<ele>168.369995</ele>
<time>2015-05-24T04:10:28.000Z</time>
</trkpt>
<trkpt lat="31.9379620" lon="34.9698918">
<ele>169.810013</ele>
<time>2015-05-24T04:10:37.000Z</time>
</trkpt>
<trkpt lat="31.9378791" lon="34.9699388">
<ele>171.250000</ele>
<time>2015-05-24T04:11:46.000Z</time>
</trkpt>
<trkpt lat="31.9377806" lon="34.9699401">
<ele>173.170013</ele>
<time>2015-05-24T04:12:01.000Z</time>
</trkpt>
<trkpt lat="31.9376887" lon="34.9699624">
<ele>174.139999</ele>
<time>2015-05-24T04:12:12.000Z</time>
</trkpt>
<trkpt lat="31.9376031" lon="34.9700056">
<ele>175.580002</ele>
<time>2015-05-24T04:12:21.000Z</time>
</trkpt>
<trkpt lat="31.9375022" lon="34.9700469">
<ele>177.500000</ele>
<time>2015-05-24T04:12:31.000Z</time>
</trkpt>
<trkpt lat="31.9374077" lon="34.9700795">
<ele>178.459991</ele>
<time>2015-05-24T04:12:39.000Z</time>
</trkpt>
<trkpt lat="31.9373129" lon="34.9701181">
<ele>179.420013</ele>
<time>2015-05-24T04:12:48.000Z</time>
</trkpt>
<trkpt lat="31.9372373" lon="34.9701670">
<ele>180.869995</ele>
<time>2015-05-24T04:12:56.000Z</time>
</trkpt>
<trkpt lat="31.9371383" lon="34.9701996">
<ele>182.310013</ele>
<time>2015-05-24T04:13:06.000Z</time>
</trkpt>
<trkpt lat="31.9370567" lon="34.9702423">
<ele>185.190002</ele>
<time>2015-05-24T04:13:14.000Z</time>
</trkpt>
<trkpt lat="31.9369784" lon="34.9703031">
<ele>186.630005</ele>
<time>2015-05-24T04:13:23.000Z</time>
</trkpt>
<trkpt lat="31.9368897" lon="34.9703549">
<ele>187.589996</ele>
<time>2015-05-24T04:13:33.000Z</time>
</trkpt>
<trkpt lat="31.9368092" lon="34.9704285">
<ele>188.560013</ele>
<time>2015-05-24T04:13:42.000Z</time>
</trkpt>
<trkpt lat="31.9367420" lon="34.9705011">
<ele>189.520004</ele>
<time>2015-05-24T04:13:51.000Z</time>
</trkpt>
<trkpt lat="31.9366404" lon="34.9705034">
<ele>189.520004</ele>
<time>2015-05-24T04:14:57.000Z</time>
</trkpt>
<trkpt lat="31.9365364" lon="34.9704774">
<ele>190.000000</ele>
<time>2015-05-24T04:15:04.000Z</time>
</trkpt>
<trkpt lat="31.9364435" lon="34.9703925">
<ele>189.039993</ele>
<time>2015-05-24T04:15:11.000Z</time>
</trkpt>
<trkpt lat="31.9364060" lon="34.9702870">
<ele>188.560013</ele>
<time>2015-05-24T04:15:14.000Z</time>
</trkpt>
<trkpt lat="31.9363684" lon="34.9701558">
<ele>188.560013</ele>
<time>2015-05-24T04:15:17.000Z</time>
</trkpt>
<trkpt lat="31.9363150" lon="34.9700109">
<ele>186.630005</ele>
<time>2015-05-24T04:15:20.000Z</time>
</trkpt>
<trkpt lat="31.9362734" lon="34.9699167">
<ele>186.149994</ele>
<time>2015-05-24T04:15:22.000Z</time>
</trkpt>
<trkpt lat="31.9362197" lon="34.9697934">
<ele>184.710007</ele>
<time>2015-05-24T04:15:25.000Z</time>
</trkpt>
<trkpt lat="31.9361755" lon="34.9696646">
<ele>183.750000</ele>
<time>2015-05-24T04:15:28.000Z</time>
</trkpt>
<trkpt lat="31.9361227" lon="34.9695130">
<ele>182.789993</ele>
<time>2015-05-24T04:15:31.000Z</time>
</trkpt>
<trkpt lat="31.9360767" lon="34.9693724">
<ele>182.789993</ele>
<time>2015-05-24T04:15:34.000Z</time>
</trkpt>
<trkpt lat="31.9360145" lon="34.9692382">
<ele>181.830002</ele>
<time>2015-05-24T04:15:37.000Z</time>
</trkpt>
<trkpt lat="31.9359530" lon="34.9691012">
<ele>181.830002</ele>
<time>2015-05-24T04:15:40.000Z</time>
</trkpt>
<trkpt lat="31.9358996" lon="34.9689844">
<ele>181.830002</ele>
<time>2015-05-24T04:15:43.000Z</time>
</trkpt>
<trkpt lat="31.9358439" lon="34.9688732">
<ele>181.830002</ele>
<time>2015-05-24T04:15:48.000Z</time>
</trkpt>
<trkpt lat="31.9357560" lon="34.9687492">
<ele>182.310013</ele>
<time>2015-05-24T04:17:18.000Z</time>
</trkpt>
<trkpt lat="31.9356976" lon="34.9686545">
<ele>182.310013</ele>
<time>2015-05-24T04:17:24.000Z</time>
</trkpt>
<trkpt lat="31.9356419" lon="34.9685711">
<ele>182.310013</ele>
<time>2015-05-24T04:17:28.000Z</time>
</trkpt>
<trkpt lat="31.9355926" lon="34.9684749">
<ele>182.789993</ele>
<time>2015-05-24T04:17:32.000Z</time>
</trkpt>
<trkpt lat="31.9355461" lon="34.9683606">
<ele>183.270004</ele>
<time>2015-05-24T04:17:36.000Z</time>
</trkpt>
<trkpt lat="31.9354951" lon="34.9682716">
<ele>182.789993</ele>
<time>2015-05-24T04:17:39.000Z</time>
</trkpt>
<trkpt lat="31.9354504" lon="34.9681491">
<ele>183.270004</ele>
<time>2015-05-24T04:17:43.000Z</time>
</trkpt>
<trkpt lat="31.9353684" lon="34.9680516">
<ele>183.750000</ele>
<time>2015-05-24T04:17:48.000Z</time>
</trkpt>
<trkpt lat="31.9352896" lon="34.9679576">
<ele>183.750000</ele>
<time>2015-05-24T04:17:52.000Z</time>
</trkpt>
<trkpt lat="31.9352152" lon="34.9678508">
<ele>183.270004</ele>
<time>2015-05-24T04:17:56.000Z</time>
</trkpt>
<trkpt lat="31.9351491" lon="34.9677614">
<ele>183.750000</ele>
<time>2015-05-24T04:18:00.000Z</time>
</trkpt>
<trkpt lat="31.9350910" lon="34.9676508">
<ele>184.229996</ele>
<time>2015-05-24T04:18:05.000Z</time>
</trkpt>
<trkpt lat="31.9350770" lon="34.9675254">
<ele>183.750000</ele>
<time>2015-05-24T04:18:09.000Z</time>
</trkpt>
<trkpt lat="31.9351038" lon="34.9673874">
<ele>183.270004</ele>
<time>2015-05-24T04:18:13.000Z</time>
</trkpt>
<trkpt lat="31.9351379" lon="34.9672655">
<ele>183.270004</ele>
<time>2015-05-24T04:18:17.000Z</time>
</trkpt>
<trkpt lat="31.9350740" lon="34.9671751">
<ele>182.310013</ele>
<time>2015-05-24T04:18:21.000Z</time>
</trkpt>
<trkpt lat="31.9349684" lon="34.9671525">
<ele>182.310013</ele>
<time>2015-05-24T04:18:25.000Z</time>
</trkpt>
<trkpt lat="31.9348647" lon="34.9670892">
<ele>181.830002</ele>
<time>2015-05-24T04:18:29.000Z</time>
</trkpt>
<trkpt lat="31.9347661" lon="34.9670253">
<ele>180.869995</ele>
<time>2015-05-24T04:18:33.000Z</time>
</trkpt>
<trkpt lat="31.9346909" lon="34.9669547">
<ele>179.899994</ele>
<time>2015-05-24T04:18:36.000Z</time>
</trkpt>
<trkpt lat="31.9346098" lon="34.9668784">
<ele>178.940002</ele>
<time>2015-05-24T04:18:39.000Z</time>
</trkpt>
<trkpt lat="31.9345396" lon="34.9668082">
<ele>177.500000</ele>
<time>2015-05-24T04:18:42.000Z</time>
</trkpt>
<trkpt lat="31.9344941" lon="34.9666994">
<ele>175.580002</ele>
<time>2015-05-24T04:18:47.000Z</time>
</trkpt>
<trkpt lat="31.9344857" lon="34.9665769">
<ele>173.660004</ele>
<time>2015-05-24T04:18:52.000Z</time>
</trkpt>
<trkpt lat="31.9344504" lon="34.9664640">
<ele>172.690002</ele>
<time>2015-05-24T04:18:56.000Z</time>
</trkpt>
<trkpt lat="31.9343985" lon="34.9663442">
<ele>171.250000</ele>
<time>2015-05-24T04:19:00.000Z</time>
</trkpt>
<trkpt lat="31.9343181" lon="34.9662793">
<ele>168.849991</ele>
<time>2015-05-24T04:19:03.000Z</time>
</trkpt>
<trkpt lat="31.9342062" lon="34.9662711">
<ele>166.929993</ele>
<time>2015-05-24T04:19:08.000Z</time>
</trkpt>
<trkpt lat="31.9342115" lon="34.9662312">
<ele>166.450012</ele>
<time>2015-05-24T04:20:05.000Z</time>
</trkpt>
<trkpt lat="31.9342240" lon="34.9661004">
<ele>165.479996</ele>
<time>2015-05-24T04:20:15.000Z</time>
</trkpt>
<trkpt lat="31.9342563" lon="34.9659816">
<ele>165.959991</ele>
<time>2015-05-24T04:20:21.000Z</time>
</trkpt>
<trkpt lat="31.9342660" lon="34.9658681">
<ele>165.959991</ele>
<time>2015-05-24T04:20:28.000Z</time>
</trkpt>
<trkpt lat="31.9342752" lon="34.9657422">
<ele>165.479996</ele>
<time>2015-05-24T04:20:36.000Z</time>
</trkpt>
<trkpt lat="31.9342810" lon="34.9656057">
<ele>164.520004</ele>
<time>2015-05-24T04:20:40.000Z</time>
</trkpt>
<trkpt lat="31.9342893" lon="34.9654496">
<ele>164.520004</ele>
<time>2015-05-24T04:21:29.000Z</time>
</trkpt>
<trkpt lat="31.9342561" lon="34.9653277">
<ele>163.560013</ele>
<time>2015-05-24T04:21:36.000Z</time>
</trkpt>
<trkpt lat="31.9342566" lon="34.9652123">
<ele>163.080002</ele>
<time>2015-05-24T04:21:39.000Z</time>
</trkpt>
<trkpt lat="31.9342735" lon="34.9650636">
<ele>162.119995</ele>
<time>2015-05-24T04:21:42.000Z</time>
</trkpt>
<trkpt lat="31.9343127" lon="34.9649447">
<ele>161.639999</ele>
<time>2015-05-24T04:21:45.000Z</time>
</trkpt>
<trkpt lat="31.9343615" lon="34.9648421">
<ele>161.639999</ele>
<time>2015-05-24T04:21:49.000Z</time>
</trkpt>
<trkpt lat="31.9344266" lon="34.9647257">
<ele>161.639999</ele>
<time>2015-05-24T04:21:54.000Z</time>
</trkpt>
<trkpt lat="31.9344896" lon="34.9646080">
<ele>161.639999</ele>
<time>2015-05-24T04:21:58.000Z</time>
</trkpt>
<trkpt lat="31.9345426" lon="34.9645101">
<ele>161.160004</ele>
<time>2015-05-24T04:22:01.000Z</time>
</trkpt>
<trkpt lat="31.9345869" lon="34.9643835">
<ele>160.200012</ele>
<time>2015-05-24T04:22:04.000Z</time>
</trkpt>
<trkpt lat="31.9346114" lon="34.9642484">
<ele>159.239990</ele>
<time>2015-05-24T04:22:07.000Z</time>
</trkpt>
<trkpt lat="31.9346168" lon="34.9641068">
<ele>158.270004</ele>
<time>2015-05-24T04:22:10.000Z</time>
</trkpt>
<trkpt lat="31.9346198" lon="34.9639721">
<ele>157.789993</ele>
<time>2015-05-24T04:22:13.000Z</time>
</trkpt>
<trkpt lat="31.9346047" lon="34.9638659">
<ele>156.349991</ele>
<time>2015-05-24T04:22:16.000Z</time>
</trkpt>
<trkpt lat="31.9345812" lon="34.9637603">
<ele>155.869995</ele>
<time>2015-05-24T04:22:19.000Z</time>
</trkpt>
<trkpt lat="31.9345512" lon="34.9636522">
<ele>155.389999</ele>
<time>2015-05-24T04:22:22.000Z</time>
</trkpt>
<trkpt lat="31.9345294" lon="34.9635322">
<ele>154.909988</ele>
<time>2015-05-24T04:22:25.000Z</time>
</trkpt>
<trkpt lat="31.9344957" lon="34.9634127">
<ele>153.949997</ele>
<time>2015-05-24T04:22:28.000Z</time>
</trkpt>
<trkpt lat="31.9344604" lon="34.9632871">
<ele>152.510010</ele>
<time>2015-05-24T04:22:31.000Z</time>
</trkpt>
<trkpt lat="31.9344319" lon="34.9631501">
<ele>151.539993</ele>
<time>2015-05-24T04:22:34.000Z</time>
</trkpt>
<trkpt lat="31.9344183" lon="34.9630140">
<ele>150.580002</ele>
<time>2015-05-24T04:22:37.000Z</time>
</trkpt>
<trkpt lat="31.9344052" lon="34.9629028">
<ele>149.139999</ele>
<time>2015-05-24T04:22:40.000Z</time>
</trkpt>
<trkpt lat="31.9343934" lon="34.9627704">
<ele>147.220001</ele>
<time>2015-05-24T04:22:43.000Z</time>
</trkpt>
<trkpt lat="31.9343778" lon="34.9626264">
<ele>146.260010</ele>
<time>2015-05-24T04:22:46.000Z</time>
</trkpt>
<trkpt lat="31.9344087" lon="34.9624793">
<ele>144.339996</ele>
<time>2015-05-24T04:22:49.000Z</time>
</trkpt>
<trkpt lat="31.9344754" lon="34.9623705">
<ele>143.850006</ele>
<time>2015-05-24T04:22:52.000Z</time>
</trkpt>
<trkpt lat="31.9345660" lon="34.9622924">
<ele>142.889999</ele>
<time>2015-05-24T04:22:56.000Z</time>
</trkpt>
<trkpt lat="31.9346337" lon="34.9622037">
<ele>140.970001</ele>
<time>2015-05-24T04:23:01.000Z</time>
</trkpt>
<trkpt lat="31.9347314" lon="34.9621580">
<ele>140.490005</ele>
<time>2015-05-24T04:23:05.000Z</time>
</trkpt>
<trkpt lat="31.9348287" lon="34.9621302">
<ele>139.050003</ele>
<time>2015-05-24T04:23:09.000Z</time>
</trkpt>
<trkpt lat="31.9349300" lon="34.9621551">
<ele>138.569992</ele>
<time>2015-05-24T04:23:15.000Z</time>
</trkpt>
<trkpt lat="31.9350369" lon="34.9621261">
<ele>138.089996</ele>
<time>2015-05-24T04:23:36.000Z</time>
</trkpt>
<trkpt lat="31.9351072" lon="34.9620348">
<ele>136.639999</ele>
<time>2015-05-24T04:23:46.000Z</time>
</trkpt>
<trkpt lat="31.9351484" lon="34.9619240">
<ele>135.199997</ele>
<time>2015-05-24T04:23:50.000Z</time>
</trkpt>
<trkpt lat="31.9352353" lon="34.9618708">
<ele>134.720001</ele>
<time>2015-05-24T04:23:56.000Z</time>
</trkpt>
<trkpt lat="31.9353312" lon="34.9618588">
<ele>133.760010</ele>
<time>2015-05-24T04:24:01.000Z</time>
</trkpt>
<trkpt lat="31.9354367" lon="34.9618312">
<ele>132.800003</ele>
<time>2015-05-24T04:24:06.000Z</time>
</trkpt>
<trkpt lat="31.9355092" lon="34.9617714">
<ele>131.839996</ele>
<time>2015-05-24T04:24:10.000Z</time>
</trkpt>
<trkpt lat="31.9355437" lon="34.9616492">
<ele>130.880005</ele>
<time>2015-05-24T04:24:15.000Z</time>
</trkpt>
<trkpt lat="31.9355953" lon="34.9615225">
<ele>128.470001</ele>
<time>2015-05-24T04:24:20.000Z</time>
</trkpt>
<trkpt lat="31.9356256" lon="34.9614197">
<ele>127.030006</ele>
<time>2015-05-24T04:24:23.000Z</time>
</trkpt>
<trkpt lat="31.9356296" lon="34.9612856">
<ele>126.070000</ele>
<time>2015-05-24T04:24:26.000Z</time>
</trkpt>
<trkpt lat="31.9356295" lon="34.9611661">
<ele>126.549995</ele>
<time>2015-05-24T04:24:30.000Z</time>
</trkpt>
<trkpt lat="31.9356444" lon="34.9610487">
<ele>126.070000</ele>
<time>2015-05-24T04:24:34.000Z</time>
</trkpt>
<trkpt lat="31.9356657" lon="34.9608820">
<ele>126.070000</ele>
<time>2015-05-24T04:24:51.000Z</time>
</trkpt>
<trkpt lat="31.9356514" lon="34.9607421">
<ele>125.110001</ele>
<time>2015-05-24T04:24:56.000Z</time>
</trkpt>
<trkpt lat="31.9356597" lon="34.9605958">
<ele>124.630005</ele>
<time>2015-05-24T04:25:00.000Z</time>
</trkpt>
<trkpt lat="31.9356672" lon="34.9604793">
<ele>124.630005</ele>
<time>2015-05-24T04:25:04.000Z</time>
</trkpt>
<trkpt lat="31.9357253" lon="34.9603893">
<ele>123.669998</ele>
<time>2015-05-24T04:25:40.000Z</time>
</trkpt>
<trkpt lat="31.9357381" lon="34.9602662">
<ele>123.189995</ele>
<time>2015-05-24T04:25:45.000Z</time>
</trkpt>
<trkpt lat="31.9357535" lon="34.9601291">
<ele>122.709999</ele>
<time>2015-05-24T04:25:49.000Z</time>
</trkpt>
<trkpt lat="31.9357809" lon="34.9599926">
<ele>121.740005</ele>
<time>2015-05-24T04:25:53.000Z</time>
</trkpt>
<trkpt lat="31.9357834" lon="34.9598679">
<ele>121.260002</ele>
<time>2015-05-24T04:25:57.000Z</time>
</trkpt>
<trkpt lat="31.9357508" lon="34.9597426">
<ele>120.780006</ele>
<time>2015-05-24T04:26:01.000Z</time>
</trkpt>
<trkpt lat="31.9356971" lon="34.9596232">
<ele>120.299995</ele>
<time>2015-05-24T04:26:05.000Z</time>
</trkpt>
<trkpt lat="31.9356234" lon="34.9595075">
<ele>119.820000</ele>
<time>2015-05-24T04:26:09.000Z</time>
</trkpt>
<trkpt lat="31.9355553" lon="34.9593962">
<ele>119.820000</ele>
<time>2015-05-24T04:26:14.000Z</time>
</trkpt>
<trkpt lat="31.9354927" lon="34.9593024">
<ele>119.820000</ele>
<time>2015-05-24T04:26:18.000Z</time>
</trkpt>
<trkpt lat="31.9354044" lon="34.9592109">
<ele>119.339996</ele>
<time>2015-05-24T04:26:22.000Z</time>
</trkpt>
<trkpt lat="31.9353257" lon="34.9591374">
<ele>119.339996</ele>
<time>2015-05-24T04:26:25.000Z</time>
</trkpt>
<trkpt lat="31.9352510" lon="34.9590531">
<ele>118.860001</ele>
<time>2015-05-24T04:26:28.000Z</time>
</trkpt>
<trkpt lat="31.9351840" lon="34.9589653">
<ele>118.380005</ele>
<time>2015-05-24T04:26:31.000Z</time>
</trkpt>
<trkpt lat="31.9351415" lon="34.9588512">
<ele>117.900002</ele>
<time>2015-05-24T04:26:34.000Z</time>
</trkpt>
<trkpt lat="31.9351228" lon="34.9587082">
<ele>117.900002</ele>
<time>2015-05-24T04:26:37.000Z</time>
</trkpt>
<trkpt lat="31.9351155" lon="34.9585637">
<ele>117.419998</ele>
<time>2015-05-24T04:26:40.000Z</time>
</trkpt>
<trkpt lat="31.9351253" lon="34.9584193">
<ele>116.939995</ele>
<time>2015-05-24T04:26:43.000Z</time>
</trkpt>
<trkpt lat="31.9351579" lon="34.9582745">
<ele>116.459999</ele>
<time>2015-05-24T04:26:46.000Z</time>
</trkpt>
<trkpt lat="31.9352149" lon="34.9581425">
<ele>115.980003</ele>
<time>2015-05-24T04:26:49.000Z</time>
</trkpt>
<trkpt lat="31.9352594" lon="34.9579938">
<ele>115.980003</ele>
<time>2015-05-24T04:26:52.000Z</time>
</trkpt>
<trkpt lat="31.9353062" lon="34.9578400">
<ele>116.459999</ele>
<time>2015-05-24T04:26:55.000Z</time>
</trkpt>
<trkpt lat="31.9353420" lon="34.9577399">
<ele>115.980003</ele>
<time>2015-05-24T04:26:57.000Z</time>
</trkpt>
<trkpt lat="31.9353754" lon="34.9576402">
<ele>115.980003</ele>
<time>2015-05-24T04:26:59.000Z</time>
</trkpt>
<trkpt lat="31.9354090" lon="34.9575386">
<ele>115.980003</ele>
<time>2015-05-24T04:27:01.000Z</time>
</trkpt>
<trkpt lat="31.9354415" lon="34.9574324">
<ele>115.500000</ele>
<time>2015-05-24T04:27:03.000Z</time>
</trkpt>
<trkpt lat="31.9354694" lon="34.9573225">
<ele>115.980003</ele>
<time>2015-05-24T04:27:05.000Z</time>
</trkpt>
<trkpt lat="31.9354992" lon="34.9572192">
<ele>115.500000</ele>
<time>2015-05-24T04:27:07.000Z</time>
</trkpt>
<trkpt lat="31.9355378" lon="34.9571017">
<ele>115.500000</ele>
<time>2015-05-24T04:27:10.000Z</time>
</trkpt>
<trkpt lat="31.9355725" lon="34.9569677">
<ele>115.980003</ele>
<time>2015-05-24T04:27:14.000Z</time>
</trkpt>
<trkpt lat="31.9355843" lon="34.9568475">
<ele>115.980003</ele>
<time>2015-05-24T04:27:17.000Z</time>
</trkpt>
<trkpt lat="31.9355993" lon="34.9567243">
<ele>115.010002</ele>
<time>2015-05-24T04:27:20.000Z</time>
</trkpt>
<trkpt lat="31.9356323" lon="34.9566032">
<ele>115.010002</ele>
<time>2015-05-24T04:27:23.000Z</time>
</trkpt>
<trkpt lat="31.9356579" lon="34.9564740">
<ele>114.530006</ele>
<time>2015-05-24T04:27:26.000Z</time>
</trkpt>
<trkpt lat="31.9356733" lon="34.9563302">
<ele>114.049995</ele>
<time>2015-05-24T04:27:29.000Z</time>
</trkpt>
<trkpt lat="31.9357071" lon="34.9561767">
<ele>113.089996</ele>
<time>2015-05-24T04:27:32.000Z</time>
</trkpt>
<trkpt lat="31.9357510" lon="34.9560792">
<ele>113.089996</ele>
<time>2015-05-24T04:27:34.000Z</time>
</trkpt>
<trkpt lat="31.9358210" lon="34.9559690">
<ele>112.610001</ele>
<time>2015-05-24T04:27:38.000Z</time>
</trkpt>
<trkpt lat="31.9358744" lon="34.9559223">
<ele>112.610001</ele>
<time>2015-05-24T04:27:55.000Z</time>
</trkpt>
<trkpt lat="31.9359374" lon="34.9558278">
<ele>112.610001</ele>
<time>2015-05-24T04:28:01.000Z</time>
</trkpt>
<trkpt lat="31.9360096" lon="34.9557394">
<ele>112.610001</ele>
<time>2015-05-24T04:28:06.000Z</time>
</trkpt>
<trkpt lat="31.9360939" lon="34.9556355">
<ele>112.610001</ele>
<time>2015-05-24T04:28:11.000Z</time>
</trkpt>
<trkpt lat="31.9361599" lon="34.9555433">
<ele>112.610001</ele>
<time>2015-05-24T04:28:15.000Z</time>
</trkpt>
<trkpt lat="31.9362339" lon="34.9554373">
<ele>111.650002</ele>
<time>2015-05-24T04:28:18.000Z</time>
</trkpt>
<trkpt lat="31.9363071" lon="34.9553440">
<ele>111.650002</ele>
<time>2015-05-24T04:28:21.000Z</time>
</trkpt>
<trkpt lat="31.9363845" lon="34.9552542">
<ele>111.650002</ele>
<time>2015-05-24T04:28:24.000Z</time>
</trkpt>
<trkpt lat="31.9364668" lon="34.9551748">
<ele>111.650002</ele>
<time>2015-05-24T04:28:27.000Z</time>
</trkpt>
<trkpt lat="31.9365518" lon="34.9551305">
<ele>111.650002</ele>
<time>2015-05-24T04:28:30.000Z</time>
</trkpt>
<trkpt lat="31.9366644" lon="34.9550737">
<ele>111.169998</ele>
<time>2015-05-24T04:28:34.000Z</time>
</trkpt>
<trkpt lat="31.9367653" lon="34.9550164">
<ele>110.689995</ele>
<time>2015-05-24T04:28:37.000Z</time>
</trkpt>
<trkpt lat="31.9368689" lon="34.9549499">
<ele>111.169998</ele>
<time>2015-05-24T04:28:40.000Z</time>
</trkpt>
<trkpt lat="31.9369797" lon="34.9548708">
<ele>110.689995</ele>
<time>2015-05-24T04:28:43.000Z</time>
</trkpt>
<trkpt lat="31.9370891" lon="34.9547900">
<ele>110.689995</ele>
<time>2015-05-24T04:28:46.000Z</time>
</trkpt>
<trkpt lat="31.9372036" lon="34.9547045">
<ele>110.689995</ele>
<time>2015-05-24T04:28:49.000Z</time>
</trkpt>
<trkpt lat="31.9372810" lon="34.9546460">
<ele>109.730003</ele>
<time>2015-05-24T04:28:51.000Z</time>
</trkpt>
<trkpt lat="31.9373988" lon="34.9545660">
<ele>109.730003</ele>
<time>2015-05-24T04:28:54.000Z</time>
</trkpt>
<trkpt lat="31.9374846" lon="34.9545147">
<ele>109.250000</ele>
<time>2015-05-24T04:28:56.000Z</time>
</trkpt>
<trkpt lat="31.9376069" lon="34.9544457">
<ele>108.290001</ele>
<time>2015-05-24T04:28:59.000Z</time>
</trkpt>
<trkpt lat="31.9377144" lon="34.9543699">
<ele>108.770004</ele>
<time>2015-05-24T04:29:02.000Z</time>
</trkpt>
<trkpt lat="31.9378050" lon="34.9543098">
<ele>108.770004</ele>
<time>2015-05-24T04:29:05.000Z</time>
</trkpt>
<trkpt lat="31.9378967" lon="34.9542324">
<ele>108.770004</ele>
<time>2015-05-24T04:29:08.000Z</time>
</trkpt>
<trkpt lat="31.9379842" lon="34.9541424">
<ele>108.770004</ele>
<time>2015-05-24T04:29:11.000Z</time>
</trkpt>
<trkpt lat="31.9380780" lon="34.9540657">
<ele>108.770004</ele>
<time>2015-05-24T04:29:14.000Z</time>
</trkpt>
<trkpt lat="31.9381741" lon="34.9539698">
<ele>108.770004</ele>
<time>2015-05-24T04:29:17.000Z</time>
</trkpt>
<trkpt lat="31.9382669" lon="34.9538699">
<ele>107.809998</ele>
<time>2015-05-24T04:29:20.000Z</time>
</trkpt>
<trkpt lat="31.9383383" lon="34.9537476">
<ele>107.809998</ele>
<time>2015-05-24T04:29:23.000Z</time>
</trkpt>
<trkpt lat="31.9383876" lon="34.9535983">
<ele>107.320000</ele>
<time>2015-05-24T04:29:26.000Z</time>
</trkpt>
<trkpt lat="31.9384332" lon="34.9534570">
<ele>107.320000</ele>
<time>2015-05-24T04:29:29.000Z</time>
</trkpt>
<trkpt lat="31.9384764" lon="34.9533099">
<ele>107.320000</ele>
<time>2015-05-24T04:29:32.000Z</time>
</trkpt>
<trkpt lat="31.9385038" lon="34.9531632">
<ele>107.320000</ele>
<time>2015-05-24T04:29:35.000Z</time>
</trkpt>
<trkpt lat="31.9385264" lon="34.9530443">
<ele>106.839996</ele>
<time>2015-05-24T04:29:37.000Z</time>
</trkpt>
<trkpt lat="31.9385479" lon="34.9528908">
<ele>106.839996</ele>
<time>2015-05-24T04:29:40.000Z</time>
</trkpt>
<trkpt lat="31.9385704" lon="34.9527348">
<ele>106.839996</ele>
<time>2015-05-24T04:29:43.000Z</time>
</trkpt>
<trkpt lat="31.9385882" lon="34.9525802">
<ele>106.839996</ele>
<time>2015-05-24T04:29:46.000Z</time>
</trkpt>
<trkpt lat="31.9385958" lon="34.9524291">
<ele>106.360001</ele>
<time>2015-05-24T04:29:49.000Z</time>
</trkpt>
<trkpt lat="31.9385867" lon="34.9522786">
<ele>107.320000</ele>
<time>2015-05-24T04:29:52.000Z</time>
</trkpt>
<trkpt lat="31.9386071" lon="34.9521325">
<ele>106.839996</ele>
<time>2015-05-24T04:29:55.000Z</time>
</trkpt>
<trkpt lat="31.9386283" lon="34.9519893">
<ele>106.839996</ele>
<time>2015-05-24T04:29:58.000Z</time>
</trkpt>
<trkpt lat="31.9386779" lon="34.9518461">
<ele>106.839996</ele>
<time>2015-05-24T04:30:01.000Z</time>
</trkpt>
<trkpt lat="31.9387050" lon="34.9517442">
<ele>106.360001</ele>
<time>2015-05-24T04:30:03.000Z</time>
</trkpt>
<trkpt lat="31.9387612" lon="34.9516014">
<ele>106.360001</ele>
<time>2015-05-24T04:30:06.000Z</time>
</trkpt>
<trkpt lat="31.9388042" lon="34.9515067">
<ele>106.360001</ele>
<time>2015-05-24T04:30:08.000Z</time>
</trkpt>
<trkpt lat="31.9388720" lon="34.9513628">
<ele>105.880005</ele>
<time>2015-05-24T04:30:11.000Z</time>
</trkpt>
<trkpt lat="31.9389376" lon="34.9512178">
<ele>105.400002</ele>
<time>2015-05-24T04:30:14.000Z</time>
</trkpt>
<trkpt lat="31.9389866" lon="34.9511142">
<ele>104.919998</ele>
<time>2015-05-24T04:30:16.000Z</time>
</trkpt>
<trkpt lat="31.9390262" lon="34.9510039">
<ele>104.919998</ele>
<time>2015-05-24T04:30:18.000Z</time>
</trkpt>
<trkpt lat="31.9390762" lon="34.9508945">
<ele>104.439995</ele>
<time>2015-05-24T04:30:20.000Z</time>
</trkpt>
<trkpt lat="31.9391121" lon="34.9507738">
<ele>103.959999</ele>
<time>2015-05-24T04:30:22.000Z</time>
</trkpt>
<trkpt lat="31.9391363" lon="34.9506506">
<ele>103.959999</ele>
<time>2015-05-24T04:30:24.000Z</time>
</trkpt>
<trkpt lat="31.9391477" lon="34.9505336">
<ele>103.959999</ele>
<time>2015-05-24T04:30:26.000Z</time>
</trkpt>
<trkpt lat="31.9391434" lon="34.9504199">
<ele>104.439995</ele>
<time>2015-05-24T04:30:28.000Z</time>
</trkpt>
<trkpt lat="31.9391380" lon="34.9503046">
<ele>103.480003</ele>
<time>2015-05-24T04:30:30.000Z</time>
</trkpt>
<trkpt lat="31.9391248" lon="34.9501909">
<ele>103.959999</ele>
<time>2015-05-24T04:30:32.000Z</time>
</trkpt>
<trkpt lat="31.9391150" lon="34.9500750">
<ele>104.439995</ele>
<time>2015-05-24T04:30:34.000Z</time>
</trkpt>
<trkpt lat="31.9391005" lon="34.9499576">
<ele>103.480003</ele>
<time>2015-05-24T04:30:36.000Z</time>
</trkpt>
<trkpt lat="31.9390736" lon="34.9498436">
<ele>103.480003</ele>
<time>2015-05-24T04:30:38.000Z</time>
</trkpt>
<trkpt lat="31.9390373" lon="34.9497373">
<ele>103.480003</ele>
<time>2015-05-24T04:30:40.000Z</time>
</trkpt>
<trkpt lat="31.9390055" lon="34.9496357">
<ele>103.480003</ele>
<time>2015-05-24T04:30:42.000Z</time>
</trkpt>
<trkpt lat="31.9389746" lon="34.9494907">
<ele>103.480003</ele>
<time>2015-05-24T04:30:45.000Z</time>
</trkpt>
<trkpt lat="31.9389374" lon="34.9493644">
<ele>103.480003</ele>
<time>2015-05-24T04:30:48.000Z</time>
</trkpt>
<trkpt lat="31.9388852" lon="34.9492418">
<ele>103.480003</ele>
<time>2015-05-24T04:30:51.000Z</time>
</trkpt>
<trkpt lat="31.9388213" lon="34.9491112">
<ele>103.000000</ele>
<time>2015-05-24T04:30:54.000Z</time>
</trkpt>
<trkpt lat="31.9387825" lon="34.9490118">
<ele>103.480003</ele>
<time>2015-05-24T04:30:56.000Z</time>
</trkpt>
<trkpt lat="31.9387503" lon="34.9489059">
<ele>103.000000</ele>
<time>2015-05-24T04:30:58.000Z</time>
</trkpt>
<trkpt lat="31.9387195" lon="34.9487959">
<ele>102.520004</ele>
<time>2015-05-24T04:31:00.000Z</time>
</trkpt>
<trkpt lat="31.9386922" lon="34.9486816">
<ele>103.000000</ele>
<time>2015-05-24T04:31:02.000Z</time>
</trkpt>
<trkpt lat="31.9386650" lon="34.9485633">
<ele>102.040001</ele>
<time>2015-05-24T04:31:04.000Z</time>
</trkpt>
<trkpt lat="31.9386375" lon="34.9484451">
<ele>102.520004</ele>
<time>2015-05-24T04:31:06.000Z</time>
</trkpt>
<trkpt lat="31.9386095" lon="34.9483204">
<ele>101.559998</ele>
<time>2015-05-24T04:31:08.000Z</time>
</trkpt>
<trkpt lat="31.9385802" lon="34.9481972">
<ele>101.559998</ele>
<time>2015-05-24T04:31:10.000Z</time>
</trkpt>
<trkpt lat="31.9385480" lon="34.9480760">
<ele>101.559998</ele>
<time>2015-05-24T04:31:12.000Z</time>
</trkpt>
<trkpt lat="31.9385126" lon="34.9479667">
<ele>101.079994</ele>
<time>2015-05-24T04:31:14.000Z</time>
</trkpt>
<trkpt lat="31.9384783" lon="34.9478570">
<ele>101.559998</ele>
<time>2015-05-24T04:31:16.000Z</time>
</trkpt>
<trkpt lat="31.9384475" lon="34.9477410">
<ele>101.559998</ele>
<time>2015-05-24T04:31:18.000Z</time>
</trkpt>
<trkpt lat="31.9384176" lon="34.9476093">
<ele>101.079994</ele>
<time>2015-05-24T04:31:21.000Z</time>
</trkpt>
<trkpt lat="31.9383840" lon="34.9474807">
<ele>101.559998</ele>
<time>2015-05-24T04:31:24.000Z</time>
</trkpt>
<trkpt lat="31.9383494" lon="34.9473795">
<ele>101.079994</ele>
<time>2015-05-24T04:31:27.000Z</time>
</trkpt>
<trkpt lat="31.9383002" lon="34.9472673">
<ele>101.079994</ele>
<time>2015-05-24T04:31:31.000Z</time>
</trkpt>
<trkpt lat="31.9382239" lon="34.9472283">
<ele>101.559998</ele>
<time>2015-05-24T04:31:37.000Z</time>
</trkpt>
<trkpt lat="31.9381638" lon="34.9473365">
<ele>103.000000</ele>
<time>2015-05-24T04:31:43.000Z</time>
</trkpt>
<trkpt lat="31.9381066" lon="34.9474390">
<ele>103.959999</ele>
<time>2015-05-24T04:31:49.000Z</time>
</trkpt>
<trkpt lat="31.9380522" lon="34.9475382">
<ele>105.880005</ele>
<time>2015-05-24T04:31:55.000Z</time>
</trkpt>
<trkpt lat="31.9379967" lon="34.9476250">
<ele>107.809998</ele>
<time>2015-05-24T04:32:01.000Z</time>
</trkpt>
<trkpt lat="31.9379365" lon="34.9477093">
<ele>108.290001</ele>
<time>2015-05-24T04:32:07.000Z</time>
</trkpt>
<trkpt lat="31.9378841" lon="34.9477960">
<ele>109.250000</ele>
<time>2015-05-24T04:32:13.000Z</time>
</trkpt>
<trkpt lat="31.9378204" lon="34.9478679">
<ele>110.689995</ele>
<time>2015-05-24T04:32:20.000Z</time>
</trkpt>
<trkpt lat="31.9377630" lon="34.9479627">
<ele>112.610001</ele>
<time>2015-05-24T04:32:28.000Z</time>
</trkpt>
<trkpt lat="31.9377185" lon="34.9480657">
<ele>114.530006</ele>
<time>2015-05-24T04:32:36.000Z</time>
</trkpt>
<trkpt lat="31.9376675" lon="34.9481504">
<ele>115.980003</ele>
<time>2015-05-24T04:32:44.000Z</time>
</trkpt>
<trkpt lat="31.9376040" lon="34.9482254">
<ele>117.900002</ele>
<time>2015-05-24T04:32:53.000Z</time>
</trkpt>
<trkpt lat="31.9375452" lon="34.9483103">
<ele>118.380005</ele>
<time>2015-05-24T04:33:02.000Z</time>
</trkpt>
<trkpt lat="31.9374661" lon="34.9483651">
<ele>119.820000</ele>
<time>2015-05-24T04:33:10.000Z</time>
</trkpt>
<trkpt lat="31.9373829" lon="34.9484109">
<ele>119.820000</ele>
<time>2015-05-24T04:33:17.000Z</time>
</trkpt>
<trkpt lat="31.9373084" lon="34.9484781">
<ele>121.260002</ele>
<time>2015-05-24T04:33:24.000Z</time>
</trkpt>
<trkpt lat="31.9372584" lon="34.9485714">
<ele>122.220001</ele>
<time>2015-05-24T04:33:31.000Z</time>
</trkpt>
<trkpt lat="31.9372231" lon="34.9486741">
<ele>123.189995</ele>
<time>2015-05-24T04:33:38.000Z</time>
</trkpt>
<trkpt lat="31.9371964" lon="34.9487856">
<ele>124.150002</ele>
<time>2015-05-24T04:33:45.000Z</time>
</trkpt>
<trkpt lat="31.9371736" lon="34.9488969">
<ele>124.150002</ele>
<time>2015-05-24T04:33:51.000Z</time>
</trkpt>
<trkpt lat="31.9371692" lon="34.9490268">
<ele>124.630005</ele>
<time>2015-05-24T04:33:57.000Z</time>
</trkpt>
<trkpt lat="31.9371678" lon="34.9491452">
<ele>125.110001</ele>
<time>2015-05-24T04:34:03.000Z</time>
</trkpt>
<trkpt lat="31.9371720" lon="34.9492617">
<ele>126.070000</ele>
<time>2015-05-24T04:34:09.000Z</time>
</trkpt>
<trkpt lat="31.9371829" lon="34.9493843">
<ele>126.549995</ele>
<time>2015-05-24T04:34:14.000Z</time>
</trkpt>
<trkpt lat="31.9371838" lon="34.9495034">
<ele>127.030006</ele>
<time>2015-05-24T04:34:20.000Z</time>
</trkpt>
<trkpt lat="31.9371645" lon="34.9496191">
<ele>127.510002</ele>
<time>2015-05-24T04:34:26.000Z</time>
</trkpt>
<trkpt lat="31.9371827" lon="34.9497337">
<ele>128.470001</ele>
<time>2015-05-24T04:34:32.000Z</time>
</trkpt>
<trkpt lat="31.9372196" lon="34.9498378">
<ele>129.429993</ele>
<time>2015-05-24T04:34:38.000Z</time>
</trkpt>
<trkpt lat="31.9372911" lon="34.9499368">
<ele>128.470001</ele>
<time>2015-05-24T04:34:44.000Z</time>
</trkpt>
<trkpt lat="31.9373403" lon="34.9500376">
<ele>127.989998</ele>
<time>2015-05-24T04:34:48.000Z</time>
</trkpt>
<trkpt lat="31.9373602" lon="34.9501408">
<ele>127.989998</ele>
<time>2015-05-24T04:34:51.000Z</time>
</trkpt>
<trkpt lat="31.9373546" lon="34.9502715">
<ele>127.510002</ele>
<time>2015-05-24T04:34:54.000Z</time>
</trkpt>
<trkpt lat="31.9373584" lon="34.9504149">
<ele>127.030006</ele>
<time>2015-05-24T04:34:57.000Z</time>
</trkpt>
<trkpt lat="31.9373613" lon="34.9505591">
<ele>126.070000</ele>
<time>2015-05-24T04:35:00.000Z</time>
</trkpt>
<trkpt lat="31.9373468" lon="34.9506749">
<ele>127.030006</ele>
<time>2015-05-24T04:35:03.000Z</time>
</trkpt>
<trkpt lat="31.9373208" lon="34.9507857">
<ele>127.510002</ele>
<time>2015-05-24T04:35:07.000Z</time>
</trkpt>
<trkpt lat="31.9372714" lon="34.9508842">
<ele>128.470001</ele>
<time>2015-05-24T04:35:12.000Z</time>
</trkpt>
<trkpt lat="31.9372135" lon="34.9509880">
<ele>129.429993</ele>
<time>2015-05-24T04:35:18.000Z</time>
</trkpt>
<trkpt lat="31.9371828" lon="34.9510964">
<ele>130.400009</ele>
<time>2015-05-24T04:35:24.000Z</time>
</trkpt>
<trkpt lat="31.9371616" lon="34.9512115">
<ele>130.880005</ele>
<time>2015-05-24T04:35:30.000Z</time>
</trkpt>
<trkpt lat="31.9371521" lon="34.9513333">
<ele>131.360001</ele>
<time>2015-05-24T04:35:36.000Z</time>
</trkpt>
<trkpt lat="31.9371490" lon="34.9514581">
<ele>132.800003</ele>
<time>2015-05-24T04:35:42.000Z</time>
</trkpt>
<trkpt lat="31.9371658" lon="34.9515811">
<ele>133.760010</ele>
<time>2015-05-24T04:35:48.000Z</time>
</trkpt>
<trkpt lat="31.9371889" lon="34.9517066">
<ele>134.240005</ele>
<time>2015-05-24T04:35:54.000Z</time>
</trkpt>
<trkpt lat="31.9372157" lon="34.9518265">
<ele>134.720001</ele>
<time>2015-05-24T04:36:00.000Z</time>
</trkpt>
<trkpt lat="31.9372409" lon="34.9519325">
<ele>135.199997</ele>
<time>2015-05-24T04:36:05.000Z</time>
</trkpt>
<trkpt lat="31.9372551" lon="34.9520461">
<ele>135.679993</ele>
<time>2015-05-24T04:36:10.000Z</time>
</trkpt>
<trkpt lat="31.9372641" lon="34.9521536">
<ele>136.159988</ele>
<time>2015-05-24T04:36:15.000Z</time>
</trkpt>
<trkpt lat="31.9372692" lon="34.9522698">
<ele>136.159988</ele>
<time>2015-05-24T04:36:20.000Z</time>
</trkpt>
<trkpt lat="31.9372402" lon="34.9523778">
<ele>136.159988</ele>
<time>2015-05-24T04:36:25.000Z</time>
</trkpt>
<trkpt lat="31.9372209" lon="34.9524930">
<ele>136.639999</ele>
<time>2015-05-24T04:36:31.000Z</time>
</trkpt>
<trkpt lat="31.9372430" lon="34.9525982">
<ele>137.130005</ele>
<time>2015-05-24T04:36:37.000Z</time>
</trkpt>
<trkpt lat="31.9372207" lon="34.9527114">
<ele>137.130005</ele>
<time>2015-05-24T04:37:24.000Z</time>
</trkpt>
<trkpt lat="31.9371596" lon="34.9528016">
<ele>137.130005</ele>
<time>2015-05-24T04:37:31.000Z</time>
</trkpt>
<trkpt lat="31.9371668" lon="34.9529461">
<ele>137.610001</ele>
<time>2015-05-24T04:37:38.000Z</time>
</trkpt>
<trkpt lat="31.9371825" lon="34.9530691">
<ele>136.639999</ele>
<time>2015-05-24T04:37:44.000Z</time>
</trkpt>
<trkpt lat="31.9371535" lon="34.9531754">
<ele>136.639999</ele>
<time>2015-05-24T04:37:49.000Z</time>
</trkpt>
<trkpt lat="31.9371026" lon="34.9533004">
<ele>136.639999</ele>
<time>2015-05-24T04:37:54.000Z</time>
</trkpt>
<trkpt lat="31.9370262" lon="34.9534158">
<ele>136.639999</ele>
<time>2015-05-24T04:37:58.000Z</time>
</trkpt>
<trkpt lat="31.9369564" lon="34.9534911">
<ele>136.639999</ele>
<time>2015-05-24T04:38:02.000Z</time>
</trkpt>
<trkpt lat="31.9368642" lon="34.9535423">
<ele>137.610001</ele>
<time>2015-05-24T04:38:08.000Z</time>
</trkpt>
<trkpt lat="31.9367819" lon="34.9536188">
<ele>137.610001</ele>
<time>2015-05-24T04:38:13.000Z</time>
</trkpt>
<trkpt lat="31.9366913" lon="34.9537029">
<ele>138.089996</ele>
<time>2015-05-24T04:38:17.000Z</time>
</trkpt>
<trkpt lat="31.9365996" lon="34.9537364">
<ele>139.050003</ele>
<time>2015-05-24T04:38:22.000Z</time>
</trkpt>
<trkpt lat="31.9365144" lon="34.9537952">
<ele>139.050003</ele>
<time>2015-05-24T04:38:27.000Z</time>
</trkpt>
<trkpt lat="31.9364187" lon="34.9538252">
<ele>140.010010</ele>
<time>2015-05-24T04:38:34.000Z</time>
</trkpt>
<trkpt lat="31.9363156" lon="34.9537855">
<ele>141.449997</ele>
<time>2015-05-24T04:38:43.000Z</time>
</trkpt>
<trkpt lat="31.9362110" lon="34.9537866">
<ele>142.409988</ele>
<time>2015-05-24T04:38:52.000Z</time>
</trkpt>
<trkpt lat="31.9361002" lon="34.9537854">
<ele>143.369995</ele>
<time>2015-05-24T04:39:01.000Z</time>
</trkpt>
<trkpt lat="31.9359880" lon="34.9538202">
<ele>143.369995</ele>
<time>2015-05-24T04:39:10.000Z</time>
</trkpt>
<trkpt lat="31.9358771" lon="34.9538620">
<ele>144.339996</ele>
<time>2015-05-24T04:39:17.000Z</time>
</trkpt>
<trkpt lat="31.9357892" lon="34.9539066">
<ele>144.819992</ele>
<time>2015-05-24T04:39:21.000Z</time>
</trkpt>
<trkpt lat="31.9356804" lon="34.9539020">
<ele>145.300003</ele>
<time>2015-05-24T04:39:25.000Z</time>
</trkpt>
<trkpt lat="31.9355852" lon="34.9538472">
<ele>147.220001</ele>
<time>2015-05-24T04:39:31.000Z</time>
</trkpt>
<trkpt lat="31.9355315" lon="34.9537456">
<ele>147.699997</ele>
<time>2015-05-24T04:39:38.000Z</time>
</trkpt>
<trkpt lat="31.9354480" lon="34.9536582">
<ele>148.659988</ele>
<time>2015-05-24T04:39:45.000Z</time>
</trkpt>
<trkpt lat="31.9353718" lon="34.9535659">
<ele>149.139999</ele>
<time>2015-05-24T04:39:52.000Z</time>
</trkpt>
<trkpt lat="31.9353105" lon="34.9534741">
<ele>150.100006</ele>
<time>2015-05-24T04:40:00.000Z</time>
</trkpt>
<trkpt lat="31.9352102" lon="34.9534004">
<ele>150.100006</ele>
<time>2015-05-24T04:40:07.000Z</time>
</trkpt>
<trkpt lat="31.9351051" lon="34.9534022">
<ele>149.619995</ele>
<time>2015-05-24T04:40:12.000Z</time>
</trkpt>
<trkpt lat="31.9349566" lon="34.9534183">
<ele>149.619995</ele>
<time>2015-05-24T04:40:55.000Z</time>
</trkpt>
<trkpt lat="31.9348886" lon="34.9534724">
<ele>149.139999</ele>
<time>2015-05-24T04:41:00.000Z</time>
</trkpt>
<trkpt lat="31.9348031" lon="34.9535335">
<ele>148.659988</ele>
<time>2015-05-24T04:41:04.000Z</time>
</trkpt>
<trkpt lat="31.9347375" lon="34.9536043">
<ele>147.699997</ele>
<time>2015-05-24T04:41:08.000Z</time>
</trkpt>
<trkpt lat="31.9346847" lon="34.9537371">
<ele>147.220001</ele>
<time>2015-05-24T04:41:12.000Z</time>
</trkpt>
<trkpt lat="31.9346778" lon="34.9538485">
<ele>145.300003</ele>
<time>2015-05-24T04:41:15.000Z</time>
</trkpt>
<trkpt lat="31.9346762" lon="34.9539713">
<ele>144.819992</ele>
<time>2015-05-24T04:41:18.000Z</time>
</trkpt>
<trkpt lat="31.9346441" lon="34.9540921">
<ele>143.850006</ele>
<time>2015-05-24T04:41:22.000Z</time>
</trkpt>
<trkpt lat="31.9345303" lon="34.9541041">
<ele>142.409988</ele>
<time>2015-05-24T04:41:26.000Z</time>
</trkpt>
<trkpt lat="31.9344336" lon="34.9541336">
<ele>141.929993</ele>
<time>2015-05-24T04:41:29.000Z</time>
</trkpt>
<trkpt lat="31.9343618" lon="34.9542264">
<ele>140.490005</ele>
<time>2015-05-24T04:41:32.000Z</time>
</trkpt>
<trkpt lat="31.9343524" lon="34.9543638">
<ele>139.529999</ele>
<time>2015-05-24T04:41:35.000Z</time>
</trkpt>
<trkpt lat="31.9343686" lon="34.9544955">
<ele>137.130005</ele>
<time>2015-05-24T04:41:38.000Z</time>
</trkpt>
<trkpt lat="31.9343053" lon="34.9545538">
<ele>137.130005</ele>
<time>2015-05-24T04:41:44.000Z</time>
</trkpt>
<trkpt lat="31.9342131" lon="34.9545741">
<ele>138.089996</ele>
<time>2015-05-24T04:41:50.000Z</time>
</trkpt>
<trkpt lat="31.9341071" lon="34.9545718">
<ele>139.529999</ele>
<time>2015-05-24T04:41:56.000Z</time>
</trkpt>
<trkpt lat="31.9340064" lon="34.9545470">
<ele>139.050003</ele>
<time>2015-05-24T04:42:02.000Z</time>
</trkpt>
<trkpt lat="31.9339120" lon="34.9545023">
<ele>140.490005</ele>
<time>2015-05-24T04:42:08.000Z</time>
</trkpt>
<trkpt lat="31.9338133" lon="34.9544428">
<ele>141.449997</ele>
<time>2015-05-24T04:42:15.000Z</time>
</trkpt>
<trkpt lat="31.9337442" lon="34.9543576">
<ele>142.409988</ele>
<time>2015-05-24T04:42:23.000Z</time>
</trkpt>
<trkpt lat="31.9336952" lon="34.9542447">
<ele>144.339996</ele>
<time>2015-05-24T04:42:31.000Z</time>
</trkpt>
<trkpt lat="31.9337225" lon="34.9541397">
<ele>144.819992</ele>
<time>2015-05-24T04:42:39.000Z</time>
</trkpt>
<trkpt lat="31.9337490" lon="34.9540408">
<ele>144.819992</ele>
<time>2015-05-24T04:42:47.000Z</time>
</trkpt>
<trkpt lat="31.9337495" lon="34.9539131">
<ele>145.300003</ele>
<time>2015-05-24T04:43:31.000Z</time>
</trkpt>
<trkpt lat="31.9337858" lon="34.9538019">
<ele>145.779999</ele>
<time>2015-05-24T04:43:37.000Z</time>
</trkpt>
<trkpt lat="31.9337904" lon="34.9536793">
<ele>146.260010</ele>
<time>2015-05-24T04:43:44.000Z</time>
</trkpt>
<trkpt lat="31.9337896" lon="34.9535597">
<ele>146.260010</ele>
<time>2015-05-24T04:43:51.000Z</time>
</trkpt>
<trkpt lat="31.9337839" lon="34.9534348">
<ele>146.740005</ele>
<time>2015-05-24T04:43:57.000Z</time>
</trkpt>
<trkpt lat="31.9337765" lon="34.9533103">
<ele>146.740005</ele>
<time>2015-05-24T04:44:03.000Z</time>
</trkpt>
<trkpt lat="31.9337307" lon="34.9532069">
<ele>146.740005</ele>
<time>2015-05-24T04:44:09.000Z</time>
</trkpt>
<trkpt lat="31.9336269" lon="34.9532097">
<ele>147.220001</ele>
<time>2015-05-24T04:44:14.000Z</time>
</trkpt>
<trkpt lat="31.9335347" lon="34.9532540">
<ele>147.699997</ele>
<time>2015-05-24T04:44:19.000Z</time>
</trkpt>
<trkpt lat="31.9334321" lon="34.9532893">
<ele>147.699997</ele>
<time>2015-05-24T04:44:24.000Z</time>
</trkpt>
<trkpt lat="31.9333402" lon="34.9532934">
<ele>148.659988</ele>
<time>2015-05-24T04:44:29.000Z</time>
</trkpt>
<trkpt lat="31.9332360" lon="34.9533001">
<ele>148.659988</ele>
<time>2015-05-24T04:44:35.000Z</time>
</trkpt>
<trkpt lat="31.9331452" lon="34.9533010">
<ele>149.619995</ele>
<time>2015-05-24T04:44:40.000Z</time>
</trkpt>
<trkpt lat="31.9330518" lon="34.9533019">
<ele>149.619995</ele>
<time>2015-05-24T04:44:45.000Z</time>
</trkpt>
<trkpt lat="31.9329743" lon="34.9533056">
<ele>150.100006</ele>
<time>2015-05-24T04:44:49.000Z</time>
</trkpt>
<trkpt lat="31.9328642" lon="34.9533090">
<ele>150.580002</ele>
<time>2015-05-24T04:44:55.000Z</time>
</trkpt>
<trkpt lat="31.9327700" lon="34.9533029">
<ele>151.059998</ele>
<time>2015-05-24T04:45:00.000Z</time>
</trkpt>
<trkpt lat="31.9326767" lon="34.9533046">
<ele>150.580002</ele>
<time>2015-05-24T04:45:06.000Z</time>
</trkpt>
<trkpt lat="31.9325731" lon="34.9532704">
<ele>151.059998</ele>
<time>2015-05-24T04:45:11.000Z</time>
</trkpt>
<trkpt lat="31.9324807" lon="34.9531954">
<ele>151.059998</ele>
<time>2015-05-24T04:45:16.000Z</time>
</trkpt>
<trkpt lat="31.9324040" lon="34.9531152">
<ele>151.059998</ele>
<time>2015-05-24T04:45:20.000Z</time>
</trkpt>
<trkpt lat="31.9323327" lon="34.9530171">
<ele>151.059998</ele>
<time>2015-05-24T04:45:24.000Z</time>
</trkpt>
<trkpt lat="31.9322511" lon="34.9529151">
<ele>151.059998</ele>
<time>2015-05-24T04:45:28.000Z</time>
</trkpt>
<trkpt lat="31.9321889" lon="34.9528340">
<ele>151.059998</ele>
<time>2015-05-24T04:45:31.000Z</time>
</trkpt>
<trkpt lat="31.9321248" lon="34.9527463">
<ele>151.059998</ele>
<time>2015-05-24T04:45:34.000Z</time>
</trkpt>
<trkpt lat="31.9320466" lon="34.9526683">
<ele>151.059998</ele>
<time>2015-05-24T04:45:37.000Z</time>
</trkpt>
<trkpt lat="31.9319587" lon="34.9525955">
<ele>151.539993</ele>
<time>2015-05-24T04:45:40.000Z</time>
</trkpt>
<trkpt lat="31.9318577" lon="34.9525326">
<ele>150.580002</ele>
<time>2015-05-24T04:45:43.000Z</time>
</trkpt>
<trkpt lat="31.9317688" lon="34.9524771">
<ele>151.059998</ele>
<time>2015-05-24T04:45:46.000Z</time>
</trkpt>
<trkpt lat="31.9316523" lon="34.9523921">
<ele>151.539993</ele>
<time>2015-05-24T04:46:16.000Z</time>
</trkpt>
<trkpt lat="31.9315570" lon="34.9523238">
<ele>152.029999</ele>
<time>2015-05-24T04:46:22.000Z</time>
</trkpt>
<trkpt lat="31.9314571" lon="34.9522930">
<ele>152.029999</ele>
<time>2015-05-24T04:46:27.000Z</time>
</trkpt>
<trkpt lat="31.9313633" lon="34.9523470">
<ele>152.510010</ele>
<time>2015-05-24T04:46:33.000Z</time>
</trkpt>
<trkpt lat="31.9313566" lon="34.9524656">
<ele>152.510010</ele>
<time>2015-05-24T04:47:39.000Z</time>
</trkpt>
<trkpt lat="31.9314435" lon="34.9525149">
<ele>152.029999</ele>
<time>2015-05-24T04:47:45.000Z</time>
</trkpt>
<trkpt lat="31.9315177" lon="34.9525941">
<ele>152.029999</ele>
<time>2015-05-24T04:47:51.000Z</time>
</trkpt>
<trkpt lat="31.9315900" lon="34.9526749">
<ele>152.029999</ele>
<time>2015-05-24T04:47:56.000Z</time>
</trkpt>
<trkpt lat="31.9316580" lon="34.9527449">
<ele>152.029999</ele>
<time>2015-05-24T04:48:00.000Z</time>
</trkpt>
<trkpt lat="31.9317274" lon="34.9528230">
<ele>151.539993</ele>
<time>2015-05-24T04:48:04.000Z</time>
</trkpt>
<trkpt lat="31.9317922" lon="34.9528983">
<ele>151.059998</ele>
<time>2015-05-24T04:48:08.000Z</time>
</trkpt>
<trkpt lat="31.9318594" lon="34.9529795">
<ele>151.059998</ele>
<time>2015-05-24T04:48:12.000Z</time>
</trkpt>
<trkpt lat="31.9319334" lon="34.9530888">
<ele>150.100006</ele>
<time>2015-05-24T04:48:16.000Z</time>
</trkpt>
<trkpt lat="31.9319911" lon="34.9531760">
<ele>150.100006</ele>
<time>2015-05-24T04:48:19.000Z</time>
</trkpt>
<trkpt lat="31.9320416" lon="34.9532694">
<ele>150.100006</ele>
<time>2015-05-24T04:48:22.000Z</time>
</trkpt>
<trkpt lat="31.9320903" lon="34.9533623">
<ele>149.619995</ele>
<time>2015-05-24T04:48:25.000Z</time>
</trkpt>
<trkpt lat="31.9321247" lon="34.9534757">
<ele>148.659988</ele>
<time>2015-05-24T04:48:29.000Z</time>
</trkpt>
<trkpt lat="31.9321606" lon="34.9535874">
<ele>147.699997</ele>
<time>2015-05-24T04:48:34.000Z</time>
</trkpt>
<trkpt lat="31.9321867" lon="34.9537029">
<ele>146.740005</ele>
<time>2015-05-24T04:48:38.000Z</time>
</trkpt>
<trkpt lat="31.9321965" lon="34.9538032">
<ele>145.300003</ele>
<time>2015-05-24T04:48:44.000Z</time>
</trkpt>
<trkpt lat="31.9322306" lon="34.9539229">
<ele>145.300003</ele>
<time>2015-05-24T04:49:45.000Z</time>
</trkpt>
<trkpt lat="31.9322735" lon="34.9540500">
<ele>143.850006</ele>
<time>2015-05-24T04:49:50.000Z</time>
</trkpt>
<trkpt lat="31.9322806" lon="34.9541559">
<ele>143.369995</ele>
<time>2015-05-24T04:49:54.000Z</time>
</trkpt>
<trkpt lat="31.9323005" lon="34.9542647">
<ele>142.889999</ele>
<time>2015-05-24T04:49:58.000Z</time>
</trkpt>
<trkpt lat="31.9323336" lon="34.9543713">
<ele>140.970001</ele>
<time>2015-05-24T04:50:03.000Z</time>
</trkpt>
<trkpt lat="31.9323219" lon="34.9544657">
<ele>139.529999</ele>
<time>2015-05-24T04:50:10.000Z</time>
</trkpt>
<trkpt lat="31.9322810" lon="34.9545615">
<ele>139.050003</ele>
<time>2015-05-24T04:50:39.000Z</time>
</trkpt>
<trkpt lat="31.9322353" lon="34.9546605">
<ele>140.490005</ele>
<time>2015-05-24T04:50:47.000Z</time>
</trkpt>
<trkpt lat="31.9322011" lon="34.9547967">
<ele>140.970001</ele>
<time>2015-05-24T04:50:55.000Z</time>
</trkpt>
<trkpt lat="31.9321530" lon="34.9549183">
<ele>142.889999</ele>
<time>2015-05-24T04:51:03.000Z</time>
</trkpt>
<trkpt lat="31.9320994" lon="34.9550065">
<ele>144.339996</ele>
<time>2015-05-24T04:51:11.000Z</time>
</trkpt>
<trkpt lat="31.9320745" lon="34.9551126">
<ele>146.260010</ele>
<time>2015-05-24T04:51:21.000Z</time>
</trkpt>
<trkpt lat="31.9320667" lon="34.9552357">
<ele>147.699997</ele>
<time>2015-05-24T04:51:31.000Z</time>
</trkpt>
<trkpt lat="31.9320706" lon="34.9553547">
<ele>148.659988</ele>
<time>2015-05-24T04:51:41.000Z</time>
</trkpt>
<trkpt lat="31.9320494" lon="34.9554724">
<ele>150.100006</ele>
<time>2015-05-24T04:51:50.000Z</time>
</trkpt>
<trkpt lat="31.9320083" lon="34.9555735">
<ele>152.029999</ele>
<time>2015-05-24T04:52:00.000Z</time>
</trkpt>
<trkpt lat="31.9319789" lon="34.9556937">
<ele>153.949997</ele>
<time>2015-05-24T04:52:10.000Z</time>
</trkpt>
<trkpt lat="31.9319487" lon="34.9558054">
<ele>154.909988</ele>
<time>2015-05-24T04:52:20.000Z</time>
</trkpt>
<trkpt lat="31.9319286" lon="34.9559327">
<ele>154.909988</ele>
<time>2015-05-24T04:52:28.000Z</time>
</trkpt>
<trkpt lat="31.9318991" lon="34.9560418">
<ele>155.869995</ele>
<time>2015-05-24T04:52:36.000Z</time>
</trkpt>
<trkpt lat="31.9319097" lon="34.9561553">
<ele>155.869995</ele>
<time>2015-05-24T04:52:42.000Z</time>
</trkpt>
<trkpt lat="31.9319146" lon="34.9562796">
<ele>155.869995</ele>
<time>2015-05-24T04:52:47.000Z</time>
</trkpt>
<trkpt lat="31.9319072" lon="34.9564133">
<ele>156.349991</ele>
<time>2015-05-24T04:52:52.000Z</time>
</trkpt>
<trkpt lat="31.9318893" lon="34.9565367">
<ele>155.869995</ele>
<time>2015-05-24T04:52:56.000Z</time>
</trkpt>
<trkpt lat="31.9318378" lon="34.9566601">
<ele>156.349991</ele>
<time>2015-05-24T04:53:00.000Z</time>
</trkpt>
<trkpt lat="31.9317733" lon="34.9567575">
<ele>157.310013</ele>
<time>2015-05-24T04:53:04.000Z</time>
</trkpt>
<trkpt lat="31.9316933" lon="34.9568484">
<ele>157.789993</ele>
<time>2015-05-24T04:53:09.000Z</time>
</trkpt>
<trkpt lat="31.9316562" lon="34.9569674">
<ele>158.750000</ele>
<time>2015-05-24T04:53:15.000Z</time>
</trkpt>
<trkpt lat="31.9315894" lon="34.9570600">
<ele>158.750000</ele>
<time>2015-05-24T04:53:20.000Z</time>
</trkpt>
<trkpt lat="31.9315365" lon="34.9571638">
<ele>159.239990</ele>
<time>2015-05-24T04:53:25.000Z</time>
</trkpt>
<trkpt lat="31.9314690" lon="34.9572583">
<ele>158.750000</ele>
<time>2015-05-24T04:53:29.000Z</time>
</trkpt>
<trkpt lat="31.9313873" lon="34.9573617">
<ele>158.270004</ele>
<time>2015-05-24T04:53:33.000Z</time>
</trkpt>
<trkpt lat="31.9313126" lon="34.9574480">
<ele>157.789993</ele>
<time>2015-05-24T04:53:36.000Z</time>
</trkpt>
<trkpt lat="31.9312141" lon="34.9575249">
<ele>157.310013</ele>
<time>2015-05-24T04:53:39.000Z</time>
</trkpt>
<trkpt lat="31.9311097" lon="34.9575759">
<ele>156.830002</ele>
<time>2015-05-24T04:53:42.000Z</time>
</trkpt>
<trkpt lat="31.9310011" lon="34.9576157">
<ele>156.830002</ele>
<time>2015-05-24T04:53:45.000Z</time>
</trkpt>
<trkpt lat="31.9308936" lon="34.9576750">
<ele>156.349991</ele>
<time>2015-05-24T04:53:48.000Z</time>
</trkpt>
<trkpt lat="31.9308098" lon="34.9577209">
<ele>155.389999</ele>
<time>2015-05-24T04:53:50.000Z</time>
</trkpt>
<trkpt lat="31.9307266" lon="34.9577783">
<ele>154.909988</ele>
<time>2015-05-24T04:53:52.000Z</time>
</trkpt>
<trkpt lat="31.9306528" lon="34.9578502">
<ele>154.429993</ele>
<time>2015-05-24T04:53:54.000Z</time>
</trkpt>
<trkpt lat="31.9305846" lon="34.9579271">
<ele>153.470001</ele>
<time>2015-05-24T04:53:56.000Z</time>
</trkpt>
<trkpt lat="31.9305242" lon="34.9580186">
<ele>152.510010</ele>
<time>2015-05-24T04:53:58.000Z</time>
</trkpt>
<trkpt lat="31.9304593" lon="34.9581494">
<ele>151.539993</ele>
<time>2015-05-24T04:54:01.000Z</time>
</trkpt>
<trkpt lat="31.9303985" lon="34.9583184">
<ele>149.619995</ele>
<time>2015-05-24T04:55:04.000Z</time>
</trkpt>
<trkpt lat="31.9303568" lon="34.9584229">
<ele>149.619995</ele>
<time>2015-05-24T04:55:08.000Z</time>
</trkpt>
<trkpt lat="31.9303150" lon="34.9585313">
<ele>149.139999</ele>
<time>2015-05-24T04:55:11.000Z</time>
</trkpt>
<trkpt lat="31.9302725" lon="34.9586589">
<ele>148.659988</ele>
<time>2015-05-24T04:55:14.000Z</time>
</trkpt>
<trkpt lat="31.9302513" lon="34.9587879">
<ele>148.659988</ele>
<time>2015-05-24T04:55:17.000Z</time>
</trkpt>
<trkpt lat="31.9302392" lon="34.9589018">
<ele>148.659988</ele>
<time>2015-05-24T04:55:20.000Z</time>
</trkpt>
<trkpt lat="31.9302416" lon="34.9590244">
<ele>148.659988</ele>
<time>2015-05-24T04:55:24.000Z</time>
</trkpt>
<trkpt lat="31.9303061" lon="34.9591286">
<ele>148.179993</ele>
<time>2015-05-24T04:55:28.000Z</time>
</trkpt>
<trkpt lat="31.9303946" lon="34.9591891">
<ele>147.699997</ele>
<time>2015-05-24T04:55:31.000Z</time>
</trkpt>
<trkpt lat="31.9304902" lon="34.9592356">
<ele>147.699997</ele>
<time>2015-05-24T04:55:34.000Z</time>
</trkpt>
<trkpt lat="31.9305973" lon="34.9592785">
<ele>146.260010</ele>
<time>2015-05-24T04:55:37.000Z</time>
</trkpt>
<trkpt lat="31.9307030" lon="34.9593378">
<ele>145.300003</ele>
<time>2015-05-24T04:55:40.000Z</time>
</trkpt>
<trkpt lat="31.9308037" lon="34.9594008">
<ele>143.850006</ele>
<time>2015-05-24T04:55:43.000Z</time>
</trkpt>
<trkpt lat="31.9308728" lon="34.9595239">
<ele>143.369995</ele>
<time>2015-05-24T04:55:46.000Z</time>
</trkpt>
<trkpt lat="31.9309040" lon="34.9596748">
<ele>143.369995</ele>
<time>2015-05-24T04:55:49.000Z</time>
</trkpt>
<trkpt lat="31.9309203" lon="34.9598162">
<ele>143.369995</ele>
<time>2015-05-24T04:55:52.000Z</time>
</trkpt>
<trkpt lat="31.9309398" lon="34.9599324">
<ele>143.369995</ele>
<time>2015-05-24T04:55:55.000Z</time>
</trkpt>
<trkpt lat="31.9309602" lon="34.9600493">
<ele>143.369995</ele>
<time>2015-05-24T04:55:58.000Z</time>
</trkpt>
<trkpt lat="31.9309830" lon="34.9601601">
<ele>143.850006</ele>
<time>2015-05-24T04:56:01.000Z</time>
</trkpt>
<trkpt lat="31.9310165" lon="34.9602627">
<ele>144.339996</ele>
<time>2015-05-24T04:56:06.000Z</time>
</trkpt>
<trkpt lat="31.9310552" lon="34.9603610">
<ele>144.339996</ele>
<time>2015-05-24T04:56:27.000Z</time>
</trkpt>
<trkpt lat="31.9310147" lon="34.9604711">
<ele>145.300003</ele>
<time>2015-05-24T04:56:36.000Z</time>
</trkpt>
<trkpt lat="31.9309289" lon="34.9604959">
<ele>146.740005</ele>
<time>2015-05-24T04:56:45.000Z</time>
</trkpt>
<trkpt lat="31.9308220" lon="34.9604599">
<ele>148.179993</ele>
<time>2015-05-24T04:57:42.000Z</time>
</trkpt>
<trkpt lat="31.9307137" lon="34.9604560">
<ele>149.619995</ele>
<time>2015-05-24T04:57:52.000Z</time>
</trkpt>
<trkpt lat="31.9306018" lon="34.9604973">
<ele>150.580002</ele>
<time>2015-05-24T04:58:01.000Z</time>
</trkpt>
<trkpt lat="31.9304994" lon="34.9605098">
<ele>152.029999</ele>
<time>2015-05-24T04:58:10.000Z</time>
</trkpt>
<trkpt lat="31.9304018" lon="34.9605407">
<ele>153.470001</ele>
<time>2015-05-24T04:58:20.000Z</time>
</trkpt>
<trkpt lat="31.9302893" lon="34.9605961">
<ele>153.470001</ele>
<time>2015-05-24T04:58:29.000Z</time>
</trkpt>
<trkpt lat="31.9301876" lon="34.9606476">
<ele>155.389999</ele>
<time>2015-05-24T04:58:38.000Z</time>
</trkpt>
<trkpt lat="31.9301023" lon="34.9607181">
<ele>155.869995</ele>
<time>2015-05-24T04:58:46.000Z</time>
</trkpt>
<trkpt lat="31.9300097" lon="34.9607922">
<ele>155.869995</ele>
<time>2015-05-24T04:58:52.000Z</time>
</trkpt>
<trkpt lat="31.9299341" lon="34.9608780">
<ele>156.830002</ele>
<time>2015-05-24T04:58:58.000Z</time>
</trkpt>
<trkpt lat="31.9298461" lon="34.9609666">
<ele>156.830002</ele>
<time>2015-05-24T04:59:04.000Z</time>
</trkpt>
<trkpt lat="31.9297623" lon="34.9610449">
<ele>156.830002</ele>
<time>2015-05-24T04:59:10.000Z</time>
</trkpt>
<trkpt lat="31.9296748" lon="34.9610829">
<ele>156.830002</ele>
<time>2015-05-24T04:59:14.000Z</time>
</trkpt>
<trkpt lat="31.9295792" lon="34.9610786">
<ele>157.310013</ele>
<time>2015-05-24T04:59:18.000Z</time>
</trkpt>
<trkpt lat="31.9294822" lon="34.9610501">
<ele>157.310013</ele>
<time>2015-05-24T04:59:23.000Z</time>
</trkpt>
<trkpt lat="31.9293533" lon="34.9610407">
<ele>157.310013</ele>
<time>2015-05-24T04:59:59.000Z</time>
</trkpt>
<trkpt lat="31.9292276" lon="34.9610541">
<ele>156.349991</ele>
<time>2015-05-24T05:03:49.000Z</time>
</trkpt>
<trkpt lat="31.9291288" lon="34.9610580">
<ele>155.869995</ele>
<time>2015-05-24T05:03:54.000Z</time>
</trkpt>
<trkpt lat="31.9290220" lon="34.9610434">
<ele>155.869995</ele>
<time>2015-05-24T05:03:59.000Z</time>
</trkpt>
<trkpt lat="31.9289092" lon="34.9610295">
<ele>155.869995</ele>
<time>2015-05-24T05:04:04.000Z</time>
</trkpt>
<trkpt lat="31.9287918" lon="34.9610111">
<ele>156.349991</ele>
<time>2015-05-24T05:04:09.000Z</time>
</trkpt>
<trkpt lat="31.9286956" lon="34.9610297">
<ele>155.869995</ele>
<time>2015-05-24T05:04:15.000Z</time>
</trkpt>
<trkpt lat="31.9285929" lon="34.9610818">
<ele>154.909988</ele>
<time>2015-05-24T05:04:19.000Z</time>
</trkpt>
<trkpt lat="31.9284788" lon="34.9611546">
<ele>153.949997</ele>
<time>2015-05-24T05:04:23.000Z</time>
</trkpt>
<trkpt lat="31.9283740" lon="34.9612070">
<ele>152.510010</ele>
<time>2015-05-24T05:04:27.000Z</time>
</trkpt>
<trkpt lat="31.9283517" lon="34.9613200">
<ele>151.059998</ele>
<time>2015-05-24T05:04:33.000Z</time>
</trkpt>
<trkpt lat="31.9284363" lon="34.9613683">
<ele>149.619995</ele>
<time>2015-05-24T05:04:38.000Z</time>
</trkpt>
<trkpt lat="31.9285305" lon="34.9613618">
<ele>149.139999</ele>
<time>2015-05-24T05:04:42.000Z</time>
</trkpt>
<trkpt lat="31.9286527" lon="34.9613802">
<ele>148.659988</ele>
<time>2015-05-24T05:04:46.000Z</time>
</trkpt>
<trkpt lat="31.9287400" lon="34.9614531">
<ele>148.659988</ele>
<time>2015-05-24T05:04:50.000Z</time>
</trkpt>
<trkpt lat="31.9288077" lon="34.9615667">
<ele>147.699997</ele>
<time>2015-05-24T05:04:54.000Z</time>
</trkpt>
<trkpt lat="31.9288966" lon="34.9616469">
<ele>147.220001</ele>
<time>2015-05-24T05:04:57.000Z</time>
</trkpt>
<trkpt lat="31.9290170" lon="34.9616826">
<ele>146.740005</ele>
<time>2015-05-24T05:05:00.000Z</time>
</trkpt>
<trkpt lat="31.9291263" lon="34.9616985">
<ele>146.260010</ele>
<time>2015-05-24T05:05:03.000Z</time>
</trkpt>
<trkpt lat="31.9292353" lon="34.9617072">
<ele>146.260010</ele>
<time>2015-05-24T05:05:06.000Z</time>
</trkpt>
<trkpt lat="31.9293652" lon="34.9617049">
<ele>145.779999</ele>
<time>2015-05-24T05:05:51.000Z</time>
</trkpt>
<trkpt lat="31.9294710" lon="34.9617142">
<ele>145.300003</ele>
<time>2015-05-24T05:05:56.000Z</time>
</trkpt>
<trkpt lat="31.9295722" lon="34.9617448">
<ele>145.779999</ele>
<time>2015-05-24T05:06:00.000Z</time>
</trkpt>
<trkpt lat="31.9296671" lon="34.9618100">
<ele>144.339996</ele>
<time>2015-05-24T05:06:04.000Z</time>
</trkpt>
<trkpt lat="31.9297603" lon="34.9618592">
<ele>144.339996</ele>
<time>2015-05-24T05:06:07.000Z</time>
</trkpt>
<trkpt lat="31.9298768" lon="34.9618916">
<ele>143.369995</ele>
<time>2015-05-24T05:06:10.000Z</time>
</trkpt>
<trkpt lat="31.9300007" lon="34.9619814">
<ele>142.409988</ele>
<time>2015-05-24T05:06:13.000Z</time>
</trkpt>
<trkpt lat="31.9300980" lon="34.9620733">
<ele>141.449997</ele>
<time>2015-05-24T05:06:16.000Z</time>
</trkpt>
<trkpt lat="31.9301427" lon="34.9621798">
<ele>140.490005</ele>
<time>2015-05-24T05:06:19.000Z</time>
</trkpt>
<trkpt lat="31.9302286" lon="34.9622724">
<ele>139.529999</ele>
<time>2015-05-24T05:06:22.000Z</time>
</trkpt>
<trkpt lat="31.9303302" lon="34.9623596">
<ele>138.089996</ele>
<time>2015-05-24T05:06:25.000Z</time>
</trkpt>
<trkpt lat="31.9304481" lon="34.9624146">
<ele>136.639999</ele>
<time>2015-05-24T05:06:28.000Z</time>
</trkpt>
<trkpt lat="31.9305397" lon="34.9624420">
<ele>135.679993</ele>
<time>2015-05-24T05:06:31.000Z</time>
</trkpt>
<trkpt lat="31.9306404" lon="34.9624845">
<ele>134.240005</ele>
<time>2015-05-24T05:06:35.000Z</time>
</trkpt>
<trkpt lat="31.9307419" lon="34.9625592">
<ele>132.800003</ele>
<time>2015-05-24T05:06:38.000Z</time>
</trkpt>
<trkpt lat="31.9308246" lon="34.9626168">
<ele>132.319992</ele>
<time>2015-05-24T05:06:40.000Z</time>
</trkpt>
<trkpt lat="31.9309432" lon="34.9626711">
<ele>131.360001</ele>
<time>2015-05-24T05:06:43.000Z</time>
</trkpt>
<trkpt lat="31.9310465" lon="34.9626932">
<ele>129.919998</ele>
<time>2015-05-24T05:06:46.000Z</time>
</trkpt>
<trkpt lat="31.9311618" lon="34.9627207">
<ele>129.429993</ele>
<time>2015-05-24T05:06:49.000Z</time>
</trkpt>
<trkpt lat="31.9312840" lon="34.9627635">
<ele>128.949997</ele>
<time>2015-05-24T05:06:52.000Z</time>
</trkpt>
<trkpt lat="31.9313887" lon="34.9627690">
<ele>127.989998</ele>
<time>2015-05-24T05:06:54.000Z</time>
</trkpt>
<trkpt lat="31.9315029" lon="34.9627558">
<ele>127.510002</ele>
<time>2015-05-24T05:06:56.000Z</time>
</trkpt>
<trkpt lat="31.9316034" lon="34.9627371">
<ele>127.030006</ele>
<time>2015-05-24T05:06:58.000Z</time>
</trkpt>
<trkpt lat="31.9317028" lon="34.9627067">
<ele>126.549995</ele>
<time>2015-05-24T05:07:01.000Z</time>
</trkpt>
<trkpt lat="31.9318070" lon="34.9626785">
<ele>125.589996</ele>
<time>2015-05-24T05:07:04.000Z</time>
</trkpt>
<trkpt lat="31.9319280" lon="34.9626467">
<ele>124.150002</ele>
<time>2015-05-24T05:07:07.000Z</time>
</trkpt>
<trkpt lat="31.9320496" lon="34.9626614">
<ele>123.669998</ele>
<time>2015-05-24T05:07:10.000Z</time>
</trkpt>
<trkpt lat="31.9321619" lon="34.9626808">
<ele>123.189995</ele>
<time>2015-05-24T05:07:13.000Z</time>
</trkpt>
<trkpt lat="31.9322903" lon="34.9627382">
<ele>122.220001</ele>
<time>2015-05-24T05:07:16.000Z</time>
</trkpt>
<trkpt lat="31.9323965" lon="34.9628165">
<ele>122.220001</ele>
<time>2015-05-24T05:07:19.000Z</time>
</trkpt>
<trkpt lat="31.9324063" lon="34.9629170">
<ele>122.709999</ele>
<time>2015-05-24T05:07:23.000Z</time>
</trkpt>
<trkpt lat="31.9323220" lon="34.9629914">
<ele>123.669998</ele>
<time>2015-05-24T05:07:28.000Z</time>
</trkpt>
<trkpt lat="31.9322042" lon="34.9630412">
<ele>123.669998</ele>
<time>2015-05-24T05:08:36.000Z</time>
</trkpt>
<trkpt lat="31.9321413" lon="34.9631191">
<ele>124.150002</ele>
<time>2015-05-24T05:08:41.000Z</time>
</trkpt>
<trkpt lat="31.9320752" lon="34.9631929">
<ele>123.669998</ele>
<time>2015-05-24T05:08:45.000Z</time>
</trkpt>
<trkpt lat="31.9319908" lon="34.9632753">
<ele>124.150002</ele>
<time>2015-05-24T05:08:50.000Z</time>
</trkpt>
<trkpt lat="31.9319189" lon="34.9633449">
<ele>124.630005</ele>
<time>2015-05-24T05:08:54.000Z</time>
</trkpt>
<trkpt lat="31.9318294" lon="34.9634380">
<ele>125.110001</ele>
<time>2015-05-24T05:08:59.000Z</time>
</trkpt>
<trkpt lat="31.9317580" lon="34.9635152">
<ele>124.630005</ele>
<time>2015-05-24T05:09:03.000Z</time>
</trkpt>
<trkpt lat="31.9316917" lon="34.9636073">
<ele>125.110001</ele>
<time>2015-05-24T05:09:07.000Z</time>
</trkpt>
<trkpt lat="31.9316537" lon="34.9637166">
<ele>125.110001</ele>
<time>2015-05-24T05:09:11.000Z</time>
</trkpt>
<trkpt lat="31.9316464" lon="34.9638375">
<ele>125.110001</ele>
<time>2015-05-24T05:09:15.000Z</time>
</trkpt>
<trkpt lat="31.9316703" lon="34.9639713">
<ele>125.589996</ele>
<time>2015-05-24T05:09:19.000Z</time>
</trkpt>
<trkpt lat="31.9317199" lon="34.9640959">
<ele>126.070000</ele>
<time>2015-05-24T05:09:24.000Z</time>
</trkpt>
<trkpt lat="31.9317489" lon="34.9642050">
<ele>126.549995</ele>
<time>2015-05-24T05:09:28.000Z</time>
</trkpt>
<trkpt lat="31.9317870" lon="34.9643149">
<ele>126.549995</ele>
<time>2015-05-24T05:09:32.000Z</time>
</trkpt>
<trkpt lat="31.9318317" lon="34.9644155">
<ele>127.030006</ele>
<time>2015-05-24T05:09:36.000Z</time>
</trkpt>
<trkpt lat="31.9318742" lon="34.9645471">
<ele>127.510002</ele>
<time>2015-05-24T05:09:41.000Z</time>
</trkpt>
<trkpt lat="31.9319053" lon="34.9646561">
<ele>127.989998</ele>
<time>2015-05-24T05:09:45.000Z</time>
</trkpt>
<trkpt lat="31.9319318" lon="34.9647767">
<ele>128.470001</ele>
<time>2015-05-24T05:09:49.000Z</time>
</trkpt>
<trkpt lat="31.9319572" lon="34.9649125">
<ele>127.989998</ele>
<time>2015-05-24T05:09:53.000Z</time>
</trkpt>
<trkpt lat="31.9319739" lon="34.9650246">
<ele>127.989998</ele>
<time>2015-05-24T05:09:56.000Z</time>
</trkpt>
<trkpt lat="31.9319936" lon="34.9651475">
<ele>128.470001</ele>
<time>2015-05-24T05:09:59.000Z</time>
</trkpt>
<trkpt lat="31.9320031" lon="34.9652753">
<ele>128.949997</ele>
<time>2015-05-24T05:10:02.000Z</time>
</trkpt>
<trkpt lat="31.9320038" lon="34.9654223">
<ele>128.949997</ele>
<time>2015-05-24T05:10:05.000Z</time>
</trkpt>
<trkpt lat="31.9320043" lon="34.9655442">
<ele>128.470001</ele>
<time>2015-05-24T05:10:08.000Z</time>
</trkpt>
<trkpt lat="31.9319976" lon="34.9656658">
<ele>129.429993</ele>
<time>2015-05-24T05:10:11.000Z</time>
</trkpt>
<trkpt lat="31.9319776" lon="34.9657883">
<ele>129.429993</ele>
<time>2015-05-24T05:10:14.000Z</time>
</trkpt>
<trkpt lat="31.9319573" lon="34.9659060">
<ele>129.429993</ele>
<time>2015-05-24T05:10:17.000Z</time>
</trkpt>
<trkpt lat="31.9319339" lon="34.9660171">
<ele>129.429993</ele>
<time>2015-05-24T05:10:20.000Z</time>
</trkpt>
<trkpt lat="31.9319127" lon="34.9661359">
<ele>129.919998</ele>
<time>2015-05-24T05:10:23.000Z</time>
</trkpt>
<trkpt lat="31.9318852" lon="34.9662401">
<ele>130.400009</ele>
<time>2015-05-24T05:10:26.000Z</time>
</trkpt>
<trkpt lat="31.9318661" lon="34.9663522">
<ele>130.880005</ele>
<time>2015-05-24T05:10:29.000Z</time>
</trkpt>
<trkpt lat="31.9318447" lon="34.9664659">
<ele>130.880005</ele>
<time>2015-05-24T05:10:32.000Z</time>
</trkpt>
<trkpt lat="31.9318171" lon="34.9665754">
<ele>130.400009</ele>
<time>2015-05-24T05:10:35.000Z</time>
</trkpt>
<trkpt lat="31.9317912" lon="34.9666894">
<ele>129.919998</ele>
<time>2015-05-24T05:10:38.000Z</time>
</trkpt>
<trkpt lat="31.9317576" lon="34.9668139">
<ele>130.400009</ele>
<time>2015-05-24T05:10:41.000Z</time>
</trkpt>
<trkpt lat="31.9317252" lon="34.9669311">
<ele>130.880005</ele>
<time>2015-05-24T05:10:44.000Z</time>
</trkpt>
<trkpt lat="31.9316697" lon="34.9670647">
<ele>130.880005</ele>
<time>2015-05-24T05:10:48.000Z</time>
</trkpt>
<trkpt lat="31.9316164" lon="34.9671792">
<ele>131.360001</ele>
<time>2015-05-24T05:10:52.000Z</time>
</trkpt>
<trkpt lat="31.9315481" lon="34.9672890">
<ele>131.839996</ele>
<time>2015-05-24T05:10:56.000Z</time>
</trkpt>
<trkpt lat="31.9314806" lon="34.9673838">
<ele>131.839996</ele>
<time>2015-05-24T05:11:00.000Z</time>
</trkpt>
<trkpt lat="31.9314216" lon="34.9674734">
<ele>131.839996</ele>
<time>2015-05-24T05:11:03.000Z</time>
</trkpt>
<trkpt lat="31.9313544" lon="34.9675651">
<ele>131.839996</ele>
<time>2015-05-24T05:11:06.000Z</time>
</trkpt>
<trkpt lat="31.9312874" lon="34.9676630">
<ele>132.800003</ele>
<time>2015-05-24T05:11:10.000Z</time>
</trkpt>
<trkpt lat="31.9312144" lon="34.9677705">
<ele>132.800003</ele>
<time>2015-05-24T05:11:14.000Z</time>
</trkpt>
<trkpt lat="31.9311451" lon="34.9678713">
<ele>133.760010</ele>
<time>2015-05-24T05:11:18.000Z</time>
</trkpt>
<trkpt lat="31.9310753" lon="34.9679609">
<ele>134.240005</ele>
<time>2015-05-24T05:11:22.000Z</time>
</trkpt>
<trkpt lat="31.9309945" lon="34.9680658">
<ele>134.240005</ele>
<time>2015-05-24T05:11:26.000Z</time>
</trkpt>
<trkpt lat="31.9309129" lon="34.9681691">
<ele>134.720001</ele>
<time>2015-05-24T05:11:30.000Z</time>
</trkpt>
<trkpt lat="31.9308311" lon="34.9682746">
<ele>134.720001</ele>
<time>2015-05-24T05:11:34.000Z</time>
</trkpt>
<trkpt lat="31.9307613" lon="34.9683613">
<ele>134.720001</ele>
<time>2015-05-24T05:11:37.000Z</time>
</trkpt>
<trkpt lat="31.9306812" lon="34.9684431">
<ele>135.199997</ele>
<time>2015-05-24T05:11:40.000Z</time>
</trkpt>
<trkpt lat="31.9305978" lon="34.9685264">
<ele>135.199997</ele>
<time>2015-05-24T05:11:43.000Z</time>
</trkpt>
<trkpt lat="31.9305200" lon="34.9686149">
<ele>135.679993</ele>
<time>2015-05-24T05:11:46.000Z</time>
</trkpt>
<trkpt lat="31.9304403" lon="34.9687109">
<ele>135.679993</ele>
<time>2015-05-24T05:11:49.000Z</time>
</trkpt>
<trkpt lat="31.9303753" lon="34.9688127">
<ele>136.639999</ele>
<time>2015-05-24T05:11:52.000Z</time>
</trkpt>
<trkpt lat="31.9303272" lon="34.9689254">
<ele>136.639999</ele>
<time>2015-05-24T05:11:55.000Z</time>
</trkpt>
<trkpt lat="31.9303130" lon="34.9690450">
<ele>136.639999</ele>
<time>2015-05-24T05:11:58.000Z</time>
</trkpt>
<trkpt lat="31.9303061" lon="34.9691715">
<ele>138.089996</ele>
<time>2015-05-24T05:12:02.000Z</time>
</trkpt>
<trkpt lat="31.9302823" lon="34.9692905">
<ele>138.089996</ele>
<time>2015-05-24T05:12:06.000Z</time>
</trkpt>
<trkpt lat="31.9302760" lon="34.9694153">
<ele>138.089996</ele>
<time>2015-05-24T05:12:10.000Z</time>
</trkpt>
<trkpt lat="31.9302838" lon="34.9695453">
<ele>139.050003</ele>
<time>2015-05-24T05:12:14.000Z</time>
</trkpt>
<trkpt lat="31.9302908" lon="34.9696842">
<ele>139.050003</ele>
<time>2015-05-24T05:12:18.000Z</time>
</trkpt>
<trkpt lat="31.9303071" lon="34.9698153">
<ele>139.529999</ele>
<time>2015-05-24T05:12:22.000Z</time>
</trkpt>
<trkpt lat="31.9303262" lon="34.9699356">
<ele>139.529999</ele>
<time>2015-05-24T05:12:26.000Z</time>
</trkpt>
<trkpt lat="31.9303510" lon="34.9700563">
<ele>140.490005</ele>
<time>2015-05-24T05:12:30.000Z</time>
</trkpt>
<trkpt lat="31.9303767" lon="34.9701938">
<ele>140.010010</ele>
<time>2015-05-24T05:12:34.000Z</time>
</trkpt>
<trkpt lat="31.9304032" lon="34.9703252">
<ele>140.490005</ele>
<time>2015-05-24T05:12:38.000Z</time>
</trkpt>
<trkpt lat="31.9304355" lon="34.9704472">
<ele>140.490005</ele>
<time>2015-05-24T05:12:41.000Z</time>
</trkpt>
<trkpt lat="31.9304743" lon="34.9705756">
<ele>140.490005</ele>
<time>2015-05-24T05:12:44.000Z</time>
</trkpt>
<trkpt lat="31.9305110" lon="34.9706896">
<ele>141.449997</ele>
<time>2015-05-24T05:12:47.000Z</time>
</trkpt>
<trkpt lat="31.9305533" lon="34.9708057">
<ele>142.889999</ele>
<time>2015-05-24T05:12:51.000Z</time>
</trkpt>
<trkpt lat="31.9305980" lon="34.9709166">
<ele>143.369995</ele>
<time>2015-05-24T05:12:56.000Z</time>
</trkpt>
<trkpt lat="31.9306632" lon="34.9710223">
<ele>144.339996</ele>
<time>2015-05-24T05:13:01.000Z</time>
</trkpt>
<trkpt lat="31.9307639" lon="34.9711030">
<ele>144.339996</ele>
<time>2015-05-24T05:13:06.000Z</time>
</trkpt>
<trkpt lat="31.9308486" lon="34.9711913">
<ele>144.819992</ele>
<time>2015-05-24T05:13:10.000Z</time>
</trkpt>
<trkpt lat="31.9309295" lon="34.9712587">
<ele>145.300003</ele>
<time>2015-05-24T05:13:14.000Z</time>
</trkpt>
<trkpt lat="31.9310170" lon="34.9713266">
<ele>145.779999</ele>
<time>2015-05-24T05:13:18.000Z</time>
</trkpt>
<trkpt lat="31.9311034" lon="34.9714057">
<ele>145.300003</ele>
<time>2015-05-24T05:13:22.000Z</time>
</trkpt>
<trkpt lat="31.9311717" lon="34.9714677">
<ele>146.260010</ele>
<time>2015-05-24T05:13:25.000Z</time>
</trkpt>
<trkpt lat="31.9312755" lon="34.9715402">
<ele>146.740005</ele>
<time>2015-05-24T05:13:29.000Z</time>
</trkpt>
<trkpt lat="31.9313669" lon="34.9716254">
<ele>146.740005</ele>
<time>2015-05-24T05:13:33.000Z</time>
</trkpt>
<trkpt lat="31.9314509" lon="34.9717030">
<ele>147.220001</ele>
<time>2015-05-24T05:13:37.000Z</time>
</trkpt>
<trkpt lat="31.9315196" lon="34.9717767">
<ele>147.699997</ele>
<time>2015-05-24T05:13:41.000Z</time>
</trkpt>
<trkpt lat="31.9316091" lon="34.9718620">
<ele>147.699997</ele>
<time>2015-05-24T05:13:45.000Z</time>
</trkpt>
<trkpt lat="31.9316939" lon="34.9719325">
<ele>148.179993</ele>
<time>2015-05-24T05:13:49.000Z</time>
</trkpt>
<trkpt lat="31.9317774" lon="34.9720095">
<ele>148.659988</ele>
<time>2015-05-24T05:13:53.000Z</time>
</trkpt>
<trkpt lat="31.9318640" lon="34.9720998">
<ele>149.139999</ele>
<time>2015-05-24T05:13:57.000Z</time>
</trkpt>
<trkpt lat="31.9319510" lon="34.9721783">
<ele>149.139999</ele>
<time>2015-05-24T05:14:01.000Z</time>
</trkpt>
<trkpt lat="31.9320324" lon="34.9722470">
<ele>149.139999</ele>
<time>2015-05-24T05:14:05.000Z</time>
</trkpt>
<trkpt lat="31.9320400" lon="34.9723390">
<ele>149.619995</ele>
<time>2015-05-24T05:14:34.000Z</time>
</trkpt>
<trkpt lat="31.9320178" lon="34.9724410">
<ele>150.580002</ele>
<time>2015-05-24T05:14:40.000Z</time>
</trkpt>
<trkpt lat="31.9320485" lon="34.9725571">
<ele>151.059998</ele>
<time>2015-05-24T05:14:46.000Z</time>
</trkpt>
<trkpt lat="31.9320821" lon="34.9726668">
<ele>151.059998</ele>
<time>2015-05-24T05:14:52.000Z</time>
</trkpt>
<trkpt lat="31.9321215" lon="34.9727745">
<ele>151.539993</ele>
<time>2015-05-24T05:14:58.000Z</time>
</trkpt>
<trkpt lat="31.9321610" lon="34.9728916">
<ele>152.029999</ele>
<time>2015-05-24T05:15:04.000Z</time>
</trkpt>
<trkpt lat="31.9322000" lon="34.9730087">
<ele>152.510010</ele>
<time>2015-05-24T05:15:10.000Z</time>
</trkpt>
<trkpt lat="31.9322326" lon="34.9731254">
<ele>153.470001</ele>
<time>2015-05-24T05:15:16.000Z</time>
</trkpt>
<trkpt lat="31.9322768" lon="34.9732249">
<ele>153.470001</ele>
<time>2015-05-24T05:15:22.000Z</time>
</trkpt>
<trkpt lat="31.9323576" lon="34.9733353">
<ele>153.949997</ele>
<time>2015-05-24T05:15:59.000Z</time>
</trkpt>
<trkpt lat="31.9324032" lon="34.9734243">
<ele>153.949997</ele>
<time>2015-05-24T05:16:05.000Z</time>
</trkpt>
<trkpt lat="31.9324564" lon="34.9735350">
<ele>154.429993</ele>
<time>2015-05-24T05:16:10.000Z</time>
</trkpt>
<trkpt lat="31.9325128" lon="34.9736392">
<ele>154.429993</ele>
<time>2015-05-24T05:16:15.000Z</time>
</trkpt>
<trkpt lat="31.9325705" lon="34.9737604">
<ele>154.909988</ele>
<time>2015-05-24T05:16:20.000Z</time>
</trkpt>
<trkpt lat="31.9326228" lon="34.9738651">
<ele>154.909988</ele>
<time>2015-05-24T05:16:24.000Z</time>
</trkpt>
<trkpt lat="31.9326832" lon="34.9739759">
<ele>154.429993</ele>
<time>2015-05-24T05:16:28.000Z</time>
</trkpt>
<trkpt lat="31.9327482" lon="34.9740930">
<ele>155.389999</ele>
<time>2015-05-24T05:16:32.000Z</time>
</trkpt>
<trkpt lat="31.9327948" lon="34.9741949">
<ele>155.389999</ele>
<time>2015-05-24T05:16:37.000Z</time>
</trkpt>
<trkpt lat="31.9327818" lon="34.9743153">
<ele>155.389999</ele>
<time>2015-05-24T05:16:55.000Z</time>
</trkpt>
<trkpt lat="31.9327721" lon="34.9744232">
<ele>155.869995</ele>
<time>2015-05-24T05:17:00.000Z</time>
</trkpt>
<trkpt lat="31.9327508" lon="34.9745449">
<ele>156.830002</ele>
<time>2015-05-24T05:17:06.000Z</time>
</trkpt>
<trkpt lat="31.9327156" lon="34.9746570">
<ele>157.789993</ele>
<time>2015-05-24T05:17:12.000Z</time>
</trkpt>
<trkpt lat="31.9326766" lon="34.9747601">
<ele>157.789993</ele>
<time>2015-05-24T05:17:16.000Z</time>
</trkpt>
<trkpt lat="31.9326385" lon="34.9748657">
<ele>157.789993</ele>
<time>2015-05-24T05:17:20.000Z</time>
</trkpt>
<trkpt lat="31.9326051" lon="34.9749701">
<ele>158.270004</ele>
<time>2015-05-24T05:17:24.000Z</time>
</trkpt>
<trkpt lat="31.9325658" lon="34.9750795">
<ele>158.750000</ele>
<time>2015-05-24T05:17:28.000Z</time>
</trkpt>
<trkpt lat="31.9325318" lon="34.9751914">
<ele>159.239990</ele>
<time>2015-05-24T05:17:33.000Z</time>
</trkpt>
<trkpt lat="31.9324937" lon="34.9753101">
<ele>160.200012</ele>
<time>2015-05-24T05:17:38.000Z</time>
</trkpt>
<trkpt lat="31.9324546" lon="34.9754307">
<ele>160.200012</ele>
<time>2015-05-24T05:17:43.000Z</time>
</trkpt>
<trkpt lat="31.9324223" lon="34.9755453">
<ele>160.200012</ele>
<time>2015-05-24T05:17:47.000Z</time>
</trkpt>
<trkpt lat="31.9324001" lon="34.9756554">
<ele>160.679993</ele>
<time>2015-05-24T05:17:51.000Z</time>
</trkpt>
<trkpt lat="31.9323719" lon="34.9757630">
<ele>160.679993</ele>
<time>2015-05-24T05:17:55.000Z</time>
</trkpt>
<trkpt lat="31.9323599" lon="34.9758802">
<ele>160.679993</ele>
<time>2015-05-24T05:17:59.000Z</time>
</trkpt>
<trkpt lat="31.9323492" lon="34.9760098">
<ele>161.639999</ele>
<time>2015-05-24T05:18:04.000Z</time>
</trkpt>
<trkpt lat="31.9323239" lon="34.9761133">
<ele>161.639999</ele>
<time>2015-05-24T05:18:08.000Z</time>
</trkpt>
<trkpt lat="31.9322996" lon="34.9762190">
<ele>161.639999</ele>
<time>2015-05-24T05:18:12.000Z</time>
</trkpt>
<trkpt lat="31.9322664" lon="34.9763195">
<ele>162.119995</ele>
<time>2015-05-24T05:18:16.000Z</time>
</trkpt>
<trkpt lat="31.9322340" lon="34.9764264">
<ele>162.119995</ele>
<time>2015-05-24T05:18:20.000Z</time>
</trkpt>
<trkpt lat="31.9321994" lon="34.9765238">
<ele>162.599991</ele>
<time>2015-05-24T05:18:24.000Z</time>
</trkpt>
<trkpt lat="31.9321548" lon="34.9766396">
<ele>163.080002</ele>
<time>2015-05-24T05:18:29.000Z</time>
</trkpt>
<trkpt lat="31.9321142" lon="34.9767516">
<ele>163.560013</ele>
<time>2015-05-24T05:18:34.000Z</time>
</trkpt>
<trkpt lat="31.9320532" lon="34.9768432">
<ele>164.039993</ele>
<time>2015-05-24T05:18:39.000Z</time>
</trkpt>
<trkpt lat="31.9320006" lon="34.9769530">
<ele>164.039993</ele>
<time>2015-05-24T05:18:44.000Z</time>
</trkpt>
<trkpt lat="31.9319479" lon="34.9770406">
<ele>164.520004</ele>
<time>2015-05-24T05:18:49.000Z</time>
</trkpt>
<trkpt lat="31.9318920" lon="34.9771563">
<ele>164.520004</ele>
<time>2015-05-24T05:18:54.000Z</time>
</trkpt>
<trkpt lat="31.9318525" lon="34.9772526">
<ele>164.520004</ele>
<time>2015-05-24T05:18:58.000Z</time>
</trkpt>
<trkpt lat="31.9318165" lon="34.9773707">
<ele>165.000000</ele>
<time>2015-05-24T05:19:03.000Z</time>
</trkpt>
<trkpt lat="31.9317742" lon="34.9774810">
<ele>165.959991</ele>
<time>2015-05-24T05:19:08.000Z</time>
</trkpt>
<trkpt lat="31.9317251" lon="34.9775929">
<ele>165.959991</ele>
<time>2015-05-24T05:19:42.000Z</time>
</trkpt>
<trkpt lat="31.9316899" lon="34.9777195">
<ele>165.959991</ele>
<time>2015-05-24T05:19:47.000Z</time>
</trkpt>
<trkpt lat="31.9316612" lon="34.9778265">
<ele>165.959991</ele>
<time>2015-05-24T05:19:51.000Z</time>
</trkpt>
<trkpt lat="31.9316416" lon="34.9779314">
<ele>166.929993</ele>
<time>2015-05-24T05:19:55.000Z</time>
</trkpt>
<trkpt lat="31.9316376" lon="34.9780478">
<ele>167.410004</ele>
<time>2015-05-24T05:19:59.000Z</time>
</trkpt>
<trkpt lat="31.9316384" lon="34.9781744">
<ele>167.410004</ele>
<time>2015-05-24T05:20:03.000Z</time>
</trkpt>
<trkpt lat="31.9316267" lon="34.9782965">
<ele>167.410004</ele>
<time>2015-05-24T05:20:07.000Z</time>
</trkpt>
<trkpt lat="31.9316220" lon="34.9784299">
<ele>167.889999</ele>
<time>2015-05-24T05:20:11.000Z</time>
</trkpt>
<trkpt lat="31.9316303" lon="34.9785456">
<ele>168.849991</ele>
<time>2015-05-24T05:20:15.000Z</time>
</trkpt>
<trkpt lat="31.9316700" lon="34.9786666">
<ele>170.289993</ele>
<time>2015-05-24T05:20:20.000Z</time>
</trkpt>
<trkpt lat="31.9316782" lon="34.9787888">
<ele>170.770004</ele>
<time>2015-05-24T05:20:25.000Z</time>
</trkpt>
<trkpt lat="31.9316700" lon="34.9789078">
<ele>171.250000</ele>
<time>2015-05-24T05:20:29.000Z</time>
</trkpt>
<trkpt lat="31.9316793" lon="34.9790506">
<ele>171.250000</ele>
<time>2015-05-24T05:20:33.000Z</time>
</trkpt>
<trkpt lat="31.9317028" lon="34.9791670">
<ele>172.209991</ele>
<time>2015-05-24T05:20:37.000Z</time>
</trkpt>
<trkpt lat="31.9317041" lon="34.9792905">
<ele>173.170013</ele>
<time>2015-05-24T05:20:42.000Z</time>
</trkpt>
<trkpt lat="31.9316945" lon="34.9794036">
<ele>173.660004</ele>
<time>2015-05-24T05:20:47.000Z</time>
</trkpt>
<trkpt lat="31.9316935" lon="34.9795139">
<ele>174.619995</ele>
<time>2015-05-24T05:20:52.000Z</time>
</trkpt>
<trkpt lat="31.9316816" lon="34.9796310">
<ele>175.099991</ele>
<time>2015-05-24T05:20:57.000Z</time>
</trkpt>
<trkpt lat="31.9316613" lon="34.9797486">
<ele>176.060013</ele>
<time>2015-05-24T05:21:03.000Z</time>
</trkpt>
<trkpt lat="31.9316532" lon="34.9798673">
<ele>176.060013</ele>
<time>2015-05-24T05:21:07.000Z</time>
</trkpt>
<trkpt lat="31.9316491" lon="34.9800079">
<ele>177.020004</ele>
<time>2015-05-24T05:21:12.000Z</time>
</trkpt>
<trkpt lat="31.9316510" lon="34.9801372">
<ele>176.539993</ele>
<time>2015-05-24T05:21:17.000Z</time>
</trkpt>
<trkpt lat="31.9316220" lon="34.9802507">
<ele>176.539993</ele>
<time>2015-05-24T05:21:21.000Z</time>
</trkpt>
<trkpt lat="31.9315750" lon="34.9803479">
<ele>177.020004</ele>
<time>2015-05-24T05:21:25.000Z</time>
</trkpt>
<trkpt lat="31.9315211" lon="34.9804333">
<ele>177.020004</ele>
<time>2015-05-24T05:21:29.000Z</time>
</trkpt>
<trkpt lat="31.9314581" lon="34.9805128">
<ele>177.020004</ele>
<time>2015-05-24T05:21:33.000Z</time>
</trkpt>
<trkpt lat="31.9314122" lon="34.9806159">
<ele>177.500000</ele>
<time>2015-05-24T05:21:39.000Z</time>
</trkpt>
<trkpt lat="31.9314924" lon="34.9806821">
<ele>177.979996</ele>
<time>2015-05-24T05:21:45.000Z</time>
</trkpt>
<trkpt lat="31.9315845" lon="34.9807048">
<ele>178.459991</ele>
<time>2015-05-24T05:21:50.000Z</time>
</trkpt>
<trkpt lat="31.9316856" lon="34.9806867">
<ele>179.899994</ele>
<time>2015-05-24T05:21:56.000Z</time>
</trkpt>
<trkpt lat="31.9317781" lon="34.9806589">
<ele>180.380005</ele>
<time>2015-05-24T05:22:02.000Z</time>
</trkpt>
<trkpt lat="31.9318710" lon="34.9806209">
<ele>181.830002</ele>
<time>2015-05-24T05:22:08.000Z</time>
</trkpt>
<trkpt lat="31.9319614" lon="34.9805961">
<ele>182.789993</ele>
<time>2015-05-24T05:22:14.000Z</time>
</trkpt>
<trkpt lat="31.9320680" lon="34.9805995">
<ele>183.750000</ele>
<time>2015-05-24T05:22:20.000Z</time>
</trkpt>
<trkpt lat="31.9321656" lon="34.9806200">
<ele>183.750000</ele>
<time>2015-05-24T05:22:26.000Z</time>
</trkpt>
<trkpt lat="31.9322623" lon="34.9806604">
<ele>185.670013</ele>
<time>2015-05-24T05:22:32.000Z</time>
</trkpt>
<trkpt lat="31.9323573" lon="34.9807081">
<ele>186.630005</ele>
<time>2015-05-24T05:22:38.000Z</time>
</trkpt>
<trkpt lat="31.9324191" lon="34.9807342">
<ele>187.589996</ele>
<time>2015-05-24T05:23:36.000Z</time>
</trkpt>
<trkpt lat="31.9324966" lon="34.9807865">
<ele>188.560013</ele>
<time>2015-05-24T05:23:45.000Z</time>
</trkpt>
<trkpt lat="31.9325871" lon="34.9808117">
<ele>189.520004</ele>
<time>2015-05-24T05:23:51.000Z</time>
</trkpt>
<trkpt lat="31.9326903" lon="34.9808188">
<ele>190.479996</ele>
<time>2015-05-24T05:23:57.000Z</time>
</trkpt>
<trkpt lat="31.9327946" lon="34.9808188">
<ele>191.440002</ele>
<time>2015-05-24T05:24:02.000Z</time>
</trkpt>
<trkpt lat="31.9329163" lon="34.9808027">
<ele>192.880005</ele>
<time>2015-05-24T05:24:08.000Z</time>
</trkpt>
<trkpt lat="31.9329974" lon="34.9807442">
<ele>193.839996</ele>
<time>2015-05-24T05:24:14.000Z</time>
</trkpt>
<trkpt lat="31.9330566" lon="34.9806633">
<ele>195.279999</ele>
<time>2015-05-24T05:24:20.000Z</time>
</trkpt>
<trkpt lat="31.9331029" lon="34.9805527">
<ele>196.250000</ele>
<time>2015-05-24T05:24:26.000Z</time>
</trkpt>
<trkpt lat="31.9331084" lon="34.9804322">
<ele>196.250000</ele>
<time>2015-05-24T05:24:32.000Z</time>
</trkpt>
<trkpt lat="31.9331051" lon="34.9802961">
<ele>196.729996</ele>
<time>2015-05-24T05:24:38.000Z</time>
</trkpt>
<trkpt lat="31.9330647" lon="34.9801580">
<ele>197.210007</ele>
<time>2015-05-24T05:24:44.000Z</time>
</trkpt>
<trkpt lat="31.9330185" lon="34.9800506">
<ele>197.210007</ele>
<time>2015-05-24T05:24:48.000Z</time>
</trkpt>
<trkpt lat="31.9329784" lon="34.9799441">
<ele>196.250000</ele>
<time>2015-05-24T05:24:51.000Z</time>
</trkpt>
<trkpt lat="31.9329411" lon="34.9798366">
<ele>196.250000</ele>
<time>2015-05-24T05:24:54.000Z</time>
</trkpt>
<trkpt lat="31.9329012" lon="34.9797220">
<ele>196.250000</ele>
<time>2015-05-24T05:24:57.000Z</time>
</trkpt>
<trkpt lat="31.9329144" lon="34.9796122">
<ele>196.250000</ele>
<time>2015-05-24T05:25:00.000Z</time>
</trkpt>
<trkpt lat="31.9329756" lon="34.9795157">
<ele>196.729996</ele>
<time>2015-05-24T05:25:04.000Z</time>
</trkpt>
<trkpt lat="31.9330341" lon="34.9794142">
<ele>196.729996</ele>
<time>2015-05-24T05:25:08.000Z</time>
</trkpt>
<trkpt lat="31.9330892" lon="34.9793169">
<ele>196.729996</ele>
<time>2015-05-24T05:25:12.000Z</time>
</trkpt>
<trkpt lat="31.9331557" lon="34.9792087">
<ele>197.210007</ele>
<time>2015-05-24T05:25:16.000Z</time>
</trkpt>
<trkpt lat="31.9332466" lon="34.9791272">
<ele>197.210007</ele>
<time>2015-05-24T05:25:20.000Z</time>
</trkpt>
<trkpt lat="31.9333340" lon="34.9790938">
<ele>197.690002</ele>
<time>2015-05-24T05:25:23.000Z</time>
</trkpt>
<trkpt lat="31.9334509" lon="34.9790695">
<ele>197.690002</ele>
<time>2015-05-24T05:25:27.000Z</time>
</trkpt>
<trkpt lat="31.9335647" lon="34.9790487">
<ele>197.690002</ele>
<time>2015-05-24T05:25:31.000Z</time>
</trkpt>
<trkpt lat="31.9336604" lon="34.9790293">
<ele>197.690002</ele>
<time>2015-05-24T05:25:34.000Z</time>
</trkpt>
<trkpt lat="31.9337604" lon="34.9789997">
<ele>197.690002</ele>
<time>2015-05-24T05:25:37.000Z</time>
</trkpt>
<trkpt lat="31.9338742" lon="34.9789669">
<ele>197.690002</ele>
<time>2015-05-24T05:25:41.000Z</time>
</trkpt>
<trkpt lat="31.9339708" lon="34.9789474">
<ele>197.690002</ele>
<time>2015-05-24T05:25:45.000Z</time>
</trkpt>
<trkpt lat="31.9340522" lon="34.9788483">
<ele>196.729996</ele>
<time>2015-05-24T05:25:49.000Z</time>
</trkpt>
<trkpt lat="31.9340909" lon="34.9787184">
<ele>196.250000</ele>
<time>2015-05-24T05:25:53.000Z</time>
</trkpt>
<trkpt lat="31.9341168" lon="34.9786250">
<ele>195.770004</ele>
<time>2015-05-24T05:26:30.000Z</time>
</trkpt>
<trkpt lat="31.9341583" lon="34.9785319">
<ele>196.729996</ele>
<time>2015-05-24T05:26:34.000Z</time>
</trkpt>
<trkpt lat="31.9341803" lon="34.9784042">
<ele>197.210007</ele>
<time>2015-05-24T05:26:38.000Z</time>
</trkpt>
<trkpt lat="31.9341901" lon="34.9782855">
<ele>197.690002</ele>
<time>2015-05-24T05:26:42.000Z</time>
</trkpt>
<trkpt lat="31.9341607" lon="34.9781630">
<ele>198.170013</ele>
<time>2015-05-24T05:26:47.000Z</time>
</trkpt>
<trkpt lat="31.9341113" lon="34.9780528">
<ele>198.170013</ele>
<time>2015-05-24T05:26:51.000Z</time>
</trkpt>
<trkpt lat="31.9341017" lon="34.9779119">
<ele>198.649994</ele>
<time>2015-05-24T05:26:55.000Z</time>
</trkpt>
<trkpt lat="31.9340912" lon="34.9777761">
<ele>198.649994</ele>
<time>2015-05-24T05:26:59.000Z</time>
</trkpt>
<trkpt lat="31.9340637" lon="34.9776515">
<ele>199.130005</ele>
<time>2015-05-24T05:27:03.000Z</time>
</trkpt>
<trkpt lat="31.9340348" lon="34.9775390">
<ele>198.649994</ele>
<time>2015-05-24T05:27:07.000Z</time>
</trkpt>
<trkpt lat="31.9339774" lon="34.9774037">
<ele>199.130005</ele>
<time>2015-05-24T05:27:11.000Z</time>
</trkpt>
<trkpt lat="31.9339435" lon="34.9773048">
<ele>199.130005</ele>
<time>2015-05-24T05:27:14.000Z</time>
</trkpt>
<trkpt lat="31.9339172" lon="34.9771958">
<ele>199.130005</ele>
<time>2015-05-24T05:27:17.000Z</time>
</trkpt>
<trkpt lat="31.9339053" lon="34.9770634">
<ele>198.649994</ele>
<time>2015-05-24T05:27:21.000Z</time>
</trkpt>
<trkpt lat="31.9338809" lon="34.9769420">
<ele>199.130005</ele>
<time>2015-05-24T05:27:25.000Z</time>
</trkpt>
<trkpt lat="31.9338667" lon="34.9768137">
<ele>198.649994</ele>
<time>2015-05-24T05:27:29.000Z</time>
</trkpt>
<trkpt lat="31.9338556" lon="34.9767022">
<ele>198.649994</ele>
<time>2015-05-24T05:27:32.000Z</time>
</trkpt>
<trkpt lat="31.9338536" lon="34.9765792">
<ele>197.690002</ele>
<time>2015-05-24T05:27:35.000Z</time>
</trkpt>
<trkpt lat="31.9338624" lon="34.9764475">
<ele>197.210007</ele>
<time>2015-05-24T05:27:38.000Z</time>
</trkpt>
<trkpt lat="31.9338992" lon="34.9763213">
<ele>197.210007</ele>
<time>2015-05-24T05:27:41.000Z</time>
</trkpt>
<trkpt lat="31.9339680" lon="34.9762042">
<ele>195.770004</ele>
<time>2015-05-24T05:27:44.000Z</time>
</trkpt>
<trkpt lat="31.9340592" lon="34.9761262">
<ele>196.250000</ele>
<time>2015-05-24T05:27:47.000Z</time>
</trkpt>
<trkpt lat="31.9341501" lon="34.9760644">
<ele>196.250000</ele>
<time>2015-05-24T05:27:50.000Z</time>
</trkpt>
<trkpt lat="31.9342585" lon="34.9760193">
<ele>196.250000</ele>
<time>2015-05-24T05:27:54.000Z</time>
</trkpt>
<trkpt lat="31.9343571" lon="34.9760162">
<ele>195.770004</ele>
<time>2015-05-24T05:27:57.000Z</time>
</trkpt>
<trkpt lat="31.9344786" lon="34.9760209">
<ele>195.770004</ele>
<time>2015-05-24T05:28:01.000Z</time>
</trkpt>
<trkpt lat="31.9345687" lon="34.9760632">
<ele>196.250000</ele>
<time>2015-05-24T05:28:06.000Z</time>
</trkpt>
<trkpt lat="31.9346235" lon="34.9761536">
<ele>196.250000</ele>
<time>2015-05-24T05:28:12.000Z</time>
</trkpt>
<trkpt lat="31.9346873" lon="34.9762522">
<ele>197.690002</ele>
<time>2015-05-24T05:28:19.000Z</time>
</trkpt>
<trkpt lat="31.9347419" lon="34.9763635">
<ele>198.170013</ele>
<time>2015-05-24T05:28:26.000Z</time>
</trkpt>
<trkpt lat="31.9347944" lon="34.9764772">
<ele>198.170013</ele>
<time>2015-05-24T05:28:31.000Z</time>
</trkpt>
<trkpt lat="31.9348488" lon="34.9765815">
<ele>198.649994</ele>
<time>2015-05-24T05:28:35.000Z</time>
</trkpt>
<trkpt lat="31.9349117" lon="34.9766939">
<ele>198.649994</ele>
<time>2015-05-24T05:28:39.000Z</time>
</trkpt>
<trkpt lat="31.9349740" lon="34.9768133">
<ele>198.649994</ele>
<time>2015-05-24T05:28:43.000Z</time>
</trkpt>
<trkpt lat="31.9350181" lon="34.9769167">
<ele>198.649994</ele>
<time>2015-05-24T05:28:46.000Z</time>
</trkpt>
<trkpt lat="31.9350487" lon="34.9770300">
<ele>198.649994</ele>
<time>2015-05-24T05:28:49.000Z</time>
</trkpt>
<trkpt lat="31.9350675" lon="34.9771715">
<ele>198.649994</ele>
<time>2015-05-24T05:28:53.000Z</time>
</trkpt>
<trkpt lat="31.9350890" lon="34.9773094">
<ele>199.130005</ele>
<time>2015-05-24T05:28:57.000Z</time>
</trkpt>
<trkpt lat="31.9351213" lon="34.9774519">
<ele>199.130005</ele>
<time>2015-05-24T05:29:01.000Z</time>
</trkpt>
<trkpt lat="31.9351314" lon="34.9775708">
<ele>199.130005</ele>
<time>2015-05-24T05:29:04.000Z</time>
</trkpt>
<trkpt lat="31.9351241" lon="34.9777092">
<ele>199.130005</ele>
<time>2015-05-24T05:29:07.000Z</time>
</trkpt>
<trkpt lat="31.9351024" lon="34.9778523">
<ele>199.609985</ele>
<time>2015-05-24T05:29:10.000Z</time>
</trkpt>
<trkpt lat="31.9350854" lon="34.9779833">
<ele>199.609985</ele>
<time>2015-05-24T05:29:13.000Z</time>
</trkpt>
<trkpt lat="31.9350647" lon="34.9781165">
<ele>199.609985</ele>
<time>2015-05-24T05:29:16.000Z</time>
</trkpt>
<trkpt lat="31.9350308" lon="34.9782487">
<ele>199.609985</ele>
<time>2015-05-24T05:29:19.000Z</time>
</trkpt>
<trkpt lat="31.9350024" lon="34.9783701">
<ele>200.089996</ele>
<time>2015-05-24T05:29:22.000Z</time>
</trkpt>
<trkpt lat="31.9349702" lon="34.9784856">
<ele>200.570007</ele>
<time>2015-05-24T05:29:25.000Z</time>
</trkpt>
<trkpt lat="31.9349395" lon="34.9785959">
<ele>201.050003</ele>
<time>2015-05-24T05:29:28.000Z</time>
</trkpt>
<trkpt lat="31.9349124" lon="34.9787123">
<ele>200.570007</ele>
<time>2015-05-24T05:29:31.000Z</time>
</trkpt>
<trkpt lat="31.9348646" lon="34.9788370">
<ele>201.529999</ele>
<time>2015-05-24T05:29:34.000Z</time>
</trkpt>
<trkpt lat="31.9348047" lon="34.9789582">
<ele>201.529999</ele>
<time>2015-05-24T05:29:37.000Z</time>
</trkpt>
<trkpt lat="31.9347504" lon="34.9790557">
<ele>201.529999</ele>
<time>2015-05-24T05:29:40.000Z</time>
</trkpt>
<trkpt lat="31.9347000" lon="34.9791586">
<ele>202.490005</ele>
<time>2015-05-24T05:29:44.000Z</time>
</trkpt>
<trkpt lat="31.9346441" lon="34.9792602">
<ele>202.979996</ele>
<time>2015-05-24T05:29:48.000Z</time>
</trkpt>
<trkpt lat="31.9345902" lon="34.9793598">
<ele>204.420013</ele>
<time>2015-05-24T05:29:53.000Z</time>
</trkpt>
<trkpt lat="31.9345263" lon="34.9794680">
<ele>205.859985</ele>
<time>2015-05-24T05:29:59.000Z</time>
</trkpt>
<trkpt lat="31.9345048" lon="34.9795816">
<ele>205.859985</ele>
<time>2015-05-24T05:30:05.000Z</time>
</trkpt>
<trkpt lat="31.9345304" lon="34.9797000">
<ele>206.339996</ele>
<time>2015-05-24T05:30:10.000Z</time>
</trkpt>
<trkpt lat="31.9345885" lon="34.9798109">
<ele>206.339996</ele>
<time>2015-05-24T05:30:16.000Z</time>
</trkpt>
<trkpt lat="31.9346279" lon="34.9799151">
<ele>206.339996</ele>
<time>2015-05-24T05:30:20.000Z</time>
</trkpt>
<trkpt lat="31.9346598" lon="34.9800555">
<ele>206.339996</ele>
<time>2015-05-24T05:31:10.000Z</time>
</trkpt>
<trkpt lat="31.9346669" lon="34.9801855">
<ele>206.339996</ele>
<time>2015-05-24T05:31:14.000Z</time>
</trkpt>
<trkpt lat="31.9346654" lon="34.9802906">
<ele>206.339996</ele>
<time>2015-05-24T05:31:17.000Z</time>
</trkpt>
<trkpt lat="31.9346417" lon="34.9804247">
<ele>206.339996</ele>
<time>2015-05-24T05:31:21.000Z</time>
</trkpt>
<trkpt lat="31.9346112" lon="34.9805433">
<ele>205.859985</ele>
<time>2015-05-24T05:31:24.000Z</time>
</trkpt>
<trkpt lat="31.9345905" lon="34.9806734">
<ele>205.380005</ele>
<time>2015-05-24T05:31:27.000Z</time>
</trkpt>
<trkpt lat="31.9345757" lon="34.9807823">
<ele>204.899994</ele>
<time>2015-05-24T05:31:29.000Z</time>
</trkpt>
<trkpt lat="31.9345509" lon="34.9808982">
<ele>204.420013</ele>
<time>2015-05-24T05:31:31.000Z</time>
</trkpt>
<trkpt lat="31.9345251" lon="34.9810088">
<ele>203.940002</ele>
<time>2015-05-24T05:31:33.000Z</time>
</trkpt>
<trkpt lat="31.9344884" lon="34.9811193">
<ele>203.460007</ele>
<time>2015-05-24T05:31:35.000Z</time>
</trkpt>
<trkpt lat="31.9344549" lon="34.9812372">
<ele>202.979996</ele>
<time>2015-05-24T05:31:37.000Z</time>
</trkpt>
<trkpt lat="31.9344169" lon="34.9813634">
<ele>201.529999</ele>
<time>2015-05-24T05:31:39.000Z</time>
</trkpt>
<trkpt lat="31.9343949" lon="34.9814904">
<ele>200.570007</ele>
<time>2015-05-24T05:31:41.000Z</time>
</trkpt>
<trkpt lat="31.9343793" lon="34.9816007">
<ele>199.609985</ele>
<time>2015-05-24T05:31:43.000Z</time>
</trkpt>
<trkpt lat="31.9343727" lon="34.9817358">
<ele>198.170013</ele>
<time>2015-05-24T05:31:46.000Z</time>
</trkpt>
<trkpt lat="31.9343836" lon="34.9818687">
<ele>196.729996</ele>
<time>2015-05-24T05:31:50.000Z</time>
</trkpt>
<trkpt lat="31.9344868" lon="34.9819048">
<ele>194.320007</ele>
<time>2015-05-24T05:31:54.000Z</time>
</trkpt>
<trkpt lat="31.9346030" lon="34.9818767">
<ele>193.359985</ele>
<time>2015-05-24T05:31:57.000Z</time>
</trkpt>
<trkpt lat="31.9346977" lon="34.9818467">
<ele>191.440002</ele>
<time>2015-05-24T05:31:59.000Z</time>
</trkpt>
<trkpt lat="31.9348044" lon="34.9818181">
<ele>191.440002</ele>
<time>2015-05-24T05:32:01.000Z</time>
</trkpt>
<trkpt lat="31.9349202" lon="34.9817879">
<ele>190.479996</ele>
<time>2015-05-24T05:32:03.000Z</time>
</trkpt>
<trkpt lat="31.9350457" lon="34.9817607">
<ele>189.039993</ele>
<time>2015-05-24T05:32:05.000Z</time>
</trkpt>
<trkpt lat="31.9351673" lon="34.9817299">
<ele>188.080002</ele>
<time>2015-05-24T05:32:07.000Z</time>
</trkpt>
<trkpt lat="31.9352825" lon="34.9816946">
<ele>187.589996</ele>
<time>2015-05-24T05:32:09.000Z</time>
</trkpt>
<trkpt lat="31.9353978" lon="34.9816354">
<ele>186.630005</ele>
<time>2015-05-24T05:32:11.000Z</time>
</trkpt>
<trkpt lat="31.9355074" lon="34.9815483">
<ele>186.149994</ele>
<time>2015-05-24T05:32:13.000Z</time>
</trkpt>
<trkpt lat="31.9355910" lon="34.9814417">
<ele>185.190002</ele>
<time>2015-05-24T05:32:15.000Z</time>
</trkpt>
<trkpt lat="31.9356603" lon="34.9813389">
<ele>184.710007</ele>
<time>2015-05-24T05:32:17.000Z</time>
</trkpt>
<trkpt lat="31.9357224" lon="34.9812411">
<ele>183.750000</ele>
<time>2015-05-24T05:32:19.000Z</time>
</trkpt>
<trkpt lat="31.9357658" lon="34.9811289">
<ele>183.270004</ele>
<time>2015-05-24T05:32:22.000Z</time>
</trkpt>
<trkpt lat="31.9358033" lon="34.9810215">
<ele>182.789993</ele>
<time>2015-05-24T05:32:25.000Z</time>
</trkpt>
<trkpt lat="31.9358490" lon="34.9809209">
<ele>181.830002</ele>
<time>2015-05-24T05:32:28.000Z</time>
</trkpt>
<trkpt lat="31.9359105" lon="34.9808253">
<ele>181.349991</ele>
<time>2015-05-24T05:32:32.000Z</time>
</trkpt>
<trkpt lat="31.9359556" lon="34.9808775">
<ele>181.830002</ele>
<time>2015-05-24T05:33:04.000Z</time>
</trkpt>
<trkpt lat="31.9360583" lon="34.9809179">
<ele>181.830002</ele>
<time>2015-05-24T05:33:09.000Z</time>
</trkpt>
<trkpt lat="31.9361464" lon="34.9808518">
<ele>181.349991</ele>
<time>2015-05-24T05:33:13.000Z</time>
</trkpt>
<trkpt lat="31.9362334" lon="34.9807522">
<ele>181.349991</ele>
<time>2015-05-24T05:33:17.000Z</time>
</trkpt>
<trkpt lat="31.9363326" lon="34.9806763">
<ele>181.349991</ele>
<time>2015-05-24T05:33:21.000Z</time>
</trkpt>
<trkpt lat="31.9364471" lon="34.9806286">
<ele>182.310013</ele>
<time>2015-05-24T05:33:25.000Z</time>
</trkpt>
<trkpt lat="31.9365557" lon="34.9806152">
<ele>182.310013</ele>
<time>2015-05-24T05:33:29.000Z</time>
</trkpt>
<trkpt lat="31.9366462" lon="34.9806462">
<ele>182.310013</ele>
<time>2015-05-24T05:33:33.000Z</time>
</trkpt>
<trkpt lat="31.9367071" lon="34.9807199">
<ele>182.789993</ele>
<time>2015-05-24T05:33:39.000Z</time>
</trkpt>
<trkpt lat="31.9366982" lon="34.9808320">
<ele>183.750000</ele>
<time>2015-05-24T05:33:45.000Z</time>
</trkpt>
<trkpt lat="31.9366943" lon="34.9809416">
<ele>185.670013</ele>
<time>2015-05-24T05:33:51.000Z</time>
</trkpt>
<trkpt lat="31.9367949" lon="34.9809515">
<ele>185.670013</ele>
<time>2015-05-24T05:33:58.000Z</time>
</trkpt>
<trkpt lat="31.9368945" lon="34.9809158">
<ele>185.670013</ele>
<time>2015-05-24T05:34:04.000Z</time>
</trkpt>
<trkpt lat="31.9369951" lon="34.9808624">
<ele>185.190002</ele>
<time>2015-05-24T05:34:09.000Z</time>
</trkpt>
<trkpt lat="31.9370617" lon="34.9807556">
<ele>185.670013</ele>
<time>2015-05-24T05:34:13.000Z</time>
</trkpt>
<trkpt lat="31.9371144" lon="34.9806481">
<ele>184.710007</ele>
<time>2015-05-24T05:34:16.000Z</time>
</trkpt>
<trkpt lat="31.9371829" lon="34.9805387">
<ele>184.229996</ele>
<time>2015-05-24T05:34:19.000Z</time>
</trkpt>
<trkpt lat="31.9372394" lon="34.9804417">
<ele>184.229996</ele>
<time>2015-05-24T05:34:22.000Z</time>
</trkpt>
<trkpt lat="31.9372785" lon="34.9803243">
<ele>184.229996</ele>
<time>2015-05-24T05:34:28.000Z</time>
</trkpt>
<trkpt lat="31.9372966" lon="34.9802022">
<ele>184.229996</ele>
<time>2015-05-24T05:34:32.000Z</time>
</trkpt>
<trkpt lat="31.9372870" lon="34.9800890">
<ele>184.229996</ele>
<time>2015-05-24T05:34:35.000Z</time>
</trkpt>
<trkpt lat="31.9372410" lon="34.9799347">
<ele>182.789993</ele>
<time>2015-05-24T05:34:38.000Z</time>
</trkpt>
<trkpt lat="31.9372114" lon="34.9798148">
<ele>182.310013</ele>
<time>2015-05-24T05:34:40.000Z</time>
</trkpt>
<trkpt lat="31.9371955" lon="34.9796823">
<ele>181.830002</ele>
<time>2015-05-24T05:34:42.000Z</time>
</trkpt>
<trkpt lat="31.9371668" lon="34.9795525">
<ele>181.349991</ele>
<time>2015-05-24T05:34:44.000Z</time>
</trkpt>
<trkpt lat="31.9371242" lon="34.9794249">
<ele>180.380005</ele>
<time>2015-05-24T05:34:46.000Z</time>
</trkpt>
<trkpt lat="31.9370773" lon="34.9792948">
<ele>179.420013</ele>
<time>2015-05-24T05:34:48.000Z</time>
</trkpt>
<trkpt lat="31.9370563" lon="34.9791544">
<ele>178.940002</ele>
<time>2015-05-24T05:34:50.000Z</time>
</trkpt>
<trkpt lat="31.9370509" lon="34.9790112">
<ele>178.459991</ele>
<time>2015-05-24T05:34:52.000Z</time>
</trkpt>
<trkpt lat="31.9370585" lon="34.9788687">
<ele>178.459991</ele>
<time>2015-05-24T05:34:54.000Z</time>
</trkpt>
<trkpt lat="31.9370706" lon="34.9787246">
<ele>177.500000</ele>
<time>2015-05-24T05:34:56.000Z</time>
</trkpt>
<trkpt lat="31.9370858" lon="34.9785819">
<ele>177.020004</ele>
<time>2015-05-24T05:34:58.000Z</time>
</trkpt>
<trkpt lat="31.9371005" lon="34.9784399">
<ele>177.020004</ele>
<time>2015-05-24T05:35:00.000Z</time>
</trkpt>
<trkpt lat="31.9371169" lon="34.9783019">
<ele>176.539993</ele>
<time>2015-05-24T05:35:02.000Z</time>
</trkpt>
<trkpt lat="31.9371268" lon="34.9781648">
<ele>176.060013</ele>
<time>2015-05-24T05:35:04.000Z</time>
</trkpt>
<trkpt lat="31.9371411" lon="34.9780296">
<ele>175.580002</ele>
<time>2015-05-24T05:35:06.000Z</time>
</trkpt>
<trkpt lat="31.9371559" lon="34.9778980">
<ele>175.099991</ele>
<time>2015-05-24T05:35:08.000Z</time>
</trkpt>
<trkpt lat="31.9371740" lon="34.9777763">
<ele>175.580002</ele>
<time>2015-05-24T05:35:10.000Z</time>
</trkpt>
<trkpt lat="31.9371863" lon="34.9776416">
<ele>175.099991</ele>
<time>2015-05-24T05:35:13.000Z</time>
</trkpt>
<trkpt lat="31.9371353" lon="34.9775506">
<ele>175.099991</ele>
<time>2015-05-24T05:35:16.000Z</time>
</trkpt>
<trkpt lat="31.9370534" lon="34.9774531">
<ele>174.139999</ele>
<time>2015-05-24T05:35:19.000Z</time>
</trkpt>
<trkpt lat="31.9369591" lon="34.9773586">
<ele>172.690002</ele>
<time>2015-05-24T05:35:22.000Z</time>
</trkpt>
<trkpt lat="31.9368608" lon="34.9772820">
<ele>171.729996</ele>
<time>2015-05-24T05:35:26.000Z</time>
</trkpt>
<trkpt lat="31.9367866" lon="34.9771901">
<ele>171.250000</ele>
<time>2015-05-24T05:35:30.000Z</time>
</trkpt>
<trkpt lat="31.9367575" lon="34.9770784">
<ele>170.770004</ele>
<time>2015-05-24T05:35:36.000Z</time>
</trkpt>
<trkpt lat="31.9367534" lon="34.9769553">
<ele>170.770004</ele>
<time>2015-05-24T05:35:41.000Z</time>
</trkpt>
<trkpt lat="31.9367417" lon="34.9768385">
<ele>169.810013</ele>
<time>2015-05-24T05:35:45.000Z</time>
</trkpt>
<trkpt lat="31.9367312" lon="34.9767167">
<ele>169.810013</ele>
<time>2015-05-24T05:35:50.000Z</time>
</trkpt>
<trkpt lat="31.9367116" lon="34.9766042">
<ele>169.330002</ele>
<time>2015-05-24T05:35:55.000Z</time>
</trkpt>
<trkpt lat="31.9367370" lon="34.9765028">
<ele>169.330002</ele>
<time>2015-05-24T05:36:02.000Z</time>
</trkpt>
<trkpt lat="31.9367515" lon="34.9763802">
<ele>168.369995</ele>
<time>2015-05-24T05:36:19.000Z</time>
</trkpt>
<trkpt lat="31.9367849" lon="34.9762430">
<ele>168.369995</ele>
<time>2015-05-24T05:36:24.000Z</time>
</trkpt>
<trkpt lat="31.9368196" lon="34.9761457">
<ele>168.849991</ele>
<time>2015-05-24T05:36:27.000Z</time>
</trkpt>
<trkpt lat="31.9368740" lon="34.9760301">
<ele>168.369995</ele>
<time>2015-05-24T05:36:31.000Z</time>
</trkpt>
<trkpt lat="31.9369156" lon="34.9759356">
<ele>168.369995</ele>
<time>2015-05-24T05:36:34.000Z</time>
</trkpt>
<trkpt lat="31.9369705" lon="34.9758106">
<ele>168.849991</ele>
<time>2015-05-24T05:36:38.000Z</time>
</trkpt>
<trkpt lat="31.9370368" lon="34.9757181">
<ele>168.369995</ele>
<time>2015-05-24T05:36:42.000Z</time>
</trkpt>
<trkpt lat="31.9371203" lon="34.9756694">
<ele>169.330002</ele>
<time>2015-05-24T05:36:46.000Z</time>
</trkpt>
<trkpt lat="31.9372191" lon="34.9756595">
<ele>170.289993</ele>
<time>2015-05-24T05:36:50.000Z</time>
</trkpt>
<trkpt lat="31.9373070" lon="34.9756912">
<ele>170.770004</ele>
<time>2015-05-24T05:36:54.000Z</time>
</trkpt>
<trkpt lat="31.9374184" lon="34.9756993">
<ele>171.250000</ele>
<time>2015-05-24T05:36:59.000Z</time>
</trkpt>
<trkpt lat="31.9375145" lon="34.9756915">
<ele>172.209991</ele>
<time>2015-05-24T05:37:03.000Z</time>
</trkpt>
<trkpt lat="31.9376009" lon="34.9756628">
<ele>172.690002</ele>
<time>2015-05-24T05:37:07.000Z</time>
</trkpt>
<trkpt lat="31.9376780" lon="34.9755996">
<ele>172.690002</ele>
<time>2015-05-24T05:37:11.000Z</time>
</trkpt>
<trkpt lat="31.9377434" lon="34.9755181">
<ele>173.170013</ele>
<time>2015-05-24T05:37:15.000Z</time>
</trkpt>
<trkpt lat="31.9377808" lon="34.9754018">
<ele>173.660004</ele>
<time>2015-05-24T05:37:20.000Z</time>
</trkpt>
<trkpt lat="31.9377905" lon="34.9752791">
<ele>174.139999</ele>
<time>2015-05-24T05:37:24.000Z</time>
</trkpt>
<trkpt lat="31.9377978" lon="34.9751589">
<ele>174.139999</ele>
<time>2015-05-24T05:37:28.000Z</time>
</trkpt>
<trkpt lat="31.9378324" lon="34.9750535">
<ele>174.139999</ele>
<time>2015-05-24T05:37:32.000Z</time>
</trkpt>
<trkpt lat="31.9378969" lon="34.9749592">
<ele>174.619995</ele>
<time>2015-05-24T05:37:36.000Z</time>
</trkpt>
<trkpt lat="31.9379734" lon="34.9748935">
<ele>174.619995</ele>
<time>2015-05-24T05:37:40.000Z</time>
</trkpt>
<trkpt lat="31.9380669" lon="34.9748364">
<ele>174.139999</ele>
<time>2015-05-24T05:37:46.000Z</time>
</trkpt>
<trkpt lat="31.9381454" lon="34.9747504">
<ele>174.139999</ele>
<time>2015-05-24T05:38:16.000Z</time>
</trkpt>
<trkpt lat="31.9382075" lon="34.9746689">
<ele>173.660004</ele>
<time>2015-05-24T05:38:20.000Z</time>
</trkpt>
<trkpt lat="31.9382764" lon="34.9745955">
<ele>173.170013</ele>
<time>2015-05-24T05:38:23.000Z</time>
</trkpt>
<trkpt lat="31.9383505" lon="34.9744992">
<ele>173.170013</ele>
<time>2015-05-24T05:38:26.000Z</time>
</trkpt>
<trkpt lat="31.9384323" lon="34.9743827">
<ele>172.690002</ele>
<time>2015-05-24T05:38:29.000Z</time>
</trkpt>
<trkpt lat="31.9384950" lon="34.9742996">
<ele>171.729996</ele>
<time>2015-05-24T05:38:31.000Z</time>
</trkpt>
<trkpt lat="31.9385565" lon="34.9742153">
<ele>171.729996</ele>
<time>2015-05-24T05:38:33.000Z</time>
</trkpt>
<trkpt lat="31.9386293" lon="34.9740958">
<ele>170.289993</ele>
<time>2015-05-24T05:38:36.000Z</time>
</trkpt>
<trkpt lat="31.9386965" lon="34.9739768">
<ele>169.330002</ele>
<time>2015-05-24T05:38:39.000Z</time>
</trkpt>
<trkpt lat="31.9387615" lon="34.9738926">
<ele>168.849991</ele>
<time>2015-05-24T05:38:41.000Z</time>
</trkpt>
<trkpt lat="31.9388346" lon="34.9738024">
<ele>168.849991</ele>
<time>2015-05-24T05:38:43.000Z</time>
</trkpt>
<trkpt lat="31.9389171" lon="34.9737175">
<ele>167.410004</ele>
<time>2015-05-24T05:38:45.000Z</time>
</trkpt>
<trkpt lat="31.9389966" lon="34.9736446">
<ele>167.410004</ele>
<time>2015-05-24T05:38:47.000Z</time>
</trkpt>
<trkpt lat="31.9390713" lon="34.9735927">
<ele>165.959991</ele>
<time>2015-05-24T05:38:49.000Z</time>
</trkpt>
<trkpt lat="31.9391463" lon="34.9735210">
<ele>165.479996</ele>
<time>2015-05-24T05:38:52.000Z</time>
</trkpt>
<trkpt lat="31.9391647" lon="34.9733665">
<ele>165.000000</ele>
<time>2015-05-24T05:38:56.000Z</time>
</trkpt>
<trkpt lat="31.9391964" lon="34.9732591">
<ele>164.520004</ele>
<time>2015-05-24T05:38:58.000Z</time>
</trkpt>
<trkpt lat="31.9392146" lon="34.9731495">
<ele>164.039993</ele>
<time>2015-05-24T05:39:00.000Z</time>
</trkpt>
<trkpt lat="31.9392387" lon="34.9730343">
<ele>163.560013</ele>
<time>2015-05-24T05:39:02.000Z</time>
</trkpt>
<trkpt lat="31.9392450" lon="34.9729152">
<ele>163.080002</ele>
<time>2015-05-24T05:39:04.000Z</time>
</trkpt>
<trkpt lat="31.9392593" lon="34.9727900">
<ele>163.080002</ele>
<time>2015-05-24T05:39:06.000Z</time>
</trkpt>
<trkpt lat="31.9393004" lon="34.9726707">
<ele>162.599991</ele>
<time>2015-05-24T05:39:08.000Z</time>
</trkpt>
<trkpt lat="31.9393406" lon="34.9725578">
<ele>162.119995</ele>
<time>2015-05-24T05:39:10.000Z</time>
</trkpt>
<trkpt lat="31.9393818" lon="34.9724437">
<ele>162.119995</ele>
<time>2015-05-24T05:39:12.000Z</time>
</trkpt>
<trkpt lat="31.9394201" lon="34.9723256">
<ele>161.639999</ele>
<time>2015-05-24T05:39:14.000Z</time>
</trkpt>
<trkpt lat="31.9394487" lon="34.9721951">
<ele>161.639999</ele>
<time>2015-05-24T05:39:16.000Z</time>
</trkpt>
<trkpt lat="31.9394720" lon="34.9720625">
<ele>161.160004</ele>
<time>2015-05-24T05:39:18.000Z</time>
</trkpt>
<trkpt lat="31.9394788" lon="34.9719356">
<ele>160.679993</ele>
<time>2015-05-24T05:39:20.000Z</time>
</trkpt>
<trkpt lat="31.9394771" lon="34.9718241">
<ele>161.639999</ele>
<time>2015-05-24T05:39:22.000Z</time>
</trkpt>
<trkpt lat="31.9394548" lon="34.9716675">
<ele>160.679993</ele>
<time>2015-05-24T05:39:25.000Z</time>
</trkpt>
<trkpt lat="31.9394279" lon="34.9715203">
<ele>160.679993</ele>
<time>2015-05-24T05:39:28.000Z</time>
</trkpt>
<trkpt lat="31.9393972" lon="34.9713874">
<ele>161.160004</ele>
<time>2015-05-24T05:39:31.000Z</time>
</trkpt>
<trkpt lat="31.9393663" lon="34.9712734">
<ele>161.160004</ele>
<time>2015-05-24T05:39:34.000Z</time>
</trkpt>
<trkpt lat="31.9393246" lon="34.9711649">
<ele>160.679993</ele>
<time>2015-05-24T05:39:39.000Z</time>
</trkpt>
<trkpt lat="31.9393980" lon="34.9711104">
<ele>161.160004</ele>
<time>2015-05-24T05:39:47.000Z</time>
</trkpt>
<trkpt lat="31.9394218" lon="34.9709956">
<ele>161.639999</ele>
<time>2015-05-24T05:39:52.000Z</time>
</trkpt>
<trkpt lat="31.9394401" lon="34.9708550">
<ele>161.639999</ele>
<time>2015-05-24T05:39:57.000Z</time>
</trkpt>
<trkpt lat="31.9394771" lon="34.9707099">
<ele>162.119995</ele>
<time>2015-05-24T05:40:02.000Z</time>
</trkpt>
<trkpt lat="31.9395267" lon="34.9706031">
<ele>163.080002</ele>
<time>2015-05-24T05:40:09.000Z</time>
</trkpt>
<trkpt lat="31.9395647" lon="34.9707047">
<ele>164.039993</ele>
<time>2015-05-24T05:40:15.000Z</time>
</trkpt>
<trkpt lat="31.9396138" lon="34.9708355">
<ele>164.520004</ele>
<time>2015-05-24T05:40:22.000Z</time>
</trkpt>
<trkpt lat="31.9396795" lon="34.9708007">
<ele>165.000000</ele>
<time>2015-05-24T05:40:29.000Z</time>
</trkpt>
<trkpt lat="31.9397357" lon="34.9707014">
<ele>165.959991</ele>
<time>2015-05-24T05:40:35.000Z</time>
</trkpt>
<trkpt lat="31.9398146" lon="34.9706023">
<ele>166.929993</ele>
<time>2015-05-24T05:40:42.000Z</time>
</trkpt>
<trkpt lat="31.9399199" lon="34.9704992">
<ele>166.929993</ele>
<time>2015-05-24T05:40:49.000Z</time>
</trkpt>
<trkpt lat="31.9400226" lon="34.9705074">
<ele>168.369995</ele>
<time>2015-05-24T05:40:57.000Z</time>
</trkpt>
<trkpt lat="31.9401500" lon="34.9705121">
<ele>169.330002</ele>
<time>2015-05-24T05:41:06.000Z</time>
</trkpt>
<trkpt lat="31.9402488" lon="34.9705229">
<ele>171.250000</ele>
<time>2015-05-24T05:41:15.000Z</time>
</trkpt>
<trkpt lat="31.9403474" lon="34.9705316">
<ele>172.209991</ele>
<time>2015-05-24T05:41:22.000Z</time>
</trkpt>
<trkpt lat="31.9404539" lon="34.9705376">
<ele>173.170013</ele>
<time>2015-05-24T05:41:30.000Z</time>
</trkpt>
<trkpt lat="31.9405499" lon="34.9705372">
<ele>174.139999</ele>
<time>2015-05-24T05:41:37.000Z</time>
</trkpt>
<trkpt lat="31.9406452" lon="34.9705661">
<ele>175.580002</ele>
<time>2015-05-24T05:41:45.000Z</time>
</trkpt>
<trkpt lat="31.9407420" lon="34.9705810">
<ele>177.020004</ele>
<time>2015-05-24T05:41:53.000Z</time>
</trkpt>
<trkpt lat="31.9408436" lon="34.9706082">
<ele>178.940002</ele>
<time>2015-05-24T05:42:01.000Z</time>
</trkpt>
<trkpt lat="31.9409592" lon="34.9706164">
<ele>180.380005</ele>
<time>2015-05-24T05:42:09.000Z</time>
</trkpt>
<trkpt lat="31.9410557" lon="34.9706389">
<ele>181.349991</ele>
<time>2015-05-24T05:42:18.000Z</time>
</trkpt>
<trkpt lat="31.9411618" lon="34.9706474">
<ele>183.270004</ele>
<time>2015-05-24T05:42:27.000Z</time>
</trkpt>
<trkpt lat="31.9412606" lon="34.9706629">
<ele>183.750000</ele>
<time>2015-05-24T05:42:34.000Z</time>
</trkpt>
<trkpt lat="31.9413460" lon="34.9706209">
<ele>186.149994</ele>
<time>2015-05-24T05:42:43.000Z</time>
</trkpt>
<trkpt lat="31.9413870" lon="34.9704928">
<ele>187.109985</ele>
<time>2015-05-24T05:42:51.000Z</time>
</trkpt>
<trkpt lat="31.9414548" lon="34.9703682">
<ele>187.109985</ele>
<time>2015-05-24T05:42:58.000Z</time>
</trkpt>
<trkpt lat="31.9415163" lon="34.9702696">
<ele>188.080002</ele>
<time>2015-05-24T05:43:04.000Z</time>
</trkpt>
<trkpt lat="31.9415861" lon="34.9701736">
<ele>188.080002</ele>
<time>2015-05-24T05:43:11.000Z</time>
</trkpt>
<trkpt lat="31.9416860" lon="34.9701122">
<ele>189.039993</ele>
<time>2015-05-24T05:43:16.000Z</time>
</trkpt>
<trkpt lat="31.9417885" lon="34.9701340">
<ele>190.000000</ele>
<time>2015-05-24T05:43:22.000Z</time>
</trkpt>
<trkpt lat="31.9418749" lon="34.9701888">
<ele>190.479996</ele>
<time>2015-05-24T05:43:28.000Z</time>
</trkpt>
<trkpt lat="31.9419467" lon="34.9702669">
<ele>191.440002</ele>
<time>2015-05-24T05:43:34.000Z</time>
</trkpt>
<trkpt lat="31.9420499" lon="34.9702838">
<ele>191.920013</ele>
<time>2015-05-24T05:43:41.000Z</time>
</trkpt>
<trkpt lat="31.9421642" lon="34.9702813">
<ele>192.880005</ele>
<time>2015-05-24T05:43:47.000Z</time>
</trkpt>
<trkpt lat="31.9422601" lon="34.9703034">
<ele>193.359985</ele>
<time>2015-05-24T05:43:53.000Z</time>
</trkpt>
<trkpt lat="31.9423594" lon="34.9703302">
<ele>193.839996</ele>
<time>2015-05-24T05:44:00.000Z</time>
</trkpt>
<trkpt lat="31.9424445" lon="34.9702738">
<ele>194.320007</ele>
<time>2015-05-24T05:44:06.000Z</time>
</trkpt>
<trkpt lat="31.9424784" lon="34.9701612">
<ele>193.839996</ele>
<time>2015-05-24T05:44:10.000Z</time>
</trkpt>
<trkpt lat="31.9425111" lon="34.9700170">
<ele>192.880005</ele>
<time>2015-05-24T05:44:13.000Z</time>
</trkpt>
<trkpt lat="31.9425608" lon="34.9698720">
<ele>192.880005</ele>
<time>2015-05-24T05:44:16.000Z</time>
</trkpt>
<trkpt lat="31.9425981" lon="34.9697418">
<ele>191.920013</ele>
<time>2015-05-24T05:44:19.000Z</time>
</trkpt>
<trkpt lat="31.9426270" lon="34.9696126">
<ele>190.960007</ele>
<time>2015-05-24T05:45:23.000Z</time>
</trkpt>
<trkpt lat="31.9426420" lon="34.9695108">
<ele>190.479996</ele>
<time>2015-05-24T05:46:30.000Z</time>
</trkpt>
<trkpt lat="31.9426312" lon="34.9693821">
<ele>190.479996</ele>
<time>2015-05-24T05:46:50.000Z</time>
</trkpt>
<trkpt lat="31.9426431" lon="34.9692519">
<ele>189.520004</ele>
<time>2015-05-24T05:46:54.000Z</time>
</trkpt>
<trkpt lat="31.9426644" lon="34.9691199">
<ele>189.039993</ele>
<time>2015-05-24T05:46:57.000Z</time>
</trkpt>
<trkpt lat="31.9427060" lon="34.9689735">
<ele>188.560013</ele>
<time>2015-05-24T05:47:00.000Z</time>
</trkpt>
<trkpt lat="31.9427470" lon="34.9688798">
<ele>188.080002</ele>
<time>2015-05-24T05:47:02.000Z</time>
</trkpt>
<trkpt lat="31.9427937" lon="34.9687856">
<ele>188.080002</ele>
<time>2015-05-24T05:47:04.000Z</time>
</trkpt>
<trkpt lat="31.9428542" lon="34.9686918">
<ele>188.080002</ele>
<time>2015-05-24T05:47:06.000Z</time>
</trkpt>
<trkpt lat="31.9429344" lon="34.9686143">
<ele>187.109985</ele>
<time>2015-05-24T05:47:08.000Z</time>
</trkpt>
<trkpt lat="31.9430277" lon="34.9685901">
<ele>187.589996</ele>
<time>2015-05-24T05:47:10.000Z</time>
</trkpt>
<trkpt lat="31.9431236" lon="34.9685895">
<ele>187.109985</ele>
<time>2015-05-24T05:47:12.000Z</time>
</trkpt>
<trkpt lat="31.9432255" lon="34.9685704">
<ele>186.149994</ele>
<time>2015-05-24T05:47:15.000Z</time>
</trkpt>
<trkpt lat="31.9433106" lon="34.9684850">
<ele>185.670013</ele>
<time>2015-05-24T05:47:19.000Z</time>
</trkpt>
<trkpt lat="31.9433328" lon="34.9683846">
<ele>185.670013</ele>
<time>2015-05-24T05:47:22.000Z</time>
</trkpt>
<trkpt lat="31.9433250" lon="34.9682592">
<ele>185.670013</ele>
<time>2015-05-24T05:47:26.000Z</time>
</trkpt>
<trkpt lat="31.9433307" lon="34.9681175">
<ele>185.670013</ele>
<time>2015-05-24T05:47:30.000Z</time>
</trkpt>
<trkpt lat="31.9433379" lon="34.9679754">
<ele>185.670013</ele>
<time>2015-05-24T05:47:34.000Z</time>
</trkpt>
<trkpt lat="31.9433608" lon="34.9678542">
<ele>185.190002</ele>
<time>2015-05-24T05:47:37.000Z</time>
</trkpt>
<trkpt lat="31.9433767" lon="34.9677236">
<ele>184.710007</ele>
<time>2015-05-24T05:47:40.000Z</time>
</trkpt>
<trkpt lat="31.9433879" lon="34.9675930">
<ele>184.710007</ele>
<time>2015-05-24T05:47:43.000Z</time>
</trkpt>
<trkpt lat="31.9433952" lon="34.9674527">
<ele>184.229996</ele>
<time>2015-05-24T05:47:46.000Z</time>
</trkpt>
<trkpt lat="31.9433959" lon="34.9673068">
<ele>183.750000</ele>
<time>2015-05-24T05:47:49.000Z</time>
</trkpt>
<trkpt lat="31.9434217" lon="34.9671645">
<ele>183.270004</ele>
<time>2015-05-24T05:47:52.000Z</time>
</trkpt>
<trkpt lat="31.9434938" lon="34.9670508">
<ele>181.830002</ele>
<time>2015-05-24T05:47:55.000Z</time>
</trkpt>
<trkpt lat="31.9435963" lon="34.9669896">
<ele>181.349991</ele>
<time>2015-05-24T05:47:58.000Z</time>
</trkpt>
<trkpt lat="31.9437090" lon="34.9669521">
<ele>180.380005</ele>
<time>2015-05-24T05:48:01.000Z</time>
</trkpt>
<trkpt lat="31.9438102" lon="34.9668938">
<ele>179.899994</ele>
<time>2015-05-24T05:48:04.000Z</time>
</trkpt>
<trkpt lat="31.9438678" lon="34.9667760">
<ele>179.420013</ele>
<time>2015-05-24T05:48:07.000Z</time>
</trkpt>
<trkpt lat="31.9438967" lon="34.9666305">
<ele>178.459991</ele>
<time>2015-05-24T05:48:10.000Z</time>
</trkpt>
<trkpt lat="31.9439051" lon="34.9664679">
<ele>177.979996</ele>
<time>2015-05-24T05:48:13.000Z</time>
</trkpt>
<trkpt lat="31.9439100" lon="34.9663339">
<ele>177.020004</ele>
<time>2015-05-24T05:48:16.000Z</time>
</trkpt>
<trkpt lat="31.9439253" lon="34.9661790">
<ele>177.020004</ele>
<time>2015-05-24T05:48:20.000Z</time>
</trkpt>
<trkpt lat="31.9439611" lon="34.9660406">
<ele>176.539993</ele>
<time>2015-05-24T05:48:24.000Z</time>
</trkpt>
<trkpt lat="31.9440472" lon="34.9659475">
<ele>176.060013</ele>
<time>2015-05-24T05:48:27.000Z</time>
</trkpt>
<trkpt lat="31.9441605" lon="34.9658454">
<ele>175.580002</ele>
<time>2015-05-24T05:48:30.000Z</time>
</trkpt>
<trkpt lat="31.9442669" lon="34.9657463">
<ele>175.099991</ele>
<time>2015-05-24T05:48:33.000Z</time>
</trkpt>
<trkpt lat="31.9443767" lon="34.9656511">
<ele>175.099991</ele>
<time>2015-05-24T05:48:36.000Z</time>
</trkpt>
<trkpt lat="31.9444656" lon="34.9655325">
<ele>173.660004</ele>
<time>2015-05-24T05:48:39.000Z</time>
</trkpt>
<trkpt lat="31.9445058" lon="34.9653935">
<ele>172.690002</ele>
<time>2015-05-24T05:48:42.000Z</time>
</trkpt>
<trkpt lat="31.9444975" lon="34.9652730">
<ele>172.209991</ele>
<time>2015-05-24T05:48:45.000Z</time>
</trkpt>
<trkpt lat="31.9445456" lon="34.9651899">
<ele>171.250000</ele>
<time>2015-05-24T05:48:48.000Z</time>
</trkpt>
<trkpt lat="31.9446534" lon="34.9652115">
<ele>170.770004</ele>
<time>2015-05-24T05:48:51.000Z</time>
</trkpt>
<trkpt lat="31.9447452" lon="34.9652106">
<ele>169.810013</ele>
<time>2015-05-24T05:48:53.000Z</time>
</trkpt>
<trkpt lat="31.9448595" lon="34.9652116">
<ele>169.330002</ele>
<time>2015-05-24T05:48:55.000Z</time>
</trkpt>
<trkpt lat="31.9449784" lon="34.9652145">
<ele>168.849991</ele>
<time>2015-05-24T05:48:57.000Z</time>
</trkpt>
<trkpt lat="31.9451012" lon="34.9652266">
<ele>169.810013</ele>
<time>2015-05-24T05:49:00.000Z</time>
</trkpt>
<trkpt lat="31.9452110" lon="34.9652393">
<ele>170.289993</ele>
<time>2015-05-24T05:49:04.000Z</time>
</trkpt>
<trkpt lat="31.9453087" lon="34.9653108">
<ele>170.770004</ele>
<time>2015-05-24T05:49:08.000Z</time>
</trkpt>
<trkpt lat="31.9454050" lon="34.9653735">
<ele>172.209991</ele>
<time>2015-05-24T05:49:12.000Z</time>
</trkpt>
<trkpt lat="31.9454980" lon="34.9654323">
<ele>172.690002</ele>
<time>2015-05-24T05:49:16.000Z</time>
</trkpt>
<trkpt lat="31.9455929" lon="34.9654901">
<ele>172.690002</ele>
<time>2015-05-24T05:49:20.000Z</time>
</trkpt>
<trkpt lat="31.9457040" lon="34.9655268">
<ele>173.660004</ele>
<time>2015-05-24T05:49:24.000Z</time>
</trkpt>
<trkpt lat="31.9458197" lon="34.9655199">
<ele>174.139999</ele>
<time>2015-05-24T05:49:28.000Z</time>
</trkpt>
<trkpt lat="31.9459383" lon="34.9654708">
<ele>175.099991</ele>
<time>2015-05-24T05:49:33.000Z</time>
</trkpt>
<trkpt lat="31.9460274" lon="34.9654184">
<ele>175.580002</ele>
<time>2015-05-24T05:49:38.000Z</time>
</trkpt>
<trkpt lat="31.9460774" lon="34.9653240">
<ele>175.580002</ele>
<time>2015-05-24T05:49:42.000Z</time>
</trkpt>
<trkpt lat="31.9460739" lon="34.9652033">
<ele>176.060013</ele>
<time>2015-05-24T05:49:46.000Z</time>
</trkpt>
<trkpt lat="31.9460590" lon="34.9650654">
<ele>176.060013</ele>
<time>2015-05-24T05:49:50.000Z</time>
</trkpt>
<trkpt lat="31.9460595" lon="34.9649525">
<ele>176.539993</ele>
<time>2015-05-24T05:49:54.000Z</time>
</trkpt>
<trkpt lat="31.9460613" lon="34.9648466">
<ele>177.020004</ele>
<time>2015-05-24T05:49:58.000Z</time>
</trkpt>
<trkpt lat="31.9460748" lon="34.9647181">
<ele>177.979996</ele>
<time>2015-05-24T05:50:02.000Z</time>
</trkpt>
<trkpt lat="31.9460802" lon="34.9645988">
<ele>178.459991</ele>
<time>2015-05-24T05:50:06.000Z</time>
</trkpt>
<trkpt lat="31.9460879" lon="34.9644783">
<ele>179.420013</ele>
<time>2015-05-24T05:50:11.000Z</time>
</trkpt>
<trkpt lat="31.9461014" lon="34.9643537">
<ele>179.420013</ele>
<time>2015-05-24T05:50:16.000Z</time>
</trkpt>
<trkpt lat="31.9461116" lon="34.9642247">
<ele>180.380005</ele>
<time>2015-05-24T05:50:22.000Z</time>
</trkpt>
<trkpt lat="31.9461116" lon="34.9641022">
<ele>180.869995</ele>
<time>2015-05-24T05:50:28.000Z</time>
</trkpt>
<trkpt lat="31.9461064" lon="34.9639719">
<ele>181.830002</ele>
<time>2015-05-24T05:50:34.000Z</time>
</trkpt>
<trkpt lat="31.9461128" lon="34.9638525">
<ele>182.789993</ele>
<time>2015-05-24T05:50:40.000Z</time>
</trkpt>
<trkpt lat="31.9461175" lon="34.9637252">
<ele>182.789993</ele>
<time>2015-05-24T05:50:45.000Z</time>
</trkpt>
<trkpt lat="31.9460998" lon="34.9635958">
<ele>183.750000</ele>
<time>2015-05-24T05:50:51.000Z</time>
</trkpt>
<trkpt lat="31.9461072" lon="34.9634752">
<ele>184.229996</ele>
<time>2015-05-24T05:50:57.000Z</time>
</trkpt>
<trkpt lat="31.9461203" lon="34.9633418">
<ele>184.710007</ele>
<time>2015-05-24T05:51:03.000Z</time>
</trkpt>
<trkpt lat="31.9461336" lon="34.9632105">
<ele>185.670013</ele>
<time>2015-05-24T05:51:09.000Z</time>
</trkpt>
<trkpt lat="31.9461343" lon="34.9630727">
<ele>185.670013</ele>
<time>2015-05-24T05:51:15.000Z</time>
</trkpt>
<trkpt lat="31.9461243" lon="34.9629492">
<ele>185.670013</ele>
<time>2015-05-24T05:51:21.000Z</time>
</trkpt>
<trkpt lat="31.9461199" lon="34.9628132">
<ele>186.630005</ele>
<time>2015-05-24T05:52:01.000Z</time>
</trkpt>
<trkpt lat="31.9461232" lon="34.9627183">
<ele>186.149994</ele>
<time>2015-05-24T05:52:06.000Z</time>
</trkpt>
<trkpt lat="31.9461098" lon="34.9626041">
<ele>187.109985</ele>
<time>2015-05-24T05:52:11.000Z</time>
</trkpt>
<trkpt lat="31.9461196" lon="34.9624846">
<ele>187.109985</ele>
<time>2015-05-24T05:52:17.000Z</time>
</trkpt>
<trkpt lat="31.9461361" lon="34.9623731">
<ele>187.109985</ele>
<time>2015-05-24T05:52:25.000Z</time>
</trkpt>
<trkpt lat="31.9462343" lon="34.9623407">
<ele>187.589996</ele>
<time>2015-05-24T05:52:31.000Z</time>
</trkpt>
<trkpt lat="31.9463550" lon="34.9623178">
<ele>187.589996</ele>
<time>2015-05-24T05:52:37.000Z</time>
</trkpt>
<trkpt lat="31.9464582" lon="34.9623086">
<ele>188.080002</ele>
<time>2015-05-24T05:52:42.000Z</time>
</trkpt>
<trkpt lat="31.9465623" lon="34.9622952">
<ele>188.560013</ele>
<time>2015-05-24T05:52:47.000Z</time>
</trkpt>
<trkpt lat="31.9466690" lon="34.9622937">
<ele>188.560013</ele>
<time>2015-05-24T05:52:52.000Z</time>
</trkpt>
<trkpt lat="31.9467704" lon="34.9622793">
<ele>188.560013</ele>
<time>2015-05-24T05:52:57.000Z</time>
</trkpt>
<trkpt lat="31.9468771" lon="34.9622803">
<ele>188.080002</ele>
<time>2015-05-24T05:53:02.000Z</time>
</trkpt>
<trkpt lat="31.9469790" lon="34.9622376">
<ele>188.560013</ele>
<time>2015-05-24T05:53:06.000Z</time>
</trkpt>
<trkpt lat="31.9470112" lon="34.9621228">
<ele>189.039993</ele>
<time>2015-05-24T05:53:10.000Z</time>
</trkpt>
<trkpt lat="31.9469988" lon="34.9619877">
<ele>189.039993</ele>
<time>2015-05-24T05:53:14.000Z</time>
</trkpt>
<trkpt lat="31.9469841" lon="34.9618654">
<ele>188.080002</ele>
<time>2015-05-24T05:53:17.000Z</time>
</trkpt>
<trkpt lat="31.9470003" lon="34.9617220">
<ele>186.630005</ele>
<time>2015-05-24T05:53:20.000Z</time>
</trkpt>
<trkpt lat="31.9470430" lon="34.9615882">
<ele>185.670013</ele>
<time>2015-05-24T05:53:23.000Z</time>
</trkpt>
<trkpt lat="31.9470874" lon="34.9614736">
<ele>185.190002</ele>
<time>2015-05-24T05:53:26.000Z</time>
</trkpt>
<trkpt lat="31.9471016" lon="34.9613560">
<ele>184.710007</ele>
<time>2015-05-24T05:53:29.000Z</time>
</trkpt>
<trkpt lat="31.9471246" lon="34.9612133">
<ele>183.270004</ele>
<time>2015-05-24T05:53:33.000Z</time>
</trkpt>
<trkpt lat="31.9471403" lon="34.9610882">
<ele>181.830002</ele>
<time>2015-05-24T05:53:37.000Z</time>
</trkpt>
<trkpt lat="31.9472055" lon="34.9609331">
<ele>181.349991</ele>
<time>2015-05-24T05:54:46.000Z</time>
</trkpt>
<trkpt lat="31.9472800" lon="34.9608362">
<ele>179.899994</ele>
<time>2015-05-24T05:54:49.000Z</time>
</trkpt>
<trkpt lat="31.9473633" lon="34.9607640">
<ele>178.940002</ele>
<time>2015-05-24T05:54:52.000Z</time>
</trkpt>
<trkpt lat="31.9474335" lon="34.9606910">
<ele>177.500000</ele>
<time>2015-05-24T05:54:55.000Z</time>
</trkpt>
<trkpt lat="31.9474853" lon="34.9605784">
<ele>176.060013</ele>
<time>2015-05-24T05:54:58.000Z</time>
</trkpt>
<trkpt lat="31.9474985" lon="34.9604281">
<ele>173.660004</ele>
<time>2015-05-24T05:55:02.000Z</time>
</trkpt>
<trkpt lat="31.9475547" lon="34.9602774">
<ele>171.729996</ele>
<time>2015-05-24T05:55:05.000Z</time>
</trkpt>
<trkpt lat="31.9475976" lon="34.9601751">
<ele>170.289993</ele>
<time>2015-05-24T05:55:07.000Z</time>
</trkpt>
<trkpt lat="31.9476537" lon="34.9600766">
<ele>167.889999</ele>
<time>2015-05-24T05:55:11.000Z</time>
</trkpt>
<trkpt lat="31.9476601" lon="34.9599431">
<ele>167.410004</ele>
<time>2015-05-24T05:55:17.000Z</time>
</trkpt>
<trkpt lat="31.9476143" lon="34.9598346">
<ele>167.410004</ele>
<time>2015-05-24T05:55:20.000Z</time>
</trkpt>
<trkpt lat="31.9475782" lon="34.9597002">
<ele>165.479996</ele>
<time>2015-05-24T05:55:23.000Z</time>
</trkpt>
<trkpt lat="31.9475897" lon="34.9595862">
<ele>165.479996</ele>
<time>2015-05-24T05:55:25.000Z</time>
</trkpt>
<trkpt lat="31.9476246" lon="34.9594423">
<ele>163.560013</ele>
<time>2015-05-24T05:55:27.000Z</time>
</trkpt>
<trkpt lat="31.9476900" lon="34.9593018">
<ele>163.080002</ele>
<time>2015-05-24T05:55:29.000Z</time>
</trkpt>
<trkpt lat="31.9477840" lon="34.9592359">
<ele>163.080002</ele>
<time>2015-05-24T05:55:31.000Z</time>
</trkpt>
<trkpt lat="31.9478890" lon="34.9592363">
<ele>164.039993</ele>
<time>2015-05-24T05:55:34.000Z</time>
</trkpt>
<trkpt lat="31.9479929" lon="34.9592529">
<ele>164.520004</ele>
<time>2015-05-24T05:55:39.000Z</time>
</trkpt>
<trkpt lat="31.9480859" lon="34.9592824">
<ele>164.520004</ele>
<time>2015-05-24T05:55:43.000Z</time>
</trkpt>
<trkpt lat="31.9481823" lon="34.9592971">
<ele>165.479996</ele>
<time>2015-05-24T05:55:47.000Z</time>
</trkpt>
<trkpt lat="31.9482877" lon="34.9592683">
<ele>166.450012</ele>
<time>2015-05-24T05:55:52.000Z</time>
</trkpt>
<trkpt lat="31.9483828" lon="34.9592040">
<ele>166.929993</ele>
<time>2015-05-24T05:55:57.000Z</time>
</trkpt>
<trkpt lat="31.9484776" lon="34.9591335">
<ele>168.369995</ele>
<time>2015-05-24T05:56:02.000Z</time>
</trkpt>
<trkpt lat="31.9485716" lon="34.9590646">
<ele>169.330002</ele>
<time>2015-05-24T05:56:07.000Z</time>
</trkpt>
<trkpt lat="31.9486623" lon="34.9589888">
<ele>169.810013</ele>
<time>2015-05-24T05:56:12.000Z</time>
</trkpt>
<trkpt lat="31.9487631" lon="34.9589320">
<ele>170.289993</ele>
<time>2015-05-24T05:56:17.000Z</time>
</trkpt>
<trkpt lat="31.9488627" lon="34.9588947">
<ele>171.729996</ele>
<time>2015-05-24T05:56:22.000Z</time>
</trkpt>
<trkpt lat="31.9489585" lon="34.9588529">
<ele>171.729996</ele>
<time>2015-05-24T05:56:27.000Z</time>
</trkpt>
<trkpt lat="31.9490583" lon="34.9588224">
<ele>172.209991</ele>
<time>2015-05-24T05:56:32.000Z</time>
</trkpt>
<trkpt lat="31.9491560" lon="34.9587817">
<ele>172.690002</ele>
<time>2015-05-24T05:56:36.000Z</time>
</trkpt>
<trkpt lat="31.9492385" lon="34.9587134">
<ele>173.660004</ele>
<time>2015-05-24T05:56:41.000Z</time>
</trkpt>
<trkpt lat="31.9493319" lon="34.9586326">
<ele>174.619995</ele>
<time>2015-05-24T05:56:47.000Z</time>
</trkpt>
<trkpt lat="31.9494102" lon="34.9585673">
<ele>175.099991</ele>
<time>2015-05-24T05:56:51.000Z</time>
</trkpt>
<trkpt lat="31.9495044" lon="34.9584920">
<ele>175.580002</ele>
<time>2015-05-24T05:56:56.000Z</time>
</trkpt>
<trkpt lat="31.9496033" lon="34.9584378">
<ele>175.580002</ele>
<time>2015-05-24T05:57:01.000Z</time>
</trkpt>
<trkpt lat="31.9497095" lon="34.9584021">
<ele>176.539993</ele>
<time>2015-05-24T05:57:06.000Z</time>
</trkpt>
<trkpt lat="31.9498018" lon="34.9583609">
<ele>176.539993</ele>
<time>2015-05-24T05:57:11.000Z</time>
</trkpt>
<trkpt lat="31.9498922" lon="34.9583159">
<ele>177.020004</ele>
<time>2015-05-24T05:57:16.000Z</time>
</trkpt>
<trkpt lat="31.9500037" lon="34.9582900">
<ele>177.500000</ele>
<time>2015-05-24T05:57:21.000Z</time>
</trkpt>
<trkpt lat="31.9500936" lon="34.9582627">
<ele>177.979996</ele>
<time>2015-05-24T05:57:25.000Z</time>
</trkpt>
<trkpt lat="31.9501924" lon="34.9582193">
<ele>178.459991</ele>
<time>2015-05-24T05:57:29.000Z</time>
</trkpt>
<trkpt lat="31.9503007" lon="34.9581845">
<ele>178.459991</ele>
<time>2015-05-24T05:57:33.000Z</time>
</trkpt>
<trkpt lat="31.9503893" lon="34.9581375">
<ele>177.979996</ele>
<time>2015-05-24T05:57:36.000Z</time>
</trkpt>
<trkpt lat="31.9504496" lon="34.9580231">
<ele>179.420013</ele>
<time>2015-05-24T05:57:40.000Z</time>
</trkpt>
<trkpt lat="31.9504893" lon="34.9579048">
<ele>177.979996</ele>
<time>2015-05-24T05:57:44.000Z</time>
</trkpt>
<trkpt lat="31.9505148" lon="34.9577842">
<ele>179.899994</ele>
<time>2015-05-24T05:57:48.000Z</time>
</trkpt>
<trkpt lat="31.9505407" lon="34.9576495">
<ele>179.899994</ele>
<time>2015-05-24T05:57:52.000Z</time>
</trkpt>
<trkpt lat="31.9505754" lon="34.9575139">
<ele>179.899994</ele>
<time>2015-05-24T05:57:56.000Z</time>
</trkpt>
<trkpt lat="31.9506000" lon="34.9573992">
<ele>180.380005</ele>
<time>2015-05-24T05:57:59.000Z</time>
</trkpt>
<trkpt lat="31.9506283" lon="34.9572759">
<ele>179.899994</ele>
<time>2015-05-24T05:58:02.000Z</time>
</trkpt>
<trkpt lat="31.9506535" lon="34.9571519">
<ele>179.899994</ele>
<time>2015-05-24T05:58:05.000Z</time>
</trkpt>
<trkpt lat="31.9506761" lon="34.9570253">
<ele>179.899994</ele>
<time>2015-05-24T05:58:08.000Z</time>
</trkpt>
<trkpt lat="31.9506919" lon="34.9569007">
<ele>179.899994</ele>
<time>2015-05-24T05:58:11.000Z</time>
</trkpt>
<trkpt lat="31.9507204" lon="34.9567764">
<ele>179.420013</ele>
<time>2015-05-24T05:58:14.000Z</time>
</trkpt>
<trkpt lat="31.9507502" lon="34.9566495">
<ele>178.940002</ele>
<time>2015-05-24T05:58:17.000Z</time>
</trkpt>
<trkpt lat="31.9507708" lon="34.9565157">
<ele>178.940002</ele>
<time>2015-05-24T05:58:20.000Z</time>
</trkpt>
<trkpt lat="31.9507939" lon="34.9563804">
<ele>178.459991</ele>
<time>2015-05-24T05:58:23.000Z</time>
</trkpt>
<trkpt lat="31.9508155" lon="34.9562623">
<ele>178.459991</ele>
<time>2015-05-24T05:58:26.000Z</time>
</trkpt>
<trkpt lat="31.9508477" lon="34.9561409">
<ele>177.979996</ele>
<time>2015-05-24T05:58:30.000Z</time>
</trkpt>
<trkpt lat="31.9508938" lon="34.9560187">
<ele>177.020004</ele>
<time>2015-05-24T05:58:35.000Z</time>
</trkpt>
<trkpt lat="31.9509461" lon="34.9558723">
<ele>177.020004</ele>
<time>2015-05-24T05:59:07.000Z</time>
</trkpt>
<trkpt lat="31.9510033" lon="34.9558048">
<ele>177.020004</ele>
<time>2015-05-24T05:59:13.000Z</time>
</trkpt>
<trkpt lat="31.9510598" lon="34.9556955">
<ele>176.539993</ele>
<time>2015-05-24T05:59:19.000Z</time>
</trkpt>
<trkpt lat="31.9511337" lon="34.9556620">
<ele>176.539993</ele>
<time>2015-05-24T05:59:37.000Z</time>
</trkpt>
</trkseg>
</trk>
</gpx>
